<?xml version='1.0' encoding='UTF-8'?><gpx version="1.1" creator="JPX - https://github.com/jenetics/jpx" xmlns="http://www.topografix.com/GPX/1/1"><trk><trkseg><trkpt lat="42.9656" lon="11.4264483"><ele>108.0</ele><time>2026-04-11T10:34:01.982Z</time></trkpt><trkpt lat="42.965675" lon="11.4264983"><ele>108.0</ele><time>2026-04-11T10:34:18.982Z</time></trkpt><trkpt lat="42.9657367" lon="11.4265483"><ele>108.0</ele><time>2026-04-11T10:34:21.982Z</time></trkpt><trkpt lat="42.9657967" lon="11.4266133"><ele>108.0</ele><time>2026-04-11T10:34:26.983Z</time></trkpt><trkpt lat="42.96578" lon="11.426525"><ele>108.0</ele><time>2026-04-11T10:34:38.982Z</time></trkpt><trkpt lat="42.9657183" lon="11.4265017"><ele>108.0</ele><time>2026-04-11T10:34:42.982Z</time></trkpt><trkpt lat="42.9657367" lon="11.426585"><ele>108.0</ele><time>2026-04-11T10:34:47.982Z</time></trkpt><trkpt lat="42.9658017" lon="11.4266033"><ele>108.71428571428571</ele><time>2026-04-11T10:34:50.982Z</time></trkpt><trkpt lat="42.965865" lon="11.4266417"><ele>109.42857142857142</ele><time>2026-04-11T10:34:53.982Z</time></trkpt><trkpt lat="42.9659267" lon="11.4266917"><ele>110.14285714285714</ele><time>2026-04-11T10:34:56.982Z</time></trkpt><trkpt lat="42.9659817" lon="11.4267433"><ele>110.85714285714286</ele><time>2026-04-11T10:34:59.982Z</time></trkpt><trkpt lat="42.96603" lon="11.4268117"><ele>111.57142857142857</ele><time>2026-04-11T10:35:02.982Z</time></trkpt><trkpt lat="42.9660967" lon="11.4268383"><ele>112.28571428571429</ele><time>2026-04-11T10:35:05.982Z</time></trkpt><trkpt lat="42.966175" lon="11.4267867"><ele>113.0</ele><time>2026-04-11T10:35:08.982Z</time></trkpt><trkpt lat="42.9662467" lon="11.4267533"><ele>112.99999999999999</ele><time>2026-04-11T10:35:11.982Z</time></trkpt><trkpt lat="42.9663217" lon="11.4267083"><ele>113.0</ele><time>2026-04-11T10:35:15.982Z</time></trkpt><trkpt lat="42.9663983" lon="11.4266733"><ele>113.0</ele><time>2026-04-11T10:35:18.982Z</time></trkpt><trkpt lat="42.9664733" lon="11.4266983"><ele>113.0</ele><time>2026-04-11T10:35:21.983Z</time></trkpt><trkpt lat="42.9665583" lon="11.42676"><ele>112.99999999999999</ele><time>2026-04-11T10:35:24.983Z</time></trkpt><trkpt lat="42.9666317" lon="11.4268183"><ele>113.0</ele><time>2026-04-11T10:35:27.982Z</time></trkpt><trkpt lat="42.9666967" lon="11.4268783"><ele>113.85714285714286</ele><time>2026-04-11T10:35:30.982Z</time></trkpt><trkpt lat="42.9667417" lon="11.426945"><ele>114.71428571428571</ele><time>2026-04-11T10:35:33.982Z</time></trkpt><trkpt lat="42.9667833" lon="11.42701"><ele>115.57142857142857</ele><time>2026-04-11T10:35:36.983Z</time></trkpt><trkpt lat="42.9668217" lon="11.4270783"><ele>116.42857142857143</ele><time>2026-04-11T10:35:39.982Z</time></trkpt><trkpt lat="42.966865" lon="11.4271433"><ele>117.28571428571428</ele><time>2026-04-11T10:35:42.982Z</time></trkpt><trkpt lat="42.966915" lon="11.4272233"><ele>118.14285714285714</ele><time>2026-04-11T10:35:45.982Z</time></trkpt><trkpt lat="42.9669717" lon="11.4272933"><ele>119.0</ele><time>2026-04-11T10:35:48.982Z</time></trkpt><trkpt lat="42.96702" lon="11.4273633"><ele>119.0</ele><time>2026-04-11T10:35:51.983Z</time></trkpt><trkpt lat="42.967075" lon="11.42743"><ele>119.0</ele><time>2026-04-11T10:35:55.983Z</time></trkpt><trkpt lat="42.96714" lon="11.42742"><ele>119.0</ele><time>2026-04-11T10:35:59.982Z</time></trkpt><trkpt lat="42.9672017" lon="11.4273467"><ele>119.0</ele><time>2026-04-11T10:36:02.982Z</time></trkpt><trkpt lat="42.9672383" lon="11.42726"><ele>119.0</ele><time>2026-04-11T10:36:05.983Z</time></trkpt><trkpt lat="42.96729" lon="11.42718"><ele>119.0</ele><time>2026-04-11T10:36:08.982Z</time></trkpt><trkpt lat="42.9673283" lon="11.4271083"><ele>119.0</ele><time>2026-04-11T10:36:11.982Z</time></trkpt><trkpt lat="42.9673783" lon="11.427035"><ele>118.99999999999999</ele><time>2026-04-11T10:36:14.982Z</time></trkpt><trkpt lat="42.9674383" lon="11.4269583"><ele>119.0</ele><time>2026-04-11T10:36:18.982Z</time></trkpt><trkpt lat="42.9675017" lon="11.426885"><ele>119.0</ele><time>2026-04-11T10:36:22.982Z</time></trkpt><trkpt lat="42.9675617" lon="11.42681"><ele>119.0</ele><time>2026-04-11T10:36:26.982Z</time></trkpt><trkpt lat="42.96761" lon="11.4267367"><ele>118.99999999999999</ele><time>2026-04-11T10:36:29.982Z</time></trkpt><trkpt lat="42.9676633" lon="11.426665"><ele>119.0</ele><time>2026-04-11T10:36:32.982Z</time></trkpt><trkpt lat="42.9677233" lon="11.4266017"><ele>120.14285714285714</ele><time>2026-04-11T10:36:35.982Z</time></trkpt><trkpt lat="42.9677783" lon="11.42653"><ele>121.28571428571428</ele><time>2026-04-11T10:36:38.982Z</time></trkpt><trkpt lat="42.9678267" lon="11.4264583"><ele>122.42857142857143</ele><time>2026-04-11T10:36:41.983Z</time></trkpt><trkpt lat="42.9678633" lon="11.426385"><ele>123.57142857142857</ele><time>2026-04-11T10:36:44.982Z</time></trkpt><trkpt lat="42.9679067" lon="11.4263167"><ele>124.71428571428571</ele><time>2026-04-11T10:36:47.982Z</time></trkpt><trkpt lat="42.9679483" lon="11.4262383"><ele>125.85714285714286</ele><time>2026-04-11T10:36:50.983Z</time></trkpt><trkpt lat="42.9679783" lon="11.426155"><ele>127.0</ele><time>2026-04-11T10:36:53.983Z</time></trkpt><trkpt lat="42.9680083" lon="11.4260633"><ele>127.0</ele><time>2026-04-11T10:36:56.982Z</time></trkpt><trkpt lat="42.968035" lon="11.42597"><ele>127.0</ele><time>2026-04-11T10:36:59.982Z</time></trkpt><trkpt lat="42.96806" lon="11.4258633"><ele>127.0</ele><time>2026-04-11T10:37:03.982Z</time></trkpt><trkpt lat="42.968085" lon="11.4257733"><ele>127.0</ele><time>2026-04-11T10:37:07.982Z</time></trkpt><trkpt lat="42.9681167" lon="11.4256967"><ele>127.0</ele><time>2026-04-11T10:37:10.983Z</time></trkpt><trkpt lat="42.9681367" lon="11.4256083"><ele>127.0</ele><time>2026-04-11T10:37:13.982Z</time></trkpt><trkpt lat="42.9681667" lon="11.42551"><ele>127.0</ele><time>2026-04-11T10:37:16.982Z</time></trkpt><trkpt lat="42.9682083" lon="11.4254117"><ele>127.33333333333334</ele><time>2026-04-11T10:37:19.982Z</time></trkpt><trkpt lat="42.9682483" lon="11.4253133"><ele>127.66666666666667</ele><time>2026-04-11T10:37:22.983Z</time></trkpt><trkpt lat="42.9682733" lon="11.4252283"><ele>128.0</ele><time>2026-04-11T10:37:25.982Z</time></trkpt><trkpt lat="42.9683117" lon="11.42515"><ele>128.33333333333334</ele><time>2026-04-11T10:37:28.982Z</time></trkpt><trkpt lat="42.968345" lon="11.4250683"><ele>128.66666666666666</ele><time>2026-04-11T10:37:31.982Z</time></trkpt><trkpt lat="42.9683817" lon="11.4249667"><ele>129.0</ele><time>2026-04-11T10:37:34.983Z</time></trkpt><trkpt lat="42.9684183" lon="11.424865"><ele>131.16666666666666</ele><time>2026-04-11T10:37:37.983Z</time></trkpt><trkpt lat="42.9684517" lon="11.4247633"><ele>133.33333333333334</ele><time>2026-04-11T10:37:40.982Z</time></trkpt><trkpt lat="42.9684917" lon="11.4246583"><ele>135.5</ele><time>2026-04-11T10:37:43.982Z</time></trkpt><trkpt lat="42.96852" lon="11.42458"><ele>137.66666666666669</ele><time>2026-04-11T10:37:45.982Z</time></trkpt><trkpt lat="42.9685583" lon="11.424465"><ele>139.83333333333334</ele><time>2026-04-11T10:37:48.982Z</time></trkpt><trkpt lat="42.96859" lon="11.42436"><ele>142.0</ele><time>2026-04-11T10:37:51.982Z</time></trkpt><trkpt lat="42.9686183" lon="11.42428"><ele>142.0</ele><time>2026-04-11T10:37:53.981Z</time></trkpt><trkpt lat="42.9686483" lon="11.4242"><ele>142.0</ele><time>2026-04-11T10:37:55.981Z</time></trkpt><trkpt lat="42.9686783" lon="11.42412"><ele>142.0</ele><time>2026-04-11T10:37:57.981Z</time></trkpt><trkpt lat="42.968715" lon="11.424005"><ele>142.0</ele><time>2026-04-11T10:38:00.981Z</time></trkpt><trkpt lat="42.9687417" lon="11.4238867"><ele>142.0</ele><time>2026-04-11T10:38:03.981Z</time></trkpt><trkpt lat="42.9687533" lon="11.42377"><ele>142.0</ele><time>2026-04-11T10:38:06.982Z</time></trkpt><trkpt lat="42.9687683" lon="11.423645"><ele>142.0</ele><time>2026-04-11T10:38:09.981Z</time></trkpt><trkpt lat="42.9687867" lon="11.4235283"><ele>142.0</ele><time>2026-04-11T10:38:12.982Z</time></trkpt><trkpt lat="42.9688017" lon="11.4234433"><ele>142.0</ele><time>2026-04-11T10:38:14.982Z</time></trkpt><trkpt lat="42.9688083" lon="11.423325"><ele>142.0</ele><time>2026-04-11T10:38:17.981Z</time></trkpt><trkpt lat="42.968815" lon="11.4232033"><ele>142.0</ele><time>2026-04-11T10:38:20.981Z</time></trkpt><trkpt lat="42.9688283" lon="11.4230817"><ele>142.0</ele><time>2026-04-11T10:38:23.982Z</time></trkpt><trkpt lat="42.9688383" lon="11.4229967"><ele>141.71428571428572</ele><time>2026-04-11T10:38:25.982Z</time></trkpt><trkpt lat="42.9688483" lon="11.422905"><ele>141.42857142857142</ele><time>2026-04-11T10:38:27.982Z</time></trkpt><trkpt lat="42.968855" lon="11.4228083"><ele>141.14285714285714</ele><time>2026-04-11T10:38:29.981Z</time></trkpt><trkpt lat="42.9688617" lon="11.4227167"><ele>140.85714285714286</ele><time>2026-04-11T10:38:31.981Z</time></trkpt><trkpt lat="42.9688717" lon="11.42262"><ele>140.57142857142856</ele><time>2026-04-11T10:38:33.981Z</time></trkpt><trkpt lat="42.9688767" lon="11.4225283"><ele>140.28571428571428</ele><time>2026-04-11T10:38:35.981Z</time></trkpt><trkpt lat="42.9688817" lon="11.4224317"><ele>140.0</ele><time>2026-04-11T10:38:37.981Z</time></trkpt><trkpt lat="42.968875" lon="11.42234"><ele>140.0</ele><time>2026-04-11T10:38:39.982Z</time></trkpt><trkpt lat="42.96887" lon="11.4222467"><ele>140.0</ele><time>2026-04-11T10:38:41.981Z</time></trkpt><trkpt lat="42.9688567" lon="11.422155"><ele>140.0</ele><time>2026-04-11T10:38:43.982Z</time></trkpt><trkpt lat="42.9688433" lon="11.4220633"><ele>140.0</ele><time>2026-04-11T10:38:45.981Z</time></trkpt><trkpt lat="42.96883" lon="11.4219767"><ele>140.0</ele><time>2026-04-11T10:38:47.981Z</time></trkpt><trkpt lat="42.9688" lon="11.4218633"><ele>140.0</ele><time>2026-04-11T10:38:50.981Z</time></trkpt><trkpt lat="42.96877" lon="11.4217483"><ele>140.0</ele><time>2026-04-11T10:38:53.981Z</time></trkpt><trkpt lat="42.9687383" lon="11.4216283"><ele>140.0</ele><time>2026-04-11T10:38:56.981Z</time></trkpt><trkpt lat="42.9687083" lon="11.4215067"><ele>140.0</ele><time>2026-04-11T10:38:59.982Z</time></trkpt><trkpt lat="42.9686933" lon="11.42142"><ele>140.0</ele><time>2026-04-11T10:39:01.982Z</time></trkpt><trkpt lat="42.96866" lon="11.421305"><ele>140.0</ele><time>2026-04-11T10:39:04.981Z</time></trkpt><trkpt lat="42.9686333" lon="11.421225"><ele>140.0</ele><time>2026-04-11T10:39:06.982Z</time></trkpt><trkpt lat="42.968605" lon="11.4211417"><ele>140.0</ele><time>2026-04-11T10:39:08.981Z</time></trkpt><trkpt lat="42.96858" lon="11.42105"><ele>139.83333333333331</ele><time>2026-04-11T10:39:10.981Z</time></trkpt><trkpt lat="42.968555" lon="11.4209617"><ele>139.66666666666666</ele><time>2026-04-11T10:39:12.982Z</time></trkpt><trkpt lat="42.968535" lon="11.4208767"><ele>139.5</ele><time>2026-04-11T10:39:14.982Z</time></trkpt><trkpt lat="42.9685133" lon="11.4207867"><ele>139.33333333333334</ele><time>2026-04-11T10:39:16.982Z</time></trkpt><trkpt lat="42.9684867" lon="11.4206633"><ele>139.16666666666669</ele><time>2026-04-11T10:39:19.981Z</time></trkpt><trkpt lat="42.9684583" lon="11.420545"><ele>139.0</ele><time>2026-04-11T10:39:22.982Z</time></trkpt><trkpt lat="42.9684417" lon="11.4204617"><ele>139.0</ele><time>2026-04-11T10:39:24.981Z</time></trkpt><trkpt lat="42.9684133" lon="11.4203533"><ele>139.0</ele><time>2026-04-11T10:39:27.981Z</time></trkpt><trkpt lat="42.9683883" lon="11.4202517"><ele>139.0</ele><time>2026-04-11T10:39:30.981Z</time></trkpt><trkpt lat="42.9683717" lon="11.4201567"><ele>139.0</ele><time>2026-04-11T10:39:33.981Z</time></trkpt><trkpt lat="42.96836" lon="11.4200483"><ele>139.0</ele><time>2026-04-11T10:39:36.981Z</time></trkpt><trkpt lat="42.9683517" lon="11.4199433"><ele>139.0</ele><time>2026-04-11T10:39:39.981Z</time></trkpt><trkpt lat="42.968335" lon="11.419855"><ele>138.5</ele><time>2026-04-11T10:39:42.981Z</time></trkpt><trkpt lat="42.968335" lon="11.4197583"><ele>138.0</ele><time>2026-04-11T10:39:44.981Z</time></trkpt><trkpt lat="42.9683383" lon="11.41966"><ele>137.5</ele><time>2026-04-11T10:39:46.981Z</time></trkpt><trkpt lat="42.9683417" lon="11.4195617"><ele>137.0</ele><time>2026-04-11T10:39:48.981Z</time></trkpt><trkpt lat="42.968345" lon="11.4194617"><ele>136.5</ele><time>2026-04-11T10:39:50.981Z</time></trkpt><trkpt lat="42.9683483" lon="11.419355"><ele>136.0</ele><time>2026-04-11T10:39:52.981Z</time></trkpt><trkpt lat="42.9683583" lon="11.4192233"><ele>136.4</ele><time>2026-04-11T10:39:54.982Z</time></trkpt><trkpt lat="42.96838" lon="11.419075"><ele>136.8</ele><time>2026-04-11T10:39:56.982Z</time></trkpt><trkpt lat="42.968415" lon="11.4189183"><ele>137.20000000000002</ele><time>2026-04-11T10:39:58.981Z</time></trkpt><trkpt lat="42.9684433" lon="11.41884"><ele>137.6</ele><time>2026-04-11T10:39:59.981Z</time></trkpt><trkpt lat="42.96848" lon="11.418765"><ele>138.0</ele><time>2026-04-11T10:40:00.981Z</time></trkpt><trkpt lat="42.9685533" lon="11.4186483"><ele>135.8</ele><time>2026-04-11T10:40:02.981Z</time></trkpt><trkpt lat="42.9686283" lon="11.4185467"><ele>133.60000000000002</ele><time>2026-04-11T10:40:04.982Z</time></trkpt><trkpt lat="42.9686917" lon="11.4184617"><ele>131.39999999999998</ele><time>2026-04-11T10:40:06.981Z</time></trkpt><trkpt lat="42.9687683" lon="11.4184"><ele>129.2</ele><time>2026-04-11T10:40:08.981Z</time></trkpt><trkpt lat="42.9688467" lon="11.41833"><ele>127.0</ele><time>2026-04-11T10:40:10.981Z</time></trkpt><trkpt lat="42.9689033" lon="11.4182567"><ele>127.00000000000001</ele><time>2026-04-11T10:40:12.981Z</time></trkpt><trkpt lat="42.9689517" lon="11.4181567"><ele>127.0</ele><time>2026-04-11T10:40:14.981Z</time></trkpt><trkpt lat="42.9689717" lon="11.4180517"><ele>127.0</ele><time>2026-04-11T10:40:16.981Z</time></trkpt><trkpt lat="42.9689717" lon="11.4179517"><ele>127.0</ele><time>2026-04-11T10:40:18.981Z</time></trkpt><trkpt lat="42.96895" lon="11.417845"><ele>127.00000000000001</ele><time>2026-04-11T10:40:20.982Z</time></trkpt><trkpt lat="42.96891" lon="11.41773"><ele>127.0</ele><time>2026-04-11T10:40:22.982Z</time></trkpt><trkpt lat="42.9688733" lon="11.4176133"><ele>124.19999999999999</ele><time>2026-04-11T10:40:24.981Z</time></trkpt><trkpt lat="42.9688383" lon="11.4175"><ele>121.39999999999999</ele><time>2026-04-11T10:40:26.981Z</time></trkpt><trkpt lat="42.9688217" lon="11.4173617"><ele>118.60000000000001</ele><time>2026-04-11T10:40:28.981Z</time></trkpt><trkpt lat="42.9687967" lon="11.4172133"><ele>115.80000000000001</ele><time>2026-04-11T10:40:30.981Z</time></trkpt><trkpt lat="42.9687867" lon="11.41705"><ele>113.0</ele><time>2026-04-11T10:40:32.981Z</time></trkpt><trkpt lat="42.968825" lon="11.4168817"><ele>112.99999999999999</ele><time>2026-04-11T10:40:34.981Z</time></trkpt><trkpt lat="42.9688567" lon="11.4168067"><ele>113.0</ele><time>2026-04-11T10:40:35.981Z</time></trkpt><trkpt lat="42.9689267" lon="11.4167167"><ele>113.0</ele><time>2026-04-11T10:40:37.982Z</time></trkpt><trkpt lat="42.96899" lon="11.41665"><ele>113.0</ele><time>2026-04-11T10:40:39.981Z</time></trkpt><trkpt lat="42.9690583" lon="11.4165883"><ele>112.99999999999999</ele><time>2026-04-11T10:40:41.982Z</time></trkpt><trkpt lat="42.9691367" lon="11.4165317"><ele>113.0</ele><time>2026-04-11T10:40:43.981Z</time></trkpt><trkpt lat="42.969235" lon="11.416455"><ele>112.99999999999999</ele><time>2026-04-11T10:40:45.982Z</time></trkpt><trkpt lat="42.969295" lon="11.4164117"><ele>113.0</ele><time>2026-04-11T10:40:46.981Z</time></trkpt><trkpt lat="42.9693583" lon="11.4163683"><ele>113.0</ele><time>2026-04-11T10:40:47.982Z</time></trkpt><trkpt lat="42.9694183" lon="11.41633"><ele>113.0</ele><time>2026-04-11T10:40:48.982Z</time></trkpt><trkpt lat="42.9695333" lon="11.4162683"><ele>112.99999999999999</ele><time>2026-04-11T10:40:50.982Z</time></trkpt><trkpt lat="42.9696233" lon="11.4162183"><ele>113.0</ele><time>2026-04-11T10:40:52.981Z</time></trkpt><trkpt lat="42.9697033" lon="11.4161683"><ele>112.99999999999999</ele><time>2026-04-11T10:40:54.981Z</time></trkpt><trkpt lat="42.969775" lon="11.4161267"><ele>113.0</ele><time>2026-04-11T10:40:56.981Z</time></trkpt><trkpt lat="42.9698467" lon="11.4160917"><ele>113.0</ele><time>2026-04-11T10:40:58.981Z</time></trkpt><trkpt lat="42.96991" lon="11.4160583"><ele>113.0</ele><time>2026-04-11T10:41:00.981Z</time></trkpt><trkpt lat="42.9699817" lon="11.4160183"><ele>112.99999999999999</ele><time>2026-04-11T10:41:02.981Z</time></trkpt><trkpt lat="42.9700633" lon="11.4159733"><ele>113.0</ele><time>2026-04-11T10:41:04.981Z</time></trkpt><trkpt lat="42.97015" lon="11.4159283"><ele>113.33333333333333</ele><time>2026-04-11T10:41:06.981Z</time></trkpt><trkpt lat="42.9702367" lon="11.4158817"><ele>113.66666666666666</ele><time>2026-04-11T10:41:08.982Z</time></trkpt><trkpt lat="42.9703233" lon="11.4158417"><ele>114.0</ele><time>2026-04-11T10:41:10.981Z</time></trkpt><trkpt lat="42.97041" lon="11.4157867"><ele>114.33333333333334</ele><time>2026-04-11T10:41:12.982Z</time></trkpt><trkpt lat="42.970495" lon="11.4157517"><ele>114.66666666666667</ele><time>2026-04-11T10:41:14.982Z</time></trkpt><trkpt lat="42.97057" lon="11.415715"><ele>115.0</ele><time>2026-04-11T10:41:16.981Z</time></trkpt><trkpt lat="42.970655" lon="11.4156783"><ele>115.00000000000001</ele><time>2026-04-11T10:41:18.981Z</time></trkpt><trkpt lat="42.9707367" lon="11.4156317"><ele>115.0</ele><time>2026-04-11T10:41:20.981Z</time></trkpt><trkpt lat="42.9708117" lon="11.415585"><ele>115.0</ele><time>2026-04-11T10:41:22.981Z</time></trkpt><trkpt lat="42.9708767" lon="11.4155483"><ele>115.0</ele><time>2026-04-11T10:41:24.981Z</time></trkpt><trkpt lat="42.9709383" lon="11.4155117"><ele>115.00000000000001</ele><time>2026-04-11T10:41:26.982Z</time></trkpt><trkpt lat="42.9710117" lon="11.415475"><ele>115.0</ele><time>2026-04-11T10:41:28.982Z</time></trkpt><trkpt lat="42.9710717" lon="11.4154417"><ele>115.85714285714283</ele><time>2026-04-11T10:41:30.982Z</time></trkpt><trkpt lat="42.97113" lon="11.4154033"><ele>116.71428571428571</ele><time>2026-04-11T10:41:32.981Z</time></trkpt><trkpt lat="42.9711883" lon="11.4153667"><ele>117.57142857142856</ele><time>2026-04-11T10:41:34.982Z</time></trkpt><trkpt lat="42.971255" lon="11.4153283"><ele>118.42857142857142</ele><time>2026-04-11T10:41:36.981Z</time></trkpt><trkpt lat="42.9713233" lon="11.4152867"><ele>119.28571428571428</ele><time>2026-04-11T10:41:38.981Z</time></trkpt><trkpt lat="42.97139" lon="11.4152483"><ele>120.14285714285714</ele><time>2026-04-11T10:41:40.982Z</time></trkpt><trkpt lat="42.97146" lon="11.41521"><ele>121.0</ele><time>2026-04-11T10:41:42.981Z</time></trkpt><trkpt lat="42.9715217" lon="11.415165"><ele>121.0</ele><time>2026-04-11T10:41:44.981Z</time></trkpt><trkpt lat="42.9715867" lon="11.4151267"><ele>120.99999999999999</ele><time>2026-04-11T10:41:46.981Z</time></trkpt><trkpt lat="42.971655" lon="11.41509"><ele>121.0</ele><time>2026-04-11T10:41:48.981Z</time></trkpt><trkpt lat="42.971725" lon="11.4150367"><ele>121.0</ele><time>2026-04-11T10:41:50.981Z</time></trkpt><trkpt lat="42.9717867" lon="11.4149917"><ele>120.99999999999999</ele><time>2026-04-11T10:41:52.981Z</time></trkpt><trkpt lat="42.9718467" lon="11.4149533"><ele>121.0</ele><time>2026-04-11T10:41:54.981Z</time></trkpt><trkpt lat="42.9719083" lon="11.4149083"><ele>121.0</ele><time>2026-04-11T10:41:56.981Z</time></trkpt><trkpt lat="42.9719717" lon="11.4148633"><ele>121.14285714285714</ele><time>2026-04-11T10:41:58.982Z</time></trkpt><trkpt lat="42.97203" lon="11.41482"><ele>121.28571428571428</ele><time>2026-04-11T10:42:00.982Z</time></trkpt><trkpt lat="42.97209" lon="11.414745"><ele>121.42857142857142</ele><time>2026-04-11T10:42:03.981Z</time></trkpt><trkpt lat="42.972155" lon="11.4147017"><ele>121.57142857142856</ele><time>2026-04-11T10:42:06.98Z</time></trkpt><trkpt lat="42.972215" lon="11.4146467"><ele>121.71428571428571</ele><time>2026-04-11T10:42:09.981Z</time></trkpt><trkpt lat="42.9722683" lon="11.41458"><ele>121.85714285714283</ele><time>2026-04-11T10:42:12.98Z</time></trkpt><trkpt lat="42.9723217" lon="11.414505"><ele>121.99999999999999</ele><time>2026-04-11T10:42:16.98Z</time></trkpt><trkpt lat="42.9723783" lon="11.4144317"><ele>122.99999999999999</ele><time>2026-04-11T10:42:20.98Z</time></trkpt><trkpt lat="42.9724317" lon="11.4143683"><ele>124.0</ele><time>2026-04-11T10:42:23.981Z</time></trkpt><trkpt lat="42.972485" lon="11.4142967"><ele>124.99999999999999</ele><time>2026-04-11T10:42:26.98Z</time></trkpt><trkpt lat="42.9725383" lon="11.4142167"><ele>125.99999999999999</ele><time>2026-04-11T10:42:29.98Z</time></trkpt><trkpt lat="42.9725933" lon="11.4141533"><ele>127.0</ele><time>2026-04-11T10:42:32.981Z</time></trkpt><trkpt lat="42.97265" lon="11.4140833"><ele>127.99999999999999</ele><time>2026-04-11T10:42:35.98Z</time></trkpt><trkpt lat="42.9727033" lon="11.4140083"><ele>129.0</ele><time>2026-04-11T10:42:38.98Z</time></trkpt><trkpt lat="42.9727583" lon="11.4139333"><ele>128.99999999999997</ele><time>2026-04-11T10:42:41.981Z</time></trkpt><trkpt lat="42.9728033" lon="11.41387"><ele>129.0</ele><time>2026-04-11T10:42:44.98Z</time></trkpt><trkpt lat="42.9728467" lon="11.4138033"><ele>129.0</ele><time>2026-04-11T10:42:47.981Z</time></trkpt><trkpt lat="42.9729033" lon="11.413725"><ele>129.0</ele><time>2026-04-11T10:42:51.98Z</time></trkpt><trkpt lat="42.9729617" lon="11.4136483"><ele>129.0</ele><time>2026-04-11T10:42:55.98Z</time></trkpt><trkpt lat="42.9730167" lon="11.4135833"><ele>128.99999999999997</ele><time>2026-04-11T10:42:58.98Z</time></trkpt><trkpt lat="42.9730717" lon="11.4135183"><ele>129.0</ele><time>2026-04-11T10:43:01.98Z</time></trkpt><trkpt lat="42.97313" lon="11.4134483"><ele>130.33333333333334</ele><time>2026-04-11T10:43:05.981Z</time></trkpt><trkpt lat="42.9731933" lon="11.41338"><ele>131.66666666666666</ele><time>2026-04-11T10:43:09.98Z</time></trkpt><trkpt lat="42.973245" lon="11.4133117"><ele>133.0</ele><time>2026-04-11T10:43:12.98Z</time></trkpt><trkpt lat="42.9732983" lon="11.4132517"><ele>134.33333333333331</ele><time>2026-04-11T10:43:15.98Z</time></trkpt><trkpt lat="42.9733567" lon="11.4131667"><ele>135.66666666666666</ele><time>2026-04-11T10:43:19.981Z</time></trkpt><trkpt lat="42.9734067" lon="11.413095"><ele>137.0</ele><time>2026-04-11T10:43:22.98Z</time></trkpt><trkpt lat="42.9734683" lon="11.413025"><ele>138.2857142857143</ele><time>2026-04-11T10:43:26.981Z</time></trkpt><trkpt lat="42.97352" lon="11.41296"><ele>139.57142857142858</ele><time>2026-04-11T10:43:29.98Z</time></trkpt><trkpt lat="42.9735817" lon="11.4128833"><ele>140.85714285714286</ele><time>2026-04-11T10:43:33.98Z</time></trkpt><trkpt lat="42.973635" lon="11.4128133"><ele>142.14285714285717</ele><time>2026-04-11T10:43:36.981Z</time></trkpt><trkpt lat="42.9736883" lon="11.4127583"><ele>143.42857142857144</ele><time>2026-04-11T10:43:39.98Z</time></trkpt><trkpt lat="42.9737367" lon="11.41269"><ele>144.71428571428572</ele><time>2026-04-11T10:43:42.981Z</time></trkpt><trkpt lat="42.9738033" lon="11.4126217"><ele>146.0</ele><time>2026-04-11T10:43:46.98Z</time></trkpt><trkpt lat="42.9738483" lon="11.4125483"><ele>146.0</ele><time>2026-04-11T10:43:50.981Z</time></trkpt><trkpt lat="42.9739083" lon="11.4124717"><ele>146.0</ele><time>2026-04-11T10:43:54.981Z</time></trkpt><trkpt lat="42.97396" lon="11.4124133"><ele>146.0</ele><time>2026-04-11T10:43:57.98Z</time></trkpt><trkpt lat="42.974015" lon="11.4123383"><ele>146.0</ele><time>2026-04-11T10:44:01.98Z</time></trkpt><trkpt lat="42.9740667" lon="11.4122733"><ele>146.0</ele><time>2026-04-11T10:44:04.98Z</time></trkpt><trkpt lat="42.9741133" lon="11.4122133"><ele>146.0</ele><time>2026-04-11T10:44:07.98Z</time></trkpt><trkpt lat="42.9741667" lon="11.412155"><ele>146.0</ele><time>2026-04-11T10:44:10.98Z</time></trkpt><trkpt lat="42.9742233" lon="11.4120933"><ele>147.42857142857142</ele><time>2026-04-11T10:44:13.98Z</time></trkpt><trkpt lat="42.9742717" lon="11.412025"><ele>148.85714285714286</ele><time>2026-04-11T10:44:16.98Z</time></trkpt><trkpt lat="42.9743183" lon="11.4119617"><ele>150.28571428571428</ele><time>2026-04-11T10:44:19.98Z</time></trkpt><trkpt lat="42.974375" lon="11.41191"><ele>151.71428571428572</ele><time>2026-04-11T10:44:22.981Z</time></trkpt><trkpt lat="42.974425" lon="11.4118483"><ele>153.14285714285714</ele><time>2026-04-11T10:44:25.98Z</time></trkpt><trkpt lat="42.9744817" lon="11.4117933"><ele>154.57142857142858</ele><time>2026-04-11T10:44:28.981Z</time></trkpt><trkpt lat="42.9745467" lon="11.4117267"><ele>156.0</ele><time>2026-04-11T10:44:32.98Z</time></trkpt><trkpt lat="42.9745967" lon="11.4116633"><ele>156.0</ele><time>2026-04-11T10:44:35.98Z</time></trkpt><trkpt lat="42.9746433" lon="11.4115883"><ele>156.0</ele><time>2026-04-11T10:44:38.98Z</time></trkpt><trkpt lat="42.9746967" lon="11.41152"><ele>156.0</ele><time>2026-04-11T10:44:42.98Z</time></trkpt><trkpt lat="42.9747433" lon="11.4114567"><ele>156.0</ele><time>2026-04-11T10:44:46.98Z</time></trkpt><trkpt lat="42.9747983" lon="11.411395"><ele>156.0</ele><time>2026-04-11T10:44:51.98Z</time></trkpt><trkpt lat="42.9748633" lon="11.41133"><ele>156.0</ele><time>2026-04-11T10:44:55.98Z</time></trkpt><trkpt lat="42.9749133" lon="11.411265"><ele>156.0</ele><time>2026-04-11T10:44:59.98Z</time></trkpt><trkpt lat="42.9749617" lon="11.4112083"><ele>155.57142857142858</ele><time>2026-04-11T10:45:02.98Z</time></trkpt><trkpt lat="42.97501" lon="11.4111483"><ele>155.14285714285714</ele><time>2026-04-11T10:45:05.98Z</time></trkpt><trkpt lat="42.9750567" lon="11.4110783"><ele>154.71428571428572</ele><time>2026-04-11T10:45:08.98Z</time></trkpt><trkpt lat="42.9750983" lon="11.4109983"><ele>154.28571428571428</ele><time>2026-04-11T10:45:11.98Z</time></trkpt><trkpt lat="42.9751467" lon="11.4109067"><ele>153.85714285714286</ele><time>2026-04-11T10:45:15.98Z</time></trkpt><trkpt lat="42.9751733" lon="11.4108033"><ele>153.42857142857142</ele><time>2026-04-11T10:45:19.98Z</time></trkpt><trkpt lat="42.9751833" lon="11.4106967"><ele>153.0</ele><time>2026-04-11T10:45:23.98Z</time></trkpt><trkpt lat="42.975195" lon="11.4106083"><ele>154.57142857142856</ele><time>2026-04-11T10:45:26.98Z</time></trkpt><trkpt lat="42.9752183" lon="11.4105167"><ele>156.14285714285714</ele><time>2026-04-11T10:45:30.98Z</time></trkpt><trkpt lat="42.9752433" lon="11.410425"><ele>157.71428571428572</ele><time>2026-04-11T10:45:34.981Z</time></trkpt><trkpt lat="42.9752867" lon="11.410355"><ele>159.28571428571428</ele><time>2026-04-11T10:45:37.98Z</time></trkpt><trkpt lat="42.9753483" lon="11.410285"><ele>160.85714285714286</ele><time>2026-04-11T10:45:41.98Z</time></trkpt><trkpt lat="42.9754117" lon="11.41023"><ele>162.42857142857142</ele><time>2026-04-11T10:45:45.981Z</time></trkpt><trkpt lat="42.9754717" lon="11.4101967"><ele>164.0</ele><time>2026-04-11T10:45:48.98Z</time></trkpt><trkpt lat="42.97554" lon="11.41014"><ele>163.99999999999997</ele><time>2026-04-11T10:45:52.98Z</time></trkpt><trkpt lat="42.9756117" lon="11.410095"><ele>164.0</ele><time>2026-04-11T10:45:56.979Z</time></trkpt><trkpt lat="42.9756767" lon="11.4100667"><ele>164.0</ele><time>2026-04-11T10:45:59.979Z</time></trkpt><trkpt lat="42.97573" lon="11.409995"><ele>164.0</ele><time>2026-04-11T10:46:04.979Z</time></trkpt><trkpt lat="42.9757933" lon="11.4100067"><ele>164.0</ele><time>2026-04-11T10:46:11.979Z</time></trkpt><trkpt lat="42.97585" lon="11.4099617"><ele>163.99999999999997</ele><time>2026-04-11T10:46:15.98Z</time></trkpt><trkpt lat="42.97591" lon="11.4099317"><ele>164.0</ele><time>2026-04-11T10:46:18.979Z</time></trkpt><trkpt lat="42.9759783" lon="11.4098917"><ele>165.57142857142856</ele><time>2026-04-11T10:46:22.979Z</time></trkpt><trkpt lat="42.9760367" lon="11.40984"><ele>167.14285714285714</ele><time>2026-04-11T10:46:26.98Z</time></trkpt><trkpt lat="42.976095" lon="11.4097883"><ele>168.71428571428572</ele><time>2026-04-11T10:46:31.979Z</time></trkpt><trkpt lat="42.9761383" lon="11.409715"><ele>170.28571428571428</ele><time>2026-04-11T10:46:35.979Z</time></trkpt><trkpt lat="42.97619" lon="11.4096217"><ele>171.85714285714286</ele><time>2026-04-11T10:46:39.979Z</time></trkpt><trkpt lat="42.9762283" lon="11.409535"><ele>173.42857142857142</ele><time>2026-04-11T10:46:43.979Z</time></trkpt><trkpt lat="42.97626" lon="11.4094467"><ele>175.0</ele><time>2026-04-11T10:46:47.979Z</time></trkpt><trkpt lat="42.9763033" lon="11.4093517"><ele>175.0</ele><time>2026-04-11T10:46:51.979Z</time></trkpt><trkpt lat="42.97633" lon="11.4092667"><ele>175.0</ele><time>2026-04-11T10:46:54.979Z</time></trkpt><trkpt lat="42.9763467" lon="11.40918"><ele>175.0</ele><time>2026-04-11T10:46:58.98Z</time></trkpt><trkpt lat="42.9763567" lon="11.40908"><ele>175.0</ele><time>2026-04-11T10:47:02.979Z</time></trkpt><trkpt lat="42.976365" lon="11.40898"><ele>175.0</ele><time>2026-04-11T10:47:06.979Z</time></trkpt><trkpt lat="42.9763667" lon="11.4088917"><ele>175.0</ele><time>2026-04-11T10:47:09.98Z</time></trkpt><trkpt lat="42.976375" lon="11.4087933"><ele>175.0</ele><time>2026-04-11T10:47:12.979Z</time></trkpt><trkpt lat="42.9764183" lon="11.4086833"><ele>175.28571428571428</ele><time>2026-04-11T10:47:15.979Z</time></trkpt><trkpt lat="42.9764617" lon="11.408615"><ele>175.57142857142856</ele><time>2026-04-11T10:47:17.979Z</time></trkpt><trkpt lat="42.9765167" lon="11.408565"><ele>175.85714285714286</ele><time>2026-04-11T10:47:19.98Z</time></trkpt><trkpt lat="42.9765817" lon="11.4085383"><ele>176.14285714285714</ele><time>2026-04-11T10:47:21.98Z</time></trkpt><trkpt lat="42.9766533" lon="11.408525"><ele>176.42857142857142</ele><time>2026-04-11T10:47:24.979Z</time></trkpt><trkpt lat="42.9767217" lon="11.4085433"><ele>176.71428571428572</ele><time>2026-04-11T10:47:27.979Z</time></trkpt><trkpt lat="42.976785" lon="11.4085633"><ele>177.0</ele><time>2026-04-11T10:47:30.979Z</time></trkpt><trkpt lat="42.9768617" lon="11.4085883"><ele>177.0</ele><time>2026-04-11T10:47:34.98Z</time></trkpt><trkpt lat="42.976935" lon="11.4086067"><ele>177.0</ele><time>2026-04-11T10:47:39.979Z</time></trkpt><trkpt lat="42.977005" lon="11.4086483"><ele>177.0</ele><time>2026-04-11T10:47:44.98Z</time></trkpt><trkpt lat="42.9770717" lon="11.408685"><ele>177.0</ele><time>2026-04-11T10:47:48.979Z</time></trkpt><trkpt lat="42.9771367" lon="11.4087317"><ele>177.0</ele><time>2026-04-11T10:47:52.979Z</time></trkpt><trkpt lat="42.9772033" lon="11.4087267"><ele>177.0</ele><time>2026-04-11T10:47:57.979Z</time></trkpt><trkpt lat="42.97727" lon="11.4087783"><ele>177.0</ele><time>2026-04-11T10:48:01.979Z</time></trkpt><trkpt lat="42.9773267" lon="11.4088167"><ele>178.0</ele><time>2026-04-11T10:48:04.98Z</time></trkpt><trkpt lat="42.977385" lon="11.4088667"><ele>179.0</ele><time>2026-04-11T10:48:07.979Z</time></trkpt><trkpt lat="42.977455" lon="11.4089133"><ele>180.0</ele><time>2026-04-11T10:48:11.98Z</time></trkpt><trkpt lat="42.977525" lon="11.4089367"><ele>181.0</ele><time>2026-04-11T10:48:16.979Z</time></trkpt><trkpt lat="42.97759" lon="11.4089683"><ele>182.0</ele><time>2026-04-11T10:48:21.979Z</time></trkpt><trkpt lat="42.9776567" lon="11.409005"><ele>183.0</ele><time>2026-04-11T10:48:25.979Z</time></trkpt><trkpt lat="42.977715" lon="11.40904"><ele>184.0</ele><time>2026-04-11T10:48:29.979Z</time></trkpt><trkpt lat="42.9777817" lon="11.4090733"><ele>185.0</ele><time>2026-04-11T10:48:33.979Z</time></trkpt><trkpt lat="42.9778467" lon="11.4091"><ele>186.0</ele><time>2026-04-11T10:48:37.979Z</time></trkpt><trkpt lat="42.9779217" lon="11.4091367"><ele>187.0</ele><time>2026-04-11T10:48:41.979Z</time></trkpt><trkpt lat="42.97799" lon="11.4091733"><ele>188.0</ele><time>2026-04-11T10:48:45.979Z</time></trkpt><trkpt lat="42.978055" lon="11.4092083"><ele>189.0</ele><time>2026-04-11T10:48:50.979Z</time></trkpt><trkpt lat="42.9781167" lon="11.4092267"><ele>190.0</ele><time>2026-04-11T10:48:54.979Z</time></trkpt><trkpt lat="42.9781917" lon="11.4092433"><ele>191.0</ele><time>2026-04-11T10:48:59.979Z</time></trkpt><trkpt lat="42.9782533" lon="11.409285"><ele>191.0</ele><time>2026-04-11T10:49:03.979Z</time></trkpt><trkpt lat="42.978335" lon="11.4093167"><ele>191.0</ele><time>2026-04-11T10:49:07.979Z</time></trkpt><trkpt lat="42.9783983" lon="11.4093917"><ele>191.0</ele><time>2026-04-11T10:49:10.979Z</time></trkpt><trkpt lat="42.9784667" lon="11.4094617"><ele>191.0</ele><time>2026-04-11T10:49:13.979Z</time></trkpt><trkpt lat="42.9785333" lon="11.4094483"><ele>191.0</ele><time>2026-04-11T10:49:16.98Z</time></trkpt><trkpt lat="42.9786033" lon="11.4094433"><ele>191.0</ele><time>2026-04-11T10:49:20.978Z</time></trkpt><trkpt lat="42.9786767" lon="11.40946"><ele>192.2857142857143</ele><time>2026-04-11T10:49:26.978Z</time></trkpt><trkpt lat="42.9787517" lon="11.4094433"><ele>193.57142857142856</ele><time>2026-04-11T10:49:30.979Z</time></trkpt><trkpt lat="42.9788217" lon="11.4094283"><ele>194.85714285714286</ele><time>2026-04-11T10:49:34.978Z</time></trkpt><trkpt lat="42.978885" lon="11.4094067"><ele>196.14285714285717</ele><time>2026-04-11T10:49:38.978Z</time></trkpt><trkpt lat="42.9789517" lon="11.4093767"><ele>197.42857142857144</ele><time>2026-04-11T10:49:42.979Z</time></trkpt><trkpt lat="42.9790167" lon="11.4093517"><ele>198.71428571428572</ele><time>2026-04-11T10:49:46.978Z</time></trkpt><trkpt lat="42.9790917" lon="11.409315"><ele>200.0</ele><time>2026-04-11T10:49:50.979Z</time></trkpt><trkpt lat="42.9791517" lon="11.4092733"><ele>201.66666666666669</ele><time>2026-04-11T10:49:54.978Z</time></trkpt><trkpt lat="42.9792233" lon="11.40924"><ele>203.33333333333334</ele><time>2026-04-11T10:50:01.978Z</time></trkpt><trkpt lat="42.9792983" lon="11.4092383"><ele>205.0</ele><time>2026-04-11T10:50:06.978Z</time></trkpt><trkpt lat="42.9793683" lon="11.40922"><ele>206.66666666666669</ele><time>2026-04-11T10:50:10.978Z</time></trkpt><trkpt lat="42.9794367" lon="11.409205"><ele>208.33333333333334</ele><time>2026-04-11T10:50:14.978Z</time></trkpt><trkpt lat="42.979515" lon="11.4091983"><ele>210.0</ele><time>2026-04-11T10:50:17.978Z</time></trkpt><trkpt lat="42.9796167" lon="11.4092167"><ele>210.0</ele><time>2026-04-11T10:50:20.978Z</time></trkpt><trkpt lat="42.9797033" lon="11.4092267"><ele>210.0</ele><time>2026-04-11T10:50:22.978Z</time></trkpt><trkpt lat="42.9798033" lon="11.40924"><ele>210.0</ele><time>2026-04-11T10:50:24.979Z</time></trkpt><trkpt lat="42.9798983" lon="11.4092533"><ele>210.0</ele><time>2026-04-11T10:50:26.978Z</time></trkpt><trkpt lat="42.9800017" lon="11.40927"><ele>210.0</ele><time>2026-04-11T10:50:28.978Z</time></trkpt><trkpt lat="42.9800967" lon="11.4092717"><ele>211.16666666666666</ele><time>2026-04-11T10:50:30.978Z</time></trkpt><trkpt lat="42.980195" lon="11.4092633"><ele>212.33333333333331</ele><time>2026-04-11T10:50:32.978Z</time></trkpt><trkpt lat="42.9802867" lon="11.4092333"><ele>213.5</ele><time>2026-04-11T10:50:34.979Z</time></trkpt><trkpt lat="42.9803533" lon="11.4091933"><ele>214.66666666666666</ele><time>2026-04-11T10:50:36.978Z</time></trkpt><trkpt lat="42.9804167" lon="11.4091633"><ele>215.83333333333331</ele><time>2026-04-11T10:50:38.979Z</time></trkpt><trkpt lat="42.98051" lon="11.4091383"><ele>217.0</ele><time>2026-04-11T10:50:41.978Z</time></trkpt><trkpt lat="42.98058" lon="11.4090983"><ele>216.99999999999997</ele><time>2026-04-11T10:50:43.979Z</time></trkpt><trkpt lat="42.9806583" lon="11.4090733"><ele>217.0</ele><time>2026-04-11T10:50:45.979Z</time></trkpt><trkpt lat="42.9807283" lon="11.4090583"><ele>217.0</ele><time>2026-04-11T10:50:47.978Z</time></trkpt><trkpt lat="42.9808083" lon="11.4090433"><ele>217.0</ele><time>2026-04-11T10:50:50.978Z</time></trkpt><trkpt lat="42.9808817" lon="11.4090117"><ele>216.99999999999997</ele><time>2026-04-11T10:50:53.978Z</time></trkpt><trkpt lat="42.98096" lon="11.4090333"><ele>217.0</ele><time>2026-04-11T10:50:57.978Z</time></trkpt><trkpt lat="42.9808983" lon="11.409115"><ele>216.99999999999997</ele><time>2026-04-11T10:51:07.978Z</time></trkpt><trkpt lat="42.9808217" lon="11.409165"><ele>217.0</ele><time>2026-04-11T10:51:11.978Z</time></trkpt><trkpt lat="42.9807533" lon="11.4091917"><ele>217.0</ele><time>2026-04-11T10:51:15.978Z</time></trkpt><trkpt lat="42.98081" lon="11.4091017"><ele>217.0</ele><time>2026-04-11T10:51:28.978Z</time></trkpt><trkpt lat="42.9808867" lon="11.40906"><ele>216.99999999999997</ele><time>2026-04-11T10:51:31.979Z</time></trkpt><trkpt lat="42.980965" lon="11.409035"><ele>217.0</ele><time>2026-04-11T10:51:34.979Z</time></trkpt><trkpt lat="42.98106" lon="11.40902"><ele>216.66666666666666</ele><time>2026-04-11T10:51:37.978Z</time></trkpt><trkpt lat="42.981125" lon="11.4090283"><ele>216.33333333333331</ele><time>2026-04-11T10:51:39.979Z</time></trkpt><trkpt lat="42.9812033" lon="11.4090283"><ele>216.0</ele><time>2026-04-11T10:51:41.978Z</time></trkpt><trkpt lat="42.9812783" lon="11.409015"><ele>215.66666666666669</ele><time>2026-04-11T10:51:43.978Z</time></trkpt><trkpt lat="42.98136" lon="11.4090067"><ele>215.33333333333334</ele><time>2026-04-11T10:51:45.978Z</time></trkpt><trkpt lat="42.9814467" lon="11.4089983"><ele>215.0</ele><time>2026-04-11T10:51:47.978Z</time></trkpt><trkpt lat="42.98155" lon="11.4089767"><ele>215.0</ele><time>2026-04-11T10:51:49.978Z</time></trkpt><trkpt lat="42.98165" lon="11.408915"><ele>215.0</ele><time>2026-04-11T10:51:51.979Z</time></trkpt><trkpt lat="42.98174" lon="11.4088433"><ele>215.0</ele><time>2026-04-11T10:51:53.978Z</time></trkpt><trkpt lat="42.9818267" lon="11.4087667"><ele>215.0</ele><time>2026-04-11T10:51:55.978Z</time></trkpt><trkpt lat="42.981905" lon="11.4086867"><ele>215.0</ele><time>2026-04-11T10:51:57.978Z</time></trkpt><trkpt lat="42.9819733" lon="11.4086017"><ele>214.0</ele><time>2026-04-11T10:51:59.979Z</time></trkpt><trkpt lat="42.982045" lon="11.40849"><ele>213.0</ele><time>2026-04-11T10:52:01.979Z</time></trkpt><trkpt lat="42.9821017" lon="11.4083767"><ele>212.0</ele><time>2026-04-11T10:52:03.978Z</time></trkpt><trkpt lat="42.98215" lon="11.4082583"><ele>211.0</ele><time>2026-04-11T10:52:05.978Z</time></trkpt><trkpt lat="42.9821917" lon="11.4081367"><ele>210.0</ele><time>2026-04-11T10:52:07.978Z</time></trkpt><trkpt lat="42.9822317" lon="11.4080283"><ele>209.42857142857142</ele><time>2026-04-11T10:52:09.979Z</time></trkpt><trkpt lat="42.9822667" lon="11.4079333"><ele>208.85714285714286</ele><time>2026-04-11T10:52:11.978Z</time></trkpt><trkpt lat="42.98229" lon="11.4078467"><ele>208.28571428571428</ele><time>2026-04-11T10:52:13.978Z</time></trkpt><trkpt lat="42.9822983" lon="11.4077567"><ele>207.71428571428572</ele><time>2026-04-11T10:52:15.978Z</time></trkpt><trkpt lat="42.98229" lon="11.4076633"><ele>207.14285714285714</ele><time>2026-04-11T10:52:17.978Z</time></trkpt><trkpt lat="42.9822767" lon="11.4075767"><ele>206.57142857142856</ele><time>2026-04-11T10:52:19.978Z</time></trkpt><trkpt lat="42.982255" lon="11.4074867"><ele>206.0</ele><time>2026-04-11T10:52:21.978Z</time></trkpt><trkpt lat="42.982215" lon="11.4074117"><ele>205.99999999999997</ele><time>2026-04-11T10:52:23.979Z</time></trkpt><trkpt lat="42.9821683" lon="11.407345"><ele>206.0</ele><time>2026-04-11T10:52:25.978Z</time></trkpt><trkpt lat="42.9821133" lon="11.4072833"><ele>206.0</ele><time>2026-04-11T10:52:27.979Z</time></trkpt><trkpt lat="42.9820583" lon="11.407215"><ele>206.0</ele><time>2026-04-11T10:52:29.979Z</time></trkpt><trkpt lat="42.9820083" lon="11.4071483"><ele>206.0</ele><time>2026-04-11T10:52:31.978Z</time></trkpt><trkpt lat="42.9819483" lon="11.40709"><ele>205.99999999999997</ele><time>2026-04-11T10:52:33.979Z</time></trkpt><trkpt lat="42.9818817" lon="11.4070367"><ele>206.0</ele><time>2026-04-11T10:52:35.978Z</time></trkpt><trkpt lat="42.981825" lon="11.4069967"><ele>206.16666666666669</ele><time>2026-04-11T10:52:37.978Z</time></trkpt><trkpt lat="42.9817667" lon="11.4069317"><ele>206.33333333333334</ele><time>2026-04-11T10:52:40.978Z</time></trkpt><trkpt lat="42.9817083" lon="11.4068417"><ele>206.5</ele><time>2026-04-11T10:52:43.979Z</time></trkpt><trkpt lat="42.9816533" lon="11.4067967"><ele>206.66666666666669</ele><time>2026-04-11T10:54:02.977Z</time></trkpt><trkpt lat="42.981565" lon="11.4067717"><ele>206.83333333333334</ele><time>2026-04-11T10:54:05.977Z</time></trkpt><trkpt lat="42.9815033" lon="11.4067233"><ele>207.0</ele><time>2026-04-11T10:54:07.977Z</time></trkpt><trkpt lat="42.9814283" lon="11.4066533"><ele>207.0</ele><time>2026-04-11T10:54:09.977Z</time></trkpt><trkpt lat="42.9813383" lon="11.4065667"><ele>207.0</ele><time>2026-04-11T10:54:11.977Z</time></trkpt><trkpt lat="42.9812967" lon="11.4065"><ele>207.0</ele><time>2026-04-11T10:54:12.977Z</time></trkpt><trkpt lat="42.9812483" lon="11.406355"><ele>207.0</ele><time>2026-04-11T10:54:14.978Z</time></trkpt><trkpt lat="42.981235" lon="11.40627"><ele>207.0</ele><time>2026-04-11T10:54:15.977Z</time></trkpt><trkpt lat="42.98121" lon="11.406105"><ele>205.8</ele><time>2026-04-11T10:54:17.977Z</time></trkpt><trkpt lat="42.981195" lon="11.4059433"><ele>204.6</ele><time>2026-04-11T10:54:19.977Z</time></trkpt><trkpt lat="42.9811933" lon="11.405785"><ele>203.4</ele><time>2026-04-11T10:54:21.978Z</time></trkpt><trkpt lat="42.98121" lon="11.405655"><ele>202.20000000000002</ele><time>2026-04-11T10:54:23.978Z</time></trkpt><trkpt lat="42.981185" lon="11.4055533"><ele>201.0</ele><time>2026-04-11T10:54:27.977Z</time></trkpt><trkpt lat="42.981185" lon="11.4054383"><ele>200.16666666666666</ele><time>2026-04-11T10:54:30.977Z</time></trkpt><trkpt lat="42.98118" lon="11.4053383"><ele>199.33333333333331</ele><time>2026-04-11T10:54:32.977Z</time></trkpt><trkpt lat="42.9811667" lon="11.40523"><ele>198.5</ele><time>2026-04-11T10:54:34.978Z</time></trkpt><trkpt lat="42.9811617" lon="11.405105"><ele>197.66666666666666</ele><time>2026-04-11T10:54:36.978Z</time></trkpt><trkpt lat="42.9811517" lon="11.404985"><ele>196.83333333333331</ele><time>2026-04-11T10:54:38.977Z</time></trkpt><trkpt lat="42.9811333" lon="11.4048717"><ele>196.0</ele><time>2026-04-11T10:54:40.977Z</time></trkpt><trkpt lat="42.9811183" lon="11.4047583"><ele>195.66666666666666</ele><time>2026-04-11T10:54:42.977Z</time></trkpt><trkpt lat="42.9811133" lon="11.4046483"><ele>195.33333333333331</ele><time>2026-04-11T10:54:44.977Z</time></trkpt><trkpt lat="42.981105" lon="11.40454"><ele>195.0</ele><time>2026-04-11T10:54:46.977Z</time></trkpt><trkpt lat="42.9810833" lon="11.40443"><ele>194.66666666666669</ele><time>2026-04-11T10:54:48.977Z</time></trkpt><trkpt lat="42.9810633" lon="11.4043067"><ele>194.33333333333334</ele><time>2026-04-11T10:54:50.977Z</time></trkpt><trkpt lat="42.9810467" lon="11.4041883"><ele>194.0</ele><time>2026-04-11T10:54:52.977Z</time></trkpt><trkpt lat="42.981025" lon="11.4040717"><ele>194.00000000000003</ele><time>2026-04-11T10:54:54.978Z</time></trkpt><trkpt lat="42.9809967" lon="11.4039717"><ele>194.0</ele><time>2026-04-11T10:54:56.977Z</time></trkpt><trkpt lat="42.98098" lon="11.4038517"><ele>194.0</ele><time>2026-04-11T10:54:58.977Z</time></trkpt><trkpt lat="42.98097" lon="11.4037233"><ele>194.0</ele><time>2026-04-11T10:55:00.977Z</time></trkpt><trkpt lat="42.9809617" lon="11.403615"><ele>194.00000000000003</ele><time>2026-04-11T10:55:02.978Z</time></trkpt><trkpt lat="42.9809533" lon="11.403505"><ele>194.0</ele><time>2026-04-11T10:55:04.977Z</time></trkpt><trkpt lat="42.98094" lon="11.403395"><ele>194.00000000000003</ele><time>2026-04-11T10:55:06.977Z</time></trkpt><trkpt lat="42.9809317" lon="11.4032833"><ele>194.0</ele><time>2026-04-11T10:55:08.978Z</time></trkpt><trkpt lat="42.9809167" lon="11.403165"><ele>194.0</ele><time>2026-04-11T10:55:10.977Z</time></trkpt><trkpt lat="42.980905" lon="11.4030517"><ele>194.0</ele><time>2026-04-11T10:55:12.977Z</time></trkpt><trkpt lat="42.9808867" lon="11.4029367"><ele>194.00000000000003</ele><time>2026-04-11T10:55:14.977Z</time></trkpt><trkpt lat="42.9808767" lon="11.4028183"><ele>194.0</ele><time>2026-04-11T10:55:16.977Z</time></trkpt><trkpt lat="42.9808717" lon="11.4027017"><ele>193.66666666666669</ele><time>2026-04-11T10:55:18.978Z</time></trkpt><trkpt lat="42.980865" lon="11.402595"><ele>193.33333333333334</ele><time>2026-04-11T10:55:20.977Z</time></trkpt><trkpt lat="42.9808483" lon="11.402485"><ele>193.0</ele><time>2026-04-11T10:55:22.978Z</time></trkpt><trkpt lat="42.9808333" lon="11.4023783"><ele>192.66666666666669</ele><time>2026-04-11T10:55:24.977Z</time></trkpt><trkpt lat="42.9808167" lon="11.4022633"><ele>192.33333333333334</ele><time>2026-04-11T10:55:26.977Z</time></trkpt><trkpt lat="42.9808083" lon="11.4021517"><ele>192.0</ele><time>2026-04-11T10:55:28.977Z</time></trkpt><trkpt lat="42.9807983" lon="11.4020433"><ele>194.5</ele><time>2026-04-11T10:55:30.977Z</time></trkpt><trkpt lat="42.98078" lon="11.40193"><ele>197.0</ele><time>2026-04-11T10:55:32.977Z</time></trkpt><trkpt lat="42.98077" lon="11.4018183"><ele>199.5</ele><time>2026-04-11T10:55:34.977Z</time></trkpt><trkpt lat="42.9807533" lon="11.4017217"><ele>202.0</ele><time>2026-04-11T10:55:36.978Z</time></trkpt><trkpt lat="42.9807433" lon="11.4016167"><ele>204.5</ele><time>2026-04-11T10:55:38.977Z</time></trkpt><trkpt lat="42.980735" lon="11.4015167"><ele>207.0</ele><time>2026-04-11T10:55:40.977Z</time></trkpt><trkpt lat="42.9807317" lon="11.4013933"><ele>207.33333333333334</ele><time>2026-04-11T10:55:42.977Z</time></trkpt><trkpt lat="42.9807183" lon="11.4012783"><ele>207.66666666666669</ele><time>2026-04-11T10:55:44.977Z</time></trkpt><trkpt lat="42.9807" lon="11.40118"><ele>208.0</ele><time>2026-04-11T10:55:46.977Z</time></trkpt><trkpt lat="42.98068" lon="11.40108"><ele>208.33333333333334</ele><time>2026-04-11T10:55:48.977Z</time></trkpt><trkpt lat="42.9806617" lon="11.4009667"><ele>208.66666666666669</ele><time>2026-04-11T10:55:51.977Z</time></trkpt><trkpt lat="42.9806617" lon="11.4008517"><ele>209.0</ele><time>2026-04-11T10:55:54.977Z</time></trkpt><trkpt lat="42.9806467" lon="11.400755"><ele>209.00000000000003</ele><time>2026-04-11T10:55:58.977Z</time></trkpt><trkpt lat="42.9805733" lon="11.4007533"><ele>209.0</ele><time>2026-04-11T10:56:02.977Z</time></trkpt><trkpt lat="42.9805017" lon="11.40072"><ele>209.0</ele><time>2026-04-11T10:56:05.977Z</time></trkpt><trkpt lat="42.9804283" lon="11.400665"><ele>209.0</ele><time>2026-04-11T10:56:08.977Z</time></trkpt><trkpt lat="42.980365" lon="11.4006133"><ele>209.00000000000003</ele><time>2026-04-11T10:56:11.978Z</time></trkpt><trkpt lat="42.980355" lon="11.400525"><ele>209.0</ele><time>2026-04-11T10:56:14.977Z</time></trkpt><trkpt lat="42.98037" lon="11.400405"><ele>209.57142857142856</ele><time>2026-04-11T10:56:17.977Z</time></trkpt><trkpt lat="42.980395" lon="11.4003017"><ele>210.14285714285714</ele><time>2026-04-11T10:56:20.978Z</time></trkpt><trkpt lat="42.9804083" lon="11.4002117"><ele>210.71428571428572</ele><time>2026-04-11T10:56:23.978Z</time></trkpt><trkpt lat="42.980405" lon="11.4001217"><ele>211.28571428571428</ele><time>2026-04-11T10:56:26.977Z</time></trkpt><trkpt lat="42.9804017" lon="11.4000333"><ele>211.85714285714286</ele><time>2026-04-11T10:56:29.977Z</time></trkpt><trkpt lat="42.9803833" lon="11.3999333"><ele>212.42857142857142</ele><time>2026-04-11T10:56:33.976Z</time></trkpt><trkpt lat="42.980355" lon="11.3998533"><ele>213.0</ele><time>2026-04-11T10:56:36.977Z</time></trkpt><trkpt lat="42.9803167" lon="11.3997633"><ele>248.0</ele><time>2026-04-11T10:56:40.976Z</time></trkpt><trkpt lat="42.9901467" lon="11.4104933"><ele>247.2</ele><time>2026-04-11T11:08:32.469Z</time></trkpt><trkpt lat="42.9899733" lon="11.4104667"><ele>246.4</ele><time>2026-04-11T11:08:39.969Z</time></trkpt><trkpt lat="42.9899967" lon="11.4103817"><ele>245.59999999999997</ele><time>2026-04-11T11:08:53.981Z</time></trkpt><trkpt lat="42.990025" lon="11.4102783"><ele>244.79999999999998</ele><time>2026-04-11T11:09:48.98Z</time></trkpt><trkpt lat="42.9900917" lon="11.4102567"><ele>244.0</ele><time>2026-04-11T11:09:52.98Z</time></trkpt><trkpt lat="42.990165" lon="11.41025"><ele>243.99999999999997</ele><time>2026-04-11T11:09:57.981Z</time></trkpt><trkpt lat="42.9902433" lon="11.4102483"><ele>244.0</ele><time>2026-04-11T11:10:01.98Z</time></trkpt><trkpt lat="42.9903067" lon="11.4102417"><ele>243.99999999999997</ele><time>2026-04-11T11:10:04.98Z</time></trkpt><trkpt lat="42.9903817" lon="11.4102533"><ele>243.99999999999997</ele><time>2026-04-11T11:10:08.98Z</time></trkpt><trkpt lat="42.9904467" lon="11.4102583"><ele>244.0</ele><time>2026-04-11T11:10:11.98Z</time></trkpt><trkpt lat="42.99051" lon="11.4102633"><ele>243.99999999999997</ele><time>2026-04-11T11:10:14.98Z</time></trkpt><trkpt lat="42.99058" lon="11.4102667"><ele>243.99999999999997</ele><time>2026-04-11T11:10:18.98Z</time></trkpt><trkpt lat="42.9906583" lon="11.4102683"><ele>243.99999999999997</ele><time>2026-04-11T11:10:22.98Z</time></trkpt><trkpt lat="42.9907367" lon="11.4102517"><ele>244.0</ele><time>2026-04-11T11:10:26.98Z</time></trkpt><trkpt lat="42.990805" lon="11.410255"><ele>243.99999999999997</ele><time>2026-04-11T11:10:29.98Z</time></trkpt><trkpt lat="42.9908817" lon="11.410275"><ele>243.99999999999997</ele><time>2026-04-11T11:10:32.98Z</time></trkpt><trkpt lat="42.990945" lon="11.410295"><ele>244.0</ele><time>2026-04-11T11:10:35.98Z</time></trkpt><trkpt lat="42.991025" lon="11.4103133"><ele>243.99999999999997</ele><time>2026-04-11T11:10:39.98Z</time></trkpt><trkpt lat="42.9910867" lon="11.4103333"><ele>243.99999999999997</ele><time>2026-04-11T11:10:42.981Z</time></trkpt><trkpt lat="42.9911567" lon="11.410335"><ele>243.99999999999997</ele><time>2026-04-11T11:10:45.98Z</time></trkpt><trkpt lat="42.9912233" lon="11.41034"><ele>244.0</ele><time>2026-04-11T11:10:48.979Z</time></trkpt><trkpt lat="42.991295" lon="11.4103617"><ele>243.99999999999997</ele><time>2026-04-11T11:10:52.981Z</time></trkpt><trkpt lat="42.9913733" lon="11.4103633"><ele>243.99999999999997</ele><time>2026-04-11T11:10:56.981Z</time></trkpt><trkpt lat="42.99145" lon="11.4103683"><ele>244.0</ele><time>2026-04-11T11:11:00.981Z</time></trkpt><trkpt lat="42.991515" lon="11.4103583"><ele>243.99999999999997</ele><time>2026-04-11T11:11:04.981Z</time></trkpt><trkpt lat="42.991595" lon="11.410355"><ele>243.99999999999997</ele><time>2026-04-11T11:11:08.98Z</time></trkpt><trkpt lat="42.991675" lon="11.41035"><ele>243.99999999999997</ele><time>2026-04-11T11:11:12.98Z</time></trkpt><trkpt lat="42.9917517" lon="11.4103417"><ele>244.0</ele><time>2026-04-11T11:11:16.98Z</time></trkpt><trkpt lat="42.991825" lon="11.4103367"><ele>243.99999999999997</ele><time>2026-04-11T11:11:19.981Z</time></trkpt><trkpt lat="42.9918967" lon="11.41033"><ele>243.99999999999997</ele><time>2026-04-11T11:11:22.98Z</time></trkpt><trkpt lat="42.991965" lon="11.4103367"><ele>244.0</ele><time>2026-04-11T11:11:25.98Z</time></trkpt><trkpt lat="42.9920367" lon="11.41034"><ele>243.99999999999997</ele><time>2026-04-11T11:11:28.981Z</time></trkpt><trkpt lat="42.9921017" lon="11.4103467"><ele>243.99999999999997</ele><time>2026-04-11T11:11:31.98Z</time></trkpt><trkpt lat="42.9921767" lon="11.410355"><ele>243.99999999999997</ele><time>2026-04-11T11:11:34.98Z</time></trkpt><trkpt lat="42.9922517" lon="11.4103683"><ele>244.0</ele><time>2026-04-11T11:11:37.98Z</time></trkpt><trkpt lat="42.99233" lon="11.4103717"><ele>244.0</ele><time>2026-04-11T11:11:40.98Z</time></trkpt><trkpt lat="42.9924067" lon="11.4103867"><ele>244.0</ele><time>2026-04-11T11:11:43.98Z</time></trkpt><trkpt lat="42.992485" lon="11.4103983"><ele>243.99999999999997</ele><time>2026-04-11T11:11:46.98Z</time></trkpt><trkpt lat="42.99256" lon="11.41041"><ele>244.0</ele><time>2026-04-11T11:11:49.98Z</time></trkpt><trkpt lat="42.99264" lon="11.41042"><ele>243.99999999999997</ele><time>2026-04-11T11:11:52.981Z</time></trkpt><trkpt lat="42.99271" lon="11.410445"><ele>244.0</ele><time>2026-04-11T11:11:55.981Z</time></trkpt><trkpt lat="42.9927933" lon="11.4104667"><ele>243.99999999999997</ele><time>2026-04-11T11:11:58.98Z</time></trkpt><trkpt lat="42.9928583" lon="11.4104883"><ele>243.99999999999997</ele><time>2026-04-11T11:12:01.981Z</time></trkpt><trkpt lat="42.992925" lon="11.4105117"><ele>244.0</ele><time>2026-04-11T11:12:04.981Z</time></trkpt><trkpt lat="42.9929967" lon="11.410545"><ele>243.99999999999997</ele><time>2026-04-11T11:12:07.98Z</time></trkpt><trkpt lat="42.993065" lon="11.4105883"><ele>243.99999999999997</ele><time>2026-04-11T11:12:10.98Z</time></trkpt><trkpt lat="42.9931283" lon="11.4106317"><ele>244.28571428571425</ele><time>2026-04-11T11:12:13.98Z</time></trkpt><trkpt lat="42.993185" lon="11.410695"><ele>244.57142857142856</ele><time>2026-04-11T11:12:16.981Z</time></trkpt><trkpt lat="42.99324" lon="11.4107417"><ele>244.85714285714286</ele><time>2026-04-11T11:12:19.98Z</time></trkpt><trkpt lat="42.99331" lon="11.4108033"><ele>245.14285714285714</ele><time>2026-04-11T11:12:23.98Z</time></trkpt><trkpt lat="42.9933667" lon="11.4108467"><ele>245.42857142857144</ele><time>2026-04-11T11:12:26.98Z</time></trkpt><trkpt lat="42.993425" lon="11.410905"><ele>245.71428571428575</ele><time>2026-04-11T11:12:29.98Z</time></trkpt><trkpt lat="42.9934817" lon="11.4109683"><ele>246.00000000000003</ele><time>2026-04-11T11:12:32.98Z</time></trkpt><trkpt lat="42.9935283" lon="11.4110333"><ele>246.00000000000003</ele><time>2026-04-11T11:12:35.981Z</time></trkpt><trkpt lat="42.9935833" lon="11.4110833"><ele>246.0</ele><time>2026-04-11T11:12:38.98Z</time></trkpt><trkpt lat="42.9936417" lon="11.4111417"><ele>246.00000000000003</ele><time>2026-04-11T11:12:41.981Z</time></trkpt><trkpt lat="42.9936983" lon="11.4112"><ele>246.00000000000003</ele><time>2026-04-11T11:12:44.98Z</time></trkpt><trkpt lat="42.9937533" lon="11.4112717"><ele>246.0</ele><time>2026-04-11T11:12:47.98Z</time></trkpt><trkpt lat="42.99381" lon="11.4113417"><ele>246.00000000000003</ele><time>2026-04-11T11:12:50.98Z</time></trkpt><trkpt lat="42.9938667" lon="11.411395"><ele>246.00000000000003</ele><time>2026-04-11T11:12:53.981Z</time></trkpt><trkpt lat="42.9939333" lon="11.4114433"><ele>246.5714285714286</ele><time>2026-04-11T11:12:56.98Z</time></trkpt><trkpt lat="42.993995" lon="11.4114917"><ele>247.14285714285717</ele><time>2026-04-11T11:12:59.981Z</time></trkpt><trkpt lat="42.9940583" lon="11.4115333"><ele>247.71428571428572</ele><time>2026-04-11T11:13:02.98Z</time></trkpt><trkpt lat="42.994115" lon="11.41159"><ele>248.2857142857143</ele><time>2026-04-11T11:13:05.98Z</time></trkpt><trkpt lat="42.9941733" lon="11.411645"><ele>248.8571428571429</ele><time>2026-04-11T11:13:08.98Z</time></trkpt><trkpt lat="42.9942417" lon="11.4117"><ele>249.42857142857142</ele><time>2026-04-11T11:13:11.981Z</time></trkpt><trkpt lat="42.994305" lon="11.4117317"><ele>250.0</ele><time>2026-04-11T11:13:14.981Z</time></trkpt><trkpt lat="42.9943717" lon="11.41177"><ele>250.14285714285714</ele><time>2026-04-11T11:13:17.98Z</time></trkpt><trkpt lat="42.99443" lon="11.4118167"><ele>250.28571428571428</ele><time>2026-04-11T11:13:20.98Z</time></trkpt><trkpt lat="42.994495" lon="11.4118683"><ele>250.42857142857142</ele><time>2026-04-11T11:13:23.98Z</time></trkpt><trkpt lat="42.99456" lon="11.4119283"><ele>250.57142857142856</ele><time>2026-04-11T11:13:26.981Z</time></trkpt><trkpt lat="42.9946217" lon="11.41197"><ele>250.71428571428572</ele><time>2026-04-11T11:13:29.979Z</time></trkpt><trkpt lat="42.9946867" lon="11.4120017"><ele>250.85714285714283</ele><time>2026-04-11T11:13:32.979Z</time></trkpt><trkpt lat="42.9947533" lon="11.4120467"><ele>250.99999999999997</ele><time>2026-04-11T11:13:35.979Z</time></trkpt><trkpt lat="42.994815" lon="11.4120683"><ele>250.99999999999997</ele><time>2026-04-11T11:13:38.98Z</time></trkpt><trkpt lat="42.99489" lon="11.4121017"><ele>251.0</ele><time>2026-04-11T11:13:41.98Z</time></trkpt><trkpt lat="42.9949617" lon="11.41212"><ele>250.99999999999997</ele><time>2026-04-11T11:13:44.98Z</time></trkpt><trkpt lat="42.9950267" lon="11.41214"><ele>250.99999999999997</ele><time>2026-04-11T11:13:47.979Z</time></trkpt><trkpt lat="42.9951033" lon="11.4121333"><ele>251.0</ele><time>2026-04-11T11:13:50.979Z</time></trkpt><trkpt lat="42.9951783" lon="11.4121383"><ele>250.99999999999997</ele><time>2026-04-11T11:13:53.979Z</time></trkpt><trkpt lat="42.9952483" lon="11.412135"><ele>250.99999999999997</ele><time>2026-04-11T11:13:56.98Z</time></trkpt><trkpt lat="42.9953217" lon="11.4121167"><ele>251.33333333333334</ele><time>2026-04-11T11:13:59.98Z</time></trkpt><trkpt lat="42.9953883" lon="11.4120917"><ele>251.66666666666669</ele><time>2026-04-11T11:14:02.979Z</time></trkpt><trkpt lat="42.9954583" lon="11.412075"><ele>252.0</ele><time>2026-04-11T11:14:05.979Z</time></trkpt><trkpt lat="42.9955417" lon="11.4120483"><ele>252.33333333333331</ele><time>2026-04-11T11:14:09.979Z</time></trkpt><trkpt lat="42.9956217" lon="11.412025"><ele>252.66666666666666</ele><time>2026-04-11T11:14:12.979Z</time></trkpt><trkpt lat="42.995695" lon="11.4120033"><ele>253.0</ele><time>2026-04-11T11:14:15.979Z</time></trkpt><trkpt lat="42.9957683" lon="11.4119833"><ele>253.00000000000003</ele><time>2026-04-11T11:14:18.979Z</time></trkpt><trkpt lat="42.9958333" lon="11.4119533"><ele>253.0</ele><time>2026-04-11T11:14:21.979Z</time></trkpt><trkpt lat="42.9959067" lon="11.4119267"><ele>253.00000000000003</ele><time>2026-04-11T11:14:24.979Z</time></trkpt><trkpt lat="42.9959733" lon="11.4118933"><ele>253.00000000000003</ele><time>2026-04-11T11:14:27.979Z</time></trkpt><trkpt lat="42.99604" lon="11.4118617"><ele>253.0</ele><time>2026-04-11T11:14:30.979Z</time></trkpt><trkpt lat="42.9961083" lon="11.41184"><ele>253.00000000000003</ele><time>2026-04-11T11:14:33.979Z</time></trkpt><trkpt lat="42.9961733" lon="11.411805"><ele>253.00000000000003</ele><time>2026-04-11T11:14:36.979Z</time></trkpt><trkpt lat="42.99624" lon="11.41178"><ele>252.8571428571429</ele><time>2026-04-11T11:14:39.979Z</time></trkpt><trkpt lat="42.996315" lon="11.4117583"><ele>252.71428571428572</ele><time>2026-04-11T11:14:42.979Z</time></trkpt><trkpt lat="42.9963783" lon="11.411735"><ele>252.57142857142858</ele><time>2026-04-11T11:14:45.979Z</time></trkpt><trkpt lat="42.9964383" lon="11.411705"><ele>252.42857142857144</ele><time>2026-04-11T11:14:48.979Z</time></trkpt><trkpt lat="42.9965" lon="11.4116717"><ele>252.28571428571428</ele><time>2026-04-11T11:14:51.979Z</time></trkpt><trkpt lat="42.99658" lon="11.4116317"><ele>252.14285714285714</ele><time>2026-04-11T11:14:55.979Z</time></trkpt><trkpt lat="42.9966467" lon="11.4116033"><ele>252.0</ele><time>2026-04-11T11:14:58.98Z</time></trkpt><trkpt lat="42.996725" lon="11.41159"><ele>252.0</ele><time>2026-04-11T11:15:01.979Z</time></trkpt><trkpt lat="42.9968117" lon="11.41157"><ele>252.0</ele><time>2026-04-11T11:15:04.98Z</time></trkpt><trkpt lat="42.9969033" lon="11.4115667"><ele>252.0</ele><time>2026-04-11T11:15:07.979Z</time></trkpt><trkpt lat="42.9969767" lon="11.4115633"><ele>252.0</ele><time>2026-04-11T11:15:09.979Z</time></trkpt><trkpt lat="42.9970717" lon="11.4115733"><ele>252.0</ele><time>2026-04-11T11:15:11.979Z</time></trkpt><trkpt lat="42.99715" lon="11.4115633"><ele>252.0</ele><time>2026-04-11T11:15:13.979Z</time></trkpt><trkpt lat="42.9972267" lon="11.41156"><ele>252.0</ele><time>2026-04-11T11:15:15.98Z</time></trkpt><trkpt lat="42.9973433" lon="11.4115467"><ele>252.0</ele><time>2026-04-11T11:15:18.98Z</time></trkpt><trkpt lat="42.99742" lon="11.411545"><ele>252.0</ele><time>2026-04-11T11:15:20.979Z</time></trkpt><trkpt lat="42.9974917" lon="11.4115283"><ele>252.0</ele><time>2026-04-11T11:15:22.98Z</time></trkpt><trkpt lat="42.997555" lon="11.411515"><ele>252.0</ele><time>2026-04-11T11:15:24.979Z</time></trkpt><trkpt lat="42.9976483" lon="11.4114933"><ele>252.0</ele><time>2026-04-11T11:15:27.979Z</time></trkpt><trkpt lat="42.9977133" lon="11.4114783"><ele>252.0</ele><time>2026-04-11T11:15:29.979Z</time></trkpt><trkpt lat="42.9978067" lon="11.4114617"><ele>252.0</ele><time>2026-04-11T11:15:32.979Z</time></trkpt><trkpt lat="42.9979017" lon="11.4114433"><ele>252.0</ele><time>2026-04-11T11:15:35.979Z</time></trkpt><trkpt lat="42.997965" lon="11.41143"><ele>252.0</ele><time>2026-04-11T11:15:37.979Z</time></trkpt><trkpt lat="42.9980333" lon="11.4114233"><ele>252.0</ele><time>2026-04-11T11:15:39.98Z</time></trkpt><trkpt lat="42.9980967" lon="11.41141"><ele>252.0</ele><time>2026-04-11T11:15:41.98Z</time></trkpt><trkpt lat="42.99819" lon="11.4113867"><ele>252.0</ele><time>2026-04-11T11:15:44.979Z</time></trkpt><trkpt lat="42.998255" lon="11.41137"><ele>252.0</ele><time>2026-04-11T11:15:46.979Z</time></trkpt><trkpt lat="42.99832" lon="11.4113467"><ele>252.0</ele><time>2026-04-11T11:15:48.98Z</time></trkpt><trkpt lat="42.998385" lon="11.4113217"><ele>252.0</ele><time>2026-04-11T11:15:50.979Z</time></trkpt><trkpt lat="42.9984517" lon="11.4113117"><ele>252.0</ele><time>2026-04-11T11:15:52.979Z</time></trkpt><trkpt lat="42.998515" lon="11.4113033"><ele>252.0</ele><time>2026-04-11T11:15:54.979Z</time></trkpt><trkpt lat="42.9985817" lon="11.411295"><ele>252.0</ele><time>2026-04-11T11:15:56.979Z</time></trkpt><trkpt lat="42.99865" lon="11.4112867"><ele>250.85714285714286</ele><time>2026-04-11T11:15:58.979Z</time></trkpt><trkpt lat="42.9987133" lon="11.41127"><ele>249.71428571428572</ele><time>2026-04-11T11:16:00.979Z</time></trkpt><trkpt lat="42.9987833" lon="11.4112567"><ele>248.57142857142856</ele><time>2026-04-11T11:16:02.98Z</time></trkpt><trkpt lat="42.998855" lon="11.4112433"><ele>247.42857142857142</ele><time>2026-04-11T11:16:04.979Z</time></trkpt><trkpt lat="42.99893" lon="11.4112317"><ele>246.28571428571428</ele><time>2026-04-11T11:16:06.979Z</time></trkpt><trkpt lat="42.999005" lon="11.4112133"><ele>245.1428571428571</ele><time>2026-04-11T11:16:08.979Z</time></trkpt><trkpt lat="42.99908" lon="11.4112"><ele>243.99999999999997</ele><time>2026-04-11T11:16:10.98Z</time></trkpt><trkpt lat="42.9991567" lon="11.4111883"><ele>243.71428571428567</ele><time>2026-04-11T11:16:12.98Z</time></trkpt><trkpt lat="42.9992367" lon="11.4111783"><ele>243.42857142857142</ele><time>2026-04-11T11:16:14.979Z</time></trkpt><trkpt lat="42.999305" lon="11.411165"><ele>243.1428571428571</ele><time>2026-04-11T11:16:16.98Z</time></trkpt><trkpt lat="42.9993767" lon="11.4111483"><ele>242.85714285714283</ele><time>2026-04-11T11:16:19.979Z</time></trkpt><trkpt lat="42.9994417" lon="11.4111383"><ele>242.57142857142856</ele><time>2026-04-11T11:16:21.979Z</time></trkpt><trkpt lat="42.9995083" lon="11.411125"><ele>242.28571428571428</ele><time>2026-04-11T11:16:23.979Z</time></trkpt><trkpt lat="42.999585" lon="11.41111"><ele>242.0</ele><time>2026-04-11T11:16:25.979Z</time></trkpt><trkpt lat="42.9996783" lon="11.4110883"><ele>242.0</ele><time>2026-04-11T11:16:27.979Z</time></trkpt><trkpt lat="42.9997767" lon="11.4110633"><ele>242.0</ele><time>2026-04-11T11:16:29.979Z</time></trkpt><trkpt lat="42.9998717" lon="11.4110417"><ele>242.0</ele><time>2026-04-11T11:16:31.979Z</time></trkpt><trkpt lat="42.999965" lon="11.4110217"><ele>242.0</ele><time>2026-04-11T11:16:33.979Z</time></trkpt><trkpt lat="43.0000533" lon="11.4109983"><ele>242.0</ele><time>2026-04-11T11:16:35.979Z</time></trkpt><trkpt lat="43.0001383" lon="11.4109767"><ele>242.00000000000003</ele><time>2026-04-11T11:16:37.979Z</time></trkpt><trkpt lat="43.00022" lon="11.410965"><ele>242.0</ele><time>2026-04-11T11:16:39.979Z</time></trkpt><trkpt lat="43.000285" lon="11.41095"><ele>242.0</ele><time>2026-04-11T11:16:41.979Z</time></trkpt><trkpt lat="43.0003533" lon="11.4109333"><ele>242.0</ele><time>2026-04-11T11:16:43.979Z</time></trkpt><trkpt lat="43.0004417" lon="11.4109283"><ele>242.00000000000003</ele><time>2026-04-11T11:16:45.98Z</time></trkpt><trkpt lat="43.0005333" lon="11.4109217"><ele>242.0</ele><time>2026-04-11T11:16:47.979Z</time></trkpt><trkpt lat="43.000625" lon="11.410905"><ele>242.0</ele><time>2026-04-11T11:16:49.979Z</time></trkpt><trkpt lat="43.000715" lon="11.4108917"><ele>242.0</ele><time>2026-04-11T11:16:51.979Z</time></trkpt><trkpt lat="43.0008" lon="11.41087"><ele>242.0</ele><time>2026-04-11T11:16:53.979Z</time></trkpt><trkpt lat="43.000885" lon="11.41084"><ele>242.0</ele><time>2026-04-11T11:16:55.979Z</time></trkpt><trkpt lat="43.00097" lon="11.4108183"><ele>242.0</ele><time>2026-04-11T11:16:57.979Z</time></trkpt><trkpt lat="43.0010683" lon="11.4107917"><ele>241.33333333333334</ele><time>2026-04-11T11:16:59.979Z</time></trkpt><trkpt lat="43.0011667" lon="11.41077"><ele>240.66666666666669</ele><time>2026-04-11T11:17:01.98Z</time></trkpt><trkpt lat="43.00126" lon="11.4107533"><ele>240.0</ele><time>2026-04-11T11:17:03.979Z</time></trkpt><trkpt lat="43.0013417" lon="11.4107333"><ele>239.33333333333331</ele><time>2026-04-11T11:17:05.979Z</time></trkpt><trkpt lat="43.00142" lon="11.4107133"><ele>238.66666666666666</ele><time>2026-04-11T11:17:07.979Z</time></trkpt><trkpt lat="43.0014917" lon="11.4106967"><ele>238.0</ele><time>2026-04-11T11:17:09.98Z</time></trkpt><trkpt lat="43.0015667" lon="11.4106817"><ele>238.0</ele><time>2026-04-11T11:17:11.979Z</time></trkpt><trkpt lat="43.0016383" lon="11.4106733"><ele>238.0</ele><time>2026-04-11T11:17:13.98Z</time></trkpt><trkpt lat="43.0017083" lon="11.4106583"><ele>238.0</ele><time>2026-04-11T11:17:15.978Z</time></trkpt><trkpt lat="43.0017717" lon="11.410645"><ele>238.0</ele><time>2026-04-11T11:17:17.978Z</time></trkpt><trkpt lat="43.00184" lon="11.410635"><ele>238.0</ele><time>2026-04-11T11:17:19.978Z</time></trkpt><trkpt lat="43.0019183" lon="11.410635"><ele>238.0</ele><time>2026-04-11T11:17:21.978Z</time></trkpt><trkpt lat="43.0019933" lon="11.4106683"><ele>238.0</ele><time>2026-04-11T11:17:23.978Z</time></trkpt><trkpt lat="43.00207" lon="11.410705"><ele>238.14285714285714</ele><time>2026-04-11T11:17:25.978Z</time></trkpt><trkpt lat="43.002135" lon="11.410755"><ele>238.28571428571428</ele><time>2026-04-11T11:17:27.978Z</time></trkpt><trkpt lat="43.0021917" lon="11.4108067"><ele>238.42857142857144</ele><time>2026-04-11T11:17:29.979Z</time></trkpt><trkpt lat="43.0022433" lon="11.4108717"><ele>238.57142857142858</ele><time>2026-04-11T11:17:31.978Z</time></trkpt><trkpt lat="43.0023033" lon="11.41093"><ele>238.71428571428572</ele><time>2026-04-11T11:17:33.978Z</time></trkpt><trkpt lat="43.00235" lon="11.4110133"><ele>238.8571428571429</ele><time>2026-04-11T11:17:35.978Z</time></trkpt><trkpt lat="43.0023967" lon="11.411085"><ele>239.00000000000003</ele><time>2026-04-11T11:17:37.978Z</time></trkpt><trkpt lat="43.002445" lon="11.4111567"><ele>239.00000000000003</ele><time>2026-04-11T11:17:39.979Z</time></trkpt><trkpt lat="43.0024867" lon="11.4112333"><ele>239.0</ele><time>2026-04-11T11:17:41.978Z</time></trkpt><trkpt lat="43.0025333" lon="11.4113117"><ele>239.00000000000003</ele><time>2026-04-11T11:17:43.978Z</time></trkpt><trkpt lat="43.002585" lon="11.41138"><ele>239.00000000000003</ele><time>2026-04-11T11:17:47.979Z</time></trkpt><trkpt lat="43.00262" lon="11.4114867"><ele>239.0</ele><time>2026-04-11T11:17:50.978Z</time></trkpt><trkpt lat="43.0026617" lon="11.41157"><ele>239.00000000000003</ele><time>2026-04-11T11:17:52.978Z</time></trkpt><trkpt lat="43.00271" lon="11.4116367"><ele>239.00000000000003</ele><time>2026-04-11T11:17:54.978Z</time></trkpt><trkpt lat="43.0027633" lon="11.41176"><ele>238.83333333333334</ele><time>2026-04-11T11:17:56.978Z</time></trkpt><trkpt lat="43.0028167" lon="11.41186"><ele>238.66666666666669</ele><time>2026-04-11T11:17:58.978Z</time></trkpt><trkpt lat="43.00286" lon="11.411945"><ele>238.5</ele><time>2026-04-11T11:18:00.978Z</time></trkpt><trkpt lat="43.0029033" lon="11.41203"><ele>238.33333333333331</ele><time>2026-04-11T11:18:02.979Z</time></trkpt><trkpt lat="43.0029483" lon="11.4121267"><ele>238.16666666666666</ele><time>2026-04-11T11:18:04.978Z</time></trkpt><trkpt lat="43.0030033" lon="11.4122133"><ele>238.0</ele><time>2026-04-11T11:18:06.979Z</time></trkpt><trkpt lat="43.0030683" lon="11.4123367"><ele>237.16666666666666</ele><time>2026-04-11T11:18:08.978Z</time></trkpt><trkpt lat="43.0031233" lon="11.412445"><ele>236.33333333333331</ele><time>2026-04-11T11:18:10.978Z</time></trkpt><trkpt lat="43.0031783" lon="11.4125433"><ele>235.5</ele><time>2026-04-11T11:18:12.978Z</time></trkpt><trkpt lat="43.003225" lon="11.41263"><ele>234.66666666666669</ele><time>2026-04-11T11:18:14.978Z</time></trkpt><trkpt lat="43.0032683" lon="11.4127"><ele>233.83333333333334</ele><time>2026-04-11T11:18:16.978Z</time></trkpt><trkpt lat="43.00331" lon="11.4127717"><ele>233.0</ele><time>2026-04-11T11:18:18.979Z</time></trkpt><trkpt lat="43.00336" lon="11.41287"><ele>233.00000000000003</ele><time>2026-04-11T11:18:21.978Z</time></trkpt><trkpt lat="43.003415" lon="11.4129583"><ele>233.0</ele><time>2026-04-11T11:18:24.979Z</time></trkpt><trkpt lat="43.0034683" lon="11.4130467"><ele>233.0</ele><time>2026-04-11T11:18:27.978Z</time></trkpt><trkpt lat="43.00351" lon="11.4131133"><ele>233.0</ele><time>2026-04-11T11:18:29.978Z</time></trkpt><trkpt lat="43.00357" lon="11.4132067"><ele>233.00000000000003</ele><time>2026-04-11T11:18:32.978Z</time></trkpt><trkpt lat="43.0036133" lon="11.4133033"><ele>233.0</ele><time>2026-04-11T11:18:35.978Z</time></trkpt><trkpt lat="43.00367" lon="11.4134033"><ele>233.00000000000003</ele><time>2026-04-11T11:18:38.978Z</time></trkpt><trkpt lat="43.0037533" lon="11.4135367"><ele>233.0</ele><time>2026-04-11T11:18:42.978Z</time></trkpt><trkpt lat="43.003795" lon="11.4136067"><ele>233.0</ele><time>2026-04-11T11:18:44.978Z</time></trkpt><trkpt lat="43.0038433" lon="11.413695"><ele>233.0</ele><time>2026-04-11T11:18:47.978Z</time></trkpt><trkpt lat="43.003885" lon="11.413775"><ele>233.00000000000003</ele><time>2026-04-11T11:18:49.978Z</time></trkpt><trkpt lat="43.003935" lon="11.4138683"><ele>233.0</ele><time>2026-04-11T11:18:51.978Z</time></trkpt><trkpt lat="43.0039817" lon="11.4139583"><ele>233.00000000000003</ele><time>2026-04-11T11:18:53.978Z</time></trkpt><trkpt lat="43.00403" lon="11.4140433"><ele>233.0</ele><time>2026-04-11T11:18:55.978Z</time></trkpt><trkpt lat="43.0040767" lon="11.4141367"><ele>233.0</ele><time>2026-04-11T11:18:57.979Z</time></trkpt><trkpt lat="43.0041233" lon="11.414215"><ele>233.0</ele><time>2026-04-11T11:18:59.978Z</time></trkpt><trkpt lat="43.0041767" lon="11.4142967"><ele>233.00000000000003</ele><time>2026-04-11T11:19:01.978Z</time></trkpt><trkpt lat="43.0042367" lon="11.41439"><ele>233.0</ele><time>2026-04-11T11:19:03.978Z</time></trkpt><trkpt lat="43.0042967" lon="11.414485"><ele>233.00000000000003</ele><time>2026-04-11T11:19:05.978Z</time></trkpt><trkpt lat="43.0043467" lon="11.41458"><ele>233.0</ele><time>2026-04-11T11:19:07.978Z</time></trkpt><trkpt lat="43.0043933" lon="11.41466"><ele>233.0</ele><time>2026-04-11T11:19:09.978Z</time></trkpt><trkpt lat="43.0044367" lon="11.4147617"><ele>233.0</ele><time>2026-04-11T11:19:11.978Z</time></trkpt><trkpt lat="43.0044933" lon="11.4148683"><ele>233.00000000000003</ele><time>2026-04-11T11:19:13.978Z</time></trkpt><trkpt lat="43.0045417" lon="11.4149633"><ele>233.0</ele><time>2026-04-11T11:19:15.978Z</time></trkpt><trkpt lat="43.0045917" lon="11.415055"><ele>232.50000000000003</ele><time>2026-04-11T11:19:17.978Z</time></trkpt><trkpt lat="43.0046383" lon="11.415155"><ele>232.0</ele><time>2026-04-11T11:19:19.978Z</time></trkpt><trkpt lat="43.0046783" lon="11.4152333"><ele>231.5</ele><time>2026-04-11T11:19:21.979Z</time></trkpt><trkpt lat="43.00473" lon="11.41534"><ele>231.0</ele><time>2026-04-11T11:19:24.978Z</time></trkpt><trkpt lat="43.0047783" lon="11.4154333"><ele>230.50000000000003</ele><time>2026-04-11T11:19:27.978Z</time></trkpt><trkpt lat="43.0048133" lon="11.41551"><ele>230.0</ele><time>2026-04-11T11:19:29.978Z</time></trkpt><trkpt lat="43.0048533" lon="11.4156033"><ele>229.16666666666669</ele><time>2026-04-11T11:19:31.978Z</time></trkpt><trkpt lat="43.004895" lon="11.4157"><ele>228.33333333333334</ele><time>2026-04-11T11:19:33.978Z</time></trkpt><trkpt lat="43.0049417" lon="11.415795"><ele>227.5</ele><time>2026-04-11T11:19:35.978Z</time></trkpt><trkpt lat="43.00499" lon="11.4158933"><ele>226.66666666666669</ele><time>2026-04-11T11:19:37.978Z</time></trkpt><trkpt lat="43.00503" lon="11.4159833"><ele>225.83333333333334</ele><time>2026-04-11T11:19:39.978Z</time></trkpt><trkpt lat="43.0050667" lon="11.4160717"><ele>225.0</ele><time>2026-04-11T11:19:41.979Z</time></trkpt><trkpt lat="43.0051033" lon="11.4161717"><ele>225.0</ele><time>2026-04-11T11:19:43.978Z</time></trkpt><trkpt lat="43.0051517" lon="11.4162783"><ele>225.0</ele><time>2026-04-11T11:19:45.978Z</time></trkpt><trkpt lat="43.0052083" lon="11.41638"><ele>225.0</ele><time>2026-04-11T11:19:47.978Z</time></trkpt><trkpt lat="43.005265" lon="11.4164867"><ele>225.0</ele><time>2026-04-11T11:19:49.978Z</time></trkpt><trkpt lat="43.0053133" lon="11.4165933"><ele>225.0</ele><time>2026-04-11T11:19:51.979Z</time></trkpt><trkpt lat="43.0053617" lon="11.4166933"><ele>225.16666666666666</ele><time>2026-04-11T11:19:53.978Z</time></trkpt><trkpt lat="43.00541" lon="11.416785"><ele>225.33333333333331</ele><time>2026-04-11T11:19:55.978Z</time></trkpt><trkpt lat="43.0054483" lon="11.4168883"><ele>225.5</ele><time>2026-04-11T11:19:57.978Z</time></trkpt><trkpt lat="43.0054883" lon="11.4169733"><ele>225.66666666666666</ele><time>2026-04-11T11:19:59.978Z</time></trkpt><trkpt lat="43.005525" lon="11.4170533"><ele>225.83333333333331</ele><time>2026-04-11T11:20:01.978Z</time></trkpt><trkpt lat="43.0055667" lon="11.4171367"><ele>226.0</ele><time>2026-04-11T11:20:03.978Z</time></trkpt><trkpt lat="43.0056117" lon="11.41724"><ele>226.0</ele><time>2026-04-11T11:20:06.978Z</time></trkpt><trkpt lat="43.0056417" lon="11.4173217"><ele>226.0</ele><time>2026-04-11T11:20:09.978Z</time></trkpt><trkpt lat="43.0056717" lon="11.4174033"><ele>226.0</ele><time>2026-04-11T11:20:12.979Z</time></trkpt><trkpt lat="43.00572" lon="11.417485"><ele>226.0</ele><time>2026-04-11T11:20:16.978Z</time></trkpt><trkpt lat="43.00577" lon="11.4175733"><ele>226.0</ele><time>2026-04-11T11:20:20.979Z</time></trkpt><trkpt lat="43.0058183" lon="11.4176483"><ele>226.0</ele><time>2026-04-11T11:20:24.978Z</time></trkpt><trkpt lat="43.00586" lon="11.4177183"><ele>226.0</ele><time>2026-04-11T11:20:27.978Z</time></trkpt><trkpt lat="43.0059" lon="11.4177983"><ele>225.85714285714286</ele><time>2026-04-11T11:20:30.978Z</time></trkpt><trkpt lat="43.005945" lon="11.4178817"><ele>225.71428571428572</ele><time>2026-04-11T11:20:33.977Z</time></trkpt><trkpt lat="43.0059883" lon="11.4179517"><ele>225.57142857142858</ele><time>2026-04-11T11:20:36.977Z</time></trkpt><trkpt lat="43.006025" lon="11.4180283"><ele>225.42857142857144</ele><time>2026-04-11T11:20:39.977Z</time></trkpt><trkpt lat="43.0060633" lon="11.41812"><ele>225.28571428571428</ele><time>2026-04-11T11:20:42.977Z</time></trkpt><trkpt lat="43.00611" lon="11.418205"><ele>225.14285714285717</ele><time>2026-04-11T11:20:45.977Z</time></trkpt><trkpt lat="43.00616" lon="11.4182967"><ele>225.00000000000003</ele><time>2026-04-11T11:20:48.977Z</time></trkpt><trkpt lat="43.0062033" lon="11.4183867"><ele>225.66666666666666</ele><time>2026-04-11T11:20:51.978Z</time></trkpt><trkpt lat="43.0062417" lon="11.4184817"><ele>226.33333333333331</ele><time>2026-04-11T11:20:54.977Z</time></trkpt><trkpt lat="43.00629" lon="11.4185683"><ele>227.0</ele><time>2026-04-11T11:20:57.977Z</time></trkpt><trkpt lat="43.0063283" lon="11.4186567"><ele>227.66666666666666</ele><time>2026-04-11T11:21:00.977Z</time></trkpt><trkpt lat="43.0063683" lon="11.418745"><ele>228.33333333333331</ele><time>2026-04-11T11:21:03.977Z</time></trkpt><trkpt lat="43.00641" lon="11.4188367"><ele>229.0</ele><time>2026-04-11T11:21:06.977Z</time></trkpt><trkpt lat="43.00646" lon="11.4189133"><ele>229.33333333333331</ele><time>2026-04-11T11:21:09.978Z</time></trkpt><trkpt lat="43.006515" lon="11.4189917"><ele>229.66666666666666</ele><time>2026-04-11T11:21:12.978Z</time></trkpt><trkpt lat="43.0065717" lon="11.41907"><ele>230.0</ele><time>2026-04-11T11:21:15.977Z</time></trkpt><trkpt lat="43.006625" lon="11.4191367"><ele>230.33333333333331</ele><time>2026-04-11T11:21:18.978Z</time></trkpt><trkpt lat="43.0066783" lon="11.41921"><ele>230.66666666666666</ele><time>2026-04-11T11:21:21.978Z</time></trkpt><trkpt lat="43.00673" lon="11.4192817"><ele>231.0</ele><time>2026-04-11T11:21:24.977Z</time></trkpt><trkpt lat="43.0067833" lon="11.4193583"><ele>231.0</ele><time>2026-04-11T11:21:27.978Z</time></trkpt><trkpt lat="43.006835" lon="11.419425"><ele>231.0</ele><time>2026-04-11T11:21:30.977Z</time></trkpt><trkpt lat="43.00689" lon="11.4194833"><ele>231.0</ele><time>2026-04-11T11:21:33.977Z</time></trkpt><trkpt lat="43.006945" lon="11.4195367"><ele>231.0</ele><time>2026-04-11T11:21:36.978Z</time></trkpt><trkpt lat="43.007" lon="11.4195817"><ele>231.0</ele><time>2026-04-11T11:21:39.977Z</time></trkpt><trkpt lat="43.0070567" lon="11.4196333"><ele>231.0</ele><time>2026-04-11T11:21:42.977Z</time></trkpt><trkpt lat="43.007125" lon="11.4196967"><ele>231.0</ele><time>2026-04-11T11:21:46.977Z</time></trkpt><trkpt lat="43.0071933" lon="11.419705"><ele>231.0</ele><time>2026-04-11T11:21:58.977Z</time></trkpt><trkpt lat="43.0072283" lon="11.419785"><ele>231.0</ele><time>2026-04-11T11:22:21.977Z</time></trkpt><trkpt lat="43.0071767" lon="11.4198383"><ele>231.0</ele><time>2026-04-11T11:22:26.978Z</time></trkpt><trkpt lat="43.0071383" lon="11.41975"><ele>231.0</ele><time>2026-04-11T11:23:05.978Z</time></trkpt><trkpt lat="43.0070833" lon="11.4197"><ele>231.0</ele><time>2026-04-11T11:23:11.977Z</time></trkpt><trkpt lat="43.0070333" lon="11.4196333"><ele>231.0</ele><time>2026-04-11T11:23:18.977Z</time></trkpt><trkpt lat="43.0071083" lon="11.4196533"><ele>231.0</ele><time>2026-04-11T11:26:10.98Z</time></trkpt><trkpt lat="43.0071533" lon="11.419715"><ele>231.28571428571428</ele><time>2026-04-11T11:26:13.98Z</time></trkpt><trkpt lat="43.0072233" lon="11.419745"><ele>231.57142857142856</ele><time>2026-04-11T11:26:17.981Z</time></trkpt><trkpt lat="43.0072783" lon="11.4197883"><ele>231.85714285714286</ele><time>2026-04-11T11:26:20.98Z</time></trkpt><trkpt lat="43.0073383" lon="11.4198433"><ele>232.14285714285714</ele><time>2026-04-11T11:26:23.98Z</time></trkpt><trkpt lat="43.00739" lon="11.4198983"><ele>232.42857142857142</ele><time>2026-04-11T11:26:26.981Z</time></trkpt><trkpt lat="43.0074367" lon="11.4199567"><ele>232.71428571428572</ele><time>2026-04-11T11:26:29.981Z</time></trkpt><trkpt lat="43.0075117" lon="11.4200117"><ele>233.0</ele><time>2026-04-11T11:26:33.98Z</time></trkpt><trkpt lat="43.0075733" lon="11.4200583"><ele>233.14285714285717</ele><time>2026-04-11T11:26:36.98Z</time></trkpt><trkpt lat="43.00763" lon="11.4201067"><ele>233.28571428571428</ele><time>2026-04-11T11:26:39.98Z</time></trkpt><trkpt lat="43.0076967" lon="11.4201667"><ele>233.42857142857144</ele><time>2026-04-11T11:26:42.98Z</time></trkpt><trkpt lat="43.00776" lon="11.420215"><ele>233.57142857142858</ele><time>2026-04-11T11:26:45.98Z</time></trkpt><trkpt lat="43.00782" lon="11.42026"><ele>233.71428571428572</ele><time>2026-04-11T11:26:49.98Z</time></trkpt><trkpt lat="43.0078817" lon="11.4203033"><ele>233.85714285714286</ele><time>2026-04-11T11:26:53.98Z</time></trkpt><trkpt lat="43.00794" lon="11.42035"><ele>234.0</ele><time>2026-04-11T11:26:57.98Z</time></trkpt><trkpt lat="43.0080017" lon="11.4204"><ele>234.0</ele><time>2026-04-11T11:27:01.98Z</time></trkpt><trkpt lat="43.008065" lon="11.4204517"><ele>234.0</ele><time>2026-04-11T11:27:06.98Z</time></trkpt><trkpt lat="43.0081183" lon="11.4205033"><ele>234.0</ele><time>2026-04-11T11:27:10.981Z</time></trkpt><trkpt lat="43.00819" lon="11.4205617"><ele>234.0</ele><time>2026-04-11T11:27:14.98Z</time></trkpt><trkpt lat="43.0082633" lon="11.4206267"><ele>234.0</ele><time>2026-04-11T11:27:17.98Z</time></trkpt><trkpt lat="43.0083383" lon="11.42069"><ele>234.0</ele><time>2026-04-11T11:27:20.98Z</time></trkpt><trkpt lat="43.00839" lon="11.4207433"><ele>232.85714285714286</ele><time>2026-04-11T11:27:22.98Z</time></trkpt><trkpt lat="43.0084433" lon="11.4208117"><ele>231.71428571428572</ele><time>2026-04-11T11:27:24.981Z</time></trkpt><trkpt lat="43.0084983" lon="11.42087"><ele>230.57142857142858</ele><time>2026-04-11T11:27:26.98Z</time></trkpt><trkpt lat="43.008555" lon="11.4209217"><ele>229.42857142857144</ele><time>2026-04-11T11:27:28.981Z</time></trkpt><trkpt lat="43.0086217" lon="11.4209767"><ele>228.28571428571428</ele><time>2026-04-11T11:27:31.98Z</time></trkpt><trkpt lat="43.0086917" lon="11.4210233"><ele>227.14285714285717</ele><time>2026-04-11T11:27:35.98Z</time></trkpt><trkpt lat="43.008755" lon="11.4210683"><ele>226.0</ele><time>2026-04-11T11:27:38.981Z</time></trkpt><trkpt lat="43.0088333" lon="11.4211333"><ele>225.99999999999997</ele><time>2026-04-11T11:27:41.98Z</time></trkpt><trkpt lat="43.0089083" lon="11.421165"><ele>226.0</ele><time>2026-04-11T11:27:43.98Z</time></trkpt><trkpt lat="43.009" lon="11.4212033"><ele>226.0</ele><time>2026-04-11T11:27:45.98Z</time></trkpt><trkpt lat="43.0090667" lon="11.4212483"><ele>226.0</ele><time>2026-04-11T11:27:47.98Z</time></trkpt><trkpt lat="43.0091283" lon="11.4213017"><ele>225.99999999999997</ele><time>2026-04-11T11:27:49.981Z</time></trkpt><trkpt lat="43.00918" lon="11.4213617"><ele>226.0</ele><time>2026-04-11T11:27:51.98Z</time></trkpt><trkpt lat="43.0092217" lon="11.4214267"><ele>224.83333333333331</ele><time>2026-04-11T11:27:53.98Z</time></trkpt><trkpt lat="43.009285" lon="11.4215133"><ele>223.66666666666666</ele><time>2026-04-11T11:27:56.981Z</time></trkpt><trkpt lat="43.0093267" lon="11.4216083"><ele>222.5</ele><time>2026-04-11T11:27:58.981Z</time></trkpt><trkpt lat="43.0093683" lon="11.4217067"><ele>221.33333333333331</ele><time>2026-04-11T11:28:00.98Z</time></trkpt><trkpt lat="43.009405" lon="11.42182"><ele>220.16666666666666</ele><time>2026-04-11T11:28:02.98Z</time></trkpt><trkpt lat="43.0094383" lon="11.4219467"><ele>219.0</ele><time>2026-04-11T11:28:04.981Z</time></trkpt><trkpt lat="43.00946" lon="11.4220333"><ele>218.2</ele><time>2026-04-11T11:28:05.98Z</time></trkpt><trkpt lat="43.0095033" lon="11.4221833"><ele>217.39999999999998</ele><time>2026-04-11T11:28:07.98Z</time></trkpt><trkpt lat="43.009545" lon="11.4223167"><ele>216.6</ele><time>2026-04-11T11:28:09.98Z</time></trkpt><trkpt lat="43.0095933" lon="11.422445"><ele>215.8</ele><time>2026-04-11T11:28:11.981Z</time></trkpt><trkpt lat="43.0096367" lon="11.4225567"><ele>215.0</ele><time>2026-04-11T11:28:13.981Z</time></trkpt><trkpt lat="43.00967" lon="11.4226617"><ele>215.0</ele><time>2026-04-11T11:28:15.98Z</time></trkpt><trkpt lat="43.009705" lon="11.4227567"><ele>215.0</ele><time>2026-04-11T11:28:17.98Z</time></trkpt><trkpt lat="43.0097317" lon="11.4228383"><ele>215.0</ele><time>2026-04-11T11:28:19.98Z</time></trkpt><trkpt lat="43.00977" lon="11.4229483"><ele>215.0</ele><time>2026-04-11T11:28:22.98Z</time></trkpt><trkpt lat="43.0097933" lon="11.42303"><ele>215.0</ele><time>2026-04-11T11:28:24.98Z</time></trkpt><trkpt lat="43.009825" lon="11.4231183"><ele>215.0</ele><time>2026-04-11T11:28:26.98Z</time></trkpt><trkpt lat="43.0098567" lon="11.4232183"><ele>215.0</ele><time>2026-04-11T11:28:28.98Z</time></trkpt><trkpt lat="43.0098933" lon="11.4233283"><ele>215.0</ele><time>2026-04-11T11:28:30.98Z</time></trkpt><trkpt lat="43.0099233" lon="11.4234383"><ele>215.0</ele><time>2026-04-11T11:28:32.98Z</time></trkpt><trkpt lat="43.0099517" lon="11.42354"><ele>215.0</ele><time>2026-04-11T11:28:34.98Z</time></trkpt><trkpt lat="43.00997" lon="11.42363"><ele>215.0</ele><time>2026-04-11T11:28:36.98Z</time></trkpt><trkpt lat="43.0099917" lon="11.42372"><ele>215.0</ele><time>2026-04-11T11:28:38.981Z</time></trkpt><trkpt lat="43.0100133" lon="11.4238117"><ele>215.0</ele><time>2026-04-11T11:28:40.98Z</time></trkpt><trkpt lat="43.0100333" lon="11.4238983"><ele>215.0</ele><time>2026-04-11T11:28:42.98Z</time></trkpt><trkpt lat="43.0100483" lon="11.4239883"><ele>216.00000000000003</ele><time>2026-04-11T11:28:44.98Z</time></trkpt><trkpt lat="43.0100617" lon="11.4240733"><ele>217.0</ele><time>2026-04-11T11:28:46.98Z</time></trkpt><trkpt lat="43.0100833" lon="11.424155"><ele>218.0</ele><time>2026-04-11T11:28:48.981Z</time></trkpt><trkpt lat="43.0101117" lon="11.4242717"><ele>219.0</ele><time>2026-04-11T11:28:51.98Z</time></trkpt><trkpt lat="43.010125" lon="11.424395"><ele>220.00000000000003</ele><time>2026-04-11T11:28:54.98Z</time></trkpt><trkpt lat="43.0101417" lon="11.4244817"><ele>221.0</ele><time>2026-04-11T11:28:56.98Z</time></trkpt><trkpt lat="43.0101633" lon="11.424595"><ele>221.42857142857144</ele><time>2026-04-11T11:28:59.98Z</time></trkpt><trkpt lat="43.0101683" lon="11.4246917"><ele>221.85714285714286</ele><time>2026-04-11T11:29:02.981Z</time></trkpt><trkpt lat="43.0101883" lon="11.4248033"><ele>222.28571428571428</ele><time>2026-04-11T11:29:05.98Z</time></trkpt><trkpt lat="43.0101983" lon="11.4248933"><ele>222.71428571428572</ele><time>2026-04-11T11:29:07.981Z</time></trkpt><trkpt lat="43.01021" lon="11.4249883"><ele>223.14285714285714</ele><time>2026-04-11T11:29:09.98Z</time></trkpt><trkpt lat="43.0102333" lon="11.4250867"><ele>223.57142857142858</ele><time>2026-04-11T11:29:11.98Z</time></trkpt><trkpt lat="43.01025" lon="11.42518"><ele>224.0</ele><time>2026-04-11T11:29:13.979Z</time></trkpt><trkpt lat="43.010275" lon="11.4252767"><ele>224.00000000000003</ele><time>2026-04-11T11:29:15.979Z</time></trkpt><trkpt lat="43.0103067" lon="11.4253833"><ele>224.0</ele><time>2026-04-11T11:29:17.98Z</time></trkpt><trkpt lat="43.0103317" lon="11.4254817"><ele>224.0</ele><time>2026-04-11T11:29:19.98Z</time></trkpt><trkpt lat="43.01036" lon="11.425565"><ele>224.0</ele><time>2026-04-11T11:29:21.98Z</time></trkpt><trkpt lat="43.0104" lon="11.4256783"><ele>224.00000000000003</ele><time>2026-04-11T11:29:24.979Z</time></trkpt><trkpt lat="43.0104333" lon="11.4257517"><ele>224.0</ele><time>2026-04-11T11:29:26.98Z</time></trkpt><trkpt lat="43.0104917" lon="11.4258583"><ele>224.42857142857144</ele><time>2026-04-11T11:29:29.98Z</time></trkpt><trkpt lat="43.010545" lon="11.425935"><ele>224.85714285714286</ele><time>2026-04-11T11:29:31.98Z</time></trkpt><trkpt lat="43.010595" lon="11.4260133"><ele>225.28571428571428</ele><time>2026-04-11T11:29:33.979Z</time></trkpt><trkpt lat="43.0106333" lon="11.4260867"><ele>225.71428571428572</ele><time>2026-04-11T11:29:35.979Z</time></trkpt><trkpt lat="43.010685" lon="11.426185"><ele>226.14285714285717</ele><time>2026-04-11T11:29:38.979Z</time></trkpt><trkpt lat="43.0107283" lon="11.426255"><ele>226.57142857142858</ele><time>2026-04-11T11:29:40.979Z</time></trkpt><trkpt lat="43.0107683" lon="11.4263233"><ele>227.0</ele><time>2026-04-11T11:29:42.979Z</time></trkpt><trkpt lat="43.0108233" lon="11.4264117"><ele>227.42857142857144</ele><time>2026-04-11T11:29:45.979Z</time></trkpt><trkpt lat="43.0108733" lon="11.4265233"><ele>227.8571428571429</ele><time>2026-04-11T11:29:48.98Z</time></trkpt><trkpt lat="43.01091" lon="11.4266033"><ele>228.28571428571428</ele><time>2026-04-11T11:29:50.98Z</time></trkpt><trkpt lat="43.0109317" lon="11.4266867"><ele>228.71428571428572</ele><time>2026-04-11T11:29:52.98Z</time></trkpt><trkpt lat="43.0109583" lon="11.4267667"><ele>229.14285714285714</ele><time>2026-04-11T11:29:54.979Z</time></trkpt><trkpt lat="43.0109967" lon="11.4268567"><ele>229.57142857142856</ele><time>2026-04-11T11:29:56.979Z</time></trkpt><trkpt lat="43.0110417" lon="11.426945"><ele>229.99999999999997</ele><time>2026-04-11T11:29:58.979Z</time></trkpt><trkpt lat="43.01109" lon="11.4270383"><ele>230.00000000000003</ele><time>2026-04-11T11:30:00.979Z</time></trkpt><trkpt lat="43.0111417" lon="11.427135"><ele>230.0</ele><time>2026-04-11T11:30:02.979Z</time></trkpt><trkpt lat="43.0111883" lon="11.4272183"><ele>230.0</ele><time>2026-04-11T11:30:04.979Z</time></trkpt><trkpt lat="43.01123" lon="11.4273033"><ele>230.0</ele><time>2026-04-11T11:30:06.98Z</time></trkpt><trkpt lat="43.01128" lon="11.4273933"><ele>230.00000000000003</ele><time>2026-04-11T11:30:08.979Z</time></trkpt><trkpt lat="43.01132" lon="11.4274917"><ele>230.0</ele><time>2026-04-11T11:30:10.98Z</time></trkpt><trkpt lat="43.0113683" lon="11.427575"><ele>229.33333333333334</ele><time>2026-04-11T11:30:12.98Z</time></trkpt><trkpt lat="43.01142" lon="11.4276317"><ele>228.66666666666669</ele><time>2026-04-11T11:30:14.979Z</time></trkpt><trkpt lat="43.01149" lon="11.427685"><ele>228.0</ele><time>2026-04-11T11:30:16.979Z</time></trkpt><trkpt lat="43.0115517" lon="11.42775"><ele>227.33333333333331</ele><time>2026-04-11T11:30:18.98Z</time></trkpt><trkpt lat="43.0116217" lon="11.4278383"><ele>226.66666666666666</ele><time>2026-04-11T11:30:21.979Z</time></trkpt><trkpt lat="43.011675" lon="11.4278867"><ele>226.0</ele><time>2026-04-11T11:30:23.979Z</time></trkpt><trkpt lat="43.01175" lon="11.4279433"><ele>226.33333333333331</ele><time>2026-04-11T11:30:25.979Z</time></trkpt><trkpt lat="43.0118283" lon="11.428015"><ele>226.66666666666666</ele><time>2026-04-11T11:30:27.979Z</time></trkpt><trkpt lat="43.0118867" lon="11.4280917"><ele>227.0</ele><time>2026-04-11T11:30:29.979Z</time></trkpt><trkpt lat="43.0119433" lon="11.428155"><ele>227.33333333333331</ele><time>2026-04-11T11:30:31.979Z</time></trkpt><trkpt lat="43.012" lon="11.4281967"><ele>227.66666666666666</ele><time>2026-04-11T11:30:33.979Z</time></trkpt><trkpt lat="43.01208" lon="11.428255"><ele>228.0</ele><time>2026-04-11T11:30:36.979Z</time></trkpt><trkpt lat="43.0121367" lon="11.4283"><ele>228.0</ele><time>2026-04-11T11:30:38.979Z</time></trkpt><trkpt lat="43.0121933" lon="11.4283583"><ele>227.99999999999997</ele><time>2026-04-11T11:30:40.98Z</time></trkpt><trkpt lat="43.0122483" lon="11.4284217"><ele>228.0</ele><time>2026-04-11T11:30:42.979Z</time></trkpt><trkpt lat="43.012305" lon="11.4284767"><ele>228.0</ele><time>2026-04-11T11:30:44.979Z</time></trkpt><trkpt lat="43.0123667" lon="11.428515"><ele>227.99999999999997</ele><time>2026-04-11T11:30:46.979Z</time></trkpt><trkpt lat="43.0124283" lon="11.4285483"><ele>228.0</ele><time>2026-04-11T11:30:48.979Z</time></trkpt><trkpt lat="43.0124967" lon="11.4285883"><ele>228.0</ele><time>2026-04-11T11:30:50.98Z</time></trkpt><trkpt lat="43.0125717" lon="11.4286117"><ele>229.0</ele><time>2026-04-11T11:30:52.979Z</time></trkpt><trkpt lat="43.0126683" lon="11.428655"><ele>230.0</ele><time>2026-04-11T11:30:54.979Z</time></trkpt><trkpt lat="43.0127717" lon="11.4286833"><ele>231.0</ele><time>2026-04-11T11:30:56.979Z</time></trkpt><trkpt lat="43.0128733" lon="11.42872"><ele>232.0</ele><time>2026-04-11T11:30:58.979Z</time></trkpt><trkpt lat="43.0129717" lon="11.4287667"><ele>233.0</ele><time>2026-04-11T11:31:00.979Z</time></trkpt><trkpt lat="43.013055" lon="11.4288"><ele>232.50000000000003</ele><time>2026-04-11T11:31:02.98Z</time></trkpt><trkpt lat="43.0131267" lon="11.428835"><ele>232.0</ele><time>2026-04-11T11:31:04.979Z</time></trkpt><trkpt lat="43.0132033" lon="11.428875"><ele>231.5</ele><time>2026-04-11T11:31:06.979Z</time></trkpt><trkpt lat="43.013285" lon="11.4289117"><ele>231.0</ele><time>2026-04-11T11:31:08.98Z</time></trkpt><trkpt lat="43.0133467" lon="11.4289383"><ele>230.50000000000003</ele><time>2026-04-11T11:31:10.979Z</time></trkpt><trkpt lat="43.0134067" lon="11.428985"><ele>230.0</ele><time>2026-04-11T11:31:12.979Z</time></trkpt><trkpt lat="43.0134783" lon="11.4290283"><ele>230.0</ele><time>2026-04-11T11:31:14.98Z</time></trkpt><trkpt lat="43.0135617" lon="11.429065"><ele>230.0</ele><time>2026-04-11T11:31:16.979Z</time></trkpt><trkpt lat="43.013635" lon="11.4291083"><ele>230.0</ele><time>2026-04-11T11:31:18.979Z</time></trkpt><trkpt lat="43.0137083" lon="11.42918"><ele>230.0</ele><time>2026-04-11T11:31:20.979Z</time></trkpt><trkpt lat="43.013775" lon="11.4292917"><ele>230.0</ele><time>2026-04-11T11:31:22.979Z</time></trkpt><trkpt lat="43.0138283" lon="11.4294183"><ele>230.00000000000003</ele><time>2026-04-11T11:31:24.979Z</time></trkpt><trkpt lat="43.01386" lon="11.429545"><ele>230.0</ele><time>2026-04-11T11:31:26.979Z</time></trkpt><trkpt lat="43.0138783" lon="11.42965"><ele>230.0</ele><time>2026-04-11T11:31:28.979Z</time></trkpt><trkpt lat="43.0139017" lon="11.429745"><ele>230.0</ele><time>2026-04-11T11:31:30.98Z</time></trkpt><trkpt lat="43.0139333" lon="11.4298417"><ele>230.00000000000003</ele><time>2026-04-11T11:31:32.979Z</time></trkpt><trkpt lat="43.0139533" lon="11.429945"><ele>230.0</ele><time>2026-04-11T11:31:34.979Z</time></trkpt><trkpt lat="43.0139767" lon="11.4300283"><ele>230.33333333333334</ele><time>2026-04-11T11:31:36.979Z</time></trkpt><trkpt lat="43.0140183" lon="11.4301333"><ele>230.66666666666669</ele><time>2026-04-11T11:31:39.979Z</time></trkpt><trkpt lat="43.0140583" lon="11.4302333"><ele>231.0</ele><time>2026-04-11T11:31:42.979Z</time></trkpt><trkpt lat="43.0140967" lon="11.43031"><ele>231.33333333333331</ele><time>2026-04-11T11:31:45.98Z</time></trkpt><trkpt lat="43.014165" lon="11.4303733"><ele>231.66666666666666</ele><time>2026-04-11T11:31:49.98Z</time></trkpt><trkpt lat="43.0142333" lon="11.4304333"><ele>232.0</ele><time>2026-04-11T11:31:53.979Z</time></trkpt><trkpt lat="43.0143083" lon="11.430465"><ele>233.33333333333331</ele><time>2026-04-11T11:31:56.979Z</time></trkpt><trkpt lat="43.0143733" lon="11.4305033"><ele>234.66666666666666</ele><time>2026-04-11T11:31:58.979Z</time></trkpt><trkpt lat="43.014445" lon="11.4305533"><ele>236.0</ele><time>2026-04-11T11:32:00.979Z</time></trkpt><trkpt lat="43.0145117" lon="11.430605"><ele>237.33333333333331</ele><time>2026-04-11T11:32:02.98Z</time></trkpt><trkpt lat="43.0145683" lon="11.4306933"><ele>238.66666666666666</ele><time>2026-04-11T11:32:04.98Z</time></trkpt><trkpt lat="43.01462" lon="11.4308067"><ele>240.0</ele><time>2026-04-11T11:32:06.979Z</time></trkpt><trkpt lat="43.0146633" lon="11.43093"><ele>240.0</ele><time>2026-04-11T11:32:08.979Z</time></trkpt><trkpt lat="43.0146917" lon="11.4310333"><ele>240.0</ele><time>2026-04-11T11:32:10.979Z</time></trkpt><trkpt lat="43.0147167" lon="11.431145"><ele>240.0</ele><time>2026-04-11T11:32:12.979Z</time></trkpt><trkpt lat="43.0147317" lon="11.4312483"><ele>240.0</ele><time>2026-04-11T11:32:14.98Z</time></trkpt><trkpt lat="43.01475" lon="11.4313433"><ele>240.0</ele><time>2026-04-11T11:32:16.979Z</time></trkpt><trkpt lat="43.0147683" lon="11.4314483"><ele>240.0</ele><time>2026-04-11T11:32:18.98Z</time></trkpt><trkpt lat="43.0147883" lon="11.4315683"><ele>240.71428571428572</ele><time>2026-04-11T11:32:21.979Z</time></trkpt><trkpt lat="43.0148017" lon="11.4316833"><ele>241.42857142857142</ele><time>2026-04-11T11:32:24.98Z</time></trkpt><trkpt lat="43.0148233" lon="11.4317917"><ele>242.14285714285714</ele><time>2026-04-11T11:32:27.98Z</time></trkpt><trkpt lat="43.0148367" lon="11.4318983"><ele>242.85714285714286</ele><time>2026-04-11T11:32:30.98Z</time></trkpt><trkpt lat="43.0148483" lon="11.4319933"><ele>243.57142857142856</ele><time>2026-04-11T11:32:33.979Z</time></trkpt><trkpt lat="43.014865" lon="11.4320783"><ele>244.28571428571428</ele><time>2026-04-11T11:32:36.98Z</time></trkpt><trkpt lat="43.0148767" lon="11.4321633"><ele>245.0</ele><time>2026-04-11T11:32:39.979Z</time></trkpt><trkpt lat="43.0149" lon="11.4322433"><ele>245.42857142857144</ele><time>2026-04-11T11:32:42.978Z</time></trkpt><trkpt lat="43.0149167" lon="11.43233"><ele>245.85714285714286</ele><time>2026-04-11T11:32:45.978Z</time></trkpt><trkpt lat="43.0149333" lon="11.4324167"><ele>246.28571428571428</ele><time>2026-04-11T11:32:48.978Z</time></trkpt><trkpt lat="43.0149467" lon="11.4325033"><ele>246.71428571428572</ele><time>2026-04-11T11:32:51.978Z</time></trkpt><trkpt lat="43.0149633" lon="11.43259"><ele>247.14285714285717</ele><time>2026-04-11T11:32:54.978Z</time></trkpt><trkpt lat="43.014975" lon="11.4326833"><ele>247.57142857142858</ele><time>2026-04-11T11:32:58.978Z</time></trkpt><trkpt lat="43.014975" lon="11.4327733"><ele>248.0</ele><time>2026-04-11T11:33:02.978Z</time></trkpt><trkpt lat="43.0149633" lon="11.4328667"><ele>248.0</ele><time>2026-04-11T11:33:06.978Z</time></trkpt><trkpt lat="43.0149567" lon="11.4329533"><ele>248.00000000000003</ele><time>2026-04-11T11:33:09.978Z</time></trkpt><trkpt lat="43.0149433" lon="11.43304"><ele>248.0</ele><time>2026-04-11T11:33:12.978Z</time></trkpt><trkpt lat="43.0149283" lon="11.4331317"><ele>248.0</ele><time>2026-04-11T11:33:15.978Z</time></trkpt><trkpt lat="43.014905" lon="11.4332233"><ele>248.00000000000003</ele><time>2026-04-11T11:33:18.978Z</time></trkpt><trkpt lat="43.0148783" lon="11.4333067"><ele>248.0</ele><time>2026-04-11T11:33:21.979Z</time></trkpt><trkpt lat="43.01485" lon="11.43339"><ele>248.0</ele><time>2026-04-11T11:33:24.979Z</time></trkpt><trkpt lat="43.01482" lon="11.4334667"><ele>248.42857142857144</ele><time>2026-04-11T11:33:27.978Z</time></trkpt><trkpt lat="43.0147833" lon="11.4335533"><ele>248.8571428571429</ele><time>2026-04-11T11:33:30.978Z</time></trkpt><trkpt lat="43.0147467" lon="11.4336367"><ele>249.28571428571428</ele><time>2026-04-11T11:33:33.978Z</time></trkpt><trkpt lat="43.014715" lon="11.4337367"><ele>249.71428571428572</ele><time>2026-04-11T11:33:37.979Z</time></trkpt><trkpt lat="43.014695" lon="11.4338333"><ele>250.14285714285714</ele><time>2026-04-11T11:33:41.978Z</time></trkpt><trkpt lat="43.0146767" lon="11.4339283"><ele>250.57142857142856</ele><time>2026-04-11T11:33:45.978Z</time></trkpt><trkpt lat="43.01468" lon="11.4340367"><ele>250.99999999999997</ele><time>2026-04-11T11:33:49.978Z</time></trkpt><trkpt lat="43.0146833" lon="11.4341283"><ele>251.66666666666669</ele><time>2026-04-11T11:33:52.978Z</time></trkpt><trkpt lat="43.0146917" lon="11.4342183"><ele>252.33333333333334</ele><time>2026-04-11T11:33:55.978Z</time></trkpt><trkpt lat="43.014705" lon="11.4343283"><ele>253.0</ele><time>2026-04-11T11:33:59.978Z</time></trkpt><trkpt lat="43.0147267" lon="11.4344367"><ele>253.66666666666669</ele><time>2026-04-11T11:34:03.979Z</time></trkpt><trkpt lat="43.014745" lon="11.4345267"><ele>254.33333333333334</ele><time>2026-04-11T11:34:07.978Z</time></trkpt><trkpt lat="43.0147567" lon="11.4346367"><ele>255.0</ele><time>2026-04-11T11:34:11.978Z</time></trkpt><trkpt lat="43.0147633" lon="11.434745"><ele>255.16666666666666</ele><time>2026-04-11T11:34:15.978Z</time></trkpt><trkpt lat="43.01477" lon="11.4348433"><ele>255.33333333333331</ele><time>2026-04-11T11:34:19.978Z</time></trkpt><trkpt lat="43.0147733" lon="11.4349383"><ele>255.5</ele><time>2026-04-11T11:34:23.979Z</time></trkpt><trkpt lat="43.0147867" lon="11.4350483"><ele>255.66666666666666</ele><time>2026-04-11T11:34:27.978Z</time></trkpt><trkpt lat="43.0148067" lon="11.435145"><ele>255.83333333333331</ele><time>2026-04-11T11:34:31.978Z</time></trkpt><trkpt lat="43.0148267" lon="11.4352433"><ele>256.0</ele><time>2026-04-11T11:34:35.979Z</time></trkpt><trkpt lat="43.0148383" lon="11.435355"><ele>256.0</ele><time>2026-04-11T11:34:39.978Z</time></trkpt><trkpt lat="43.0148467" lon="11.43547"><ele>255.99999999999997</ele><time>2026-04-11T11:34:43.978Z</time></trkpt><trkpt lat="43.0148383" lon="11.43556"><ele>256.0</ele><time>2026-04-11T11:34:46.978Z</time></trkpt><trkpt lat="43.014835" lon="11.43566"><ele>256.0</ele><time>2026-04-11T11:34:50.979Z</time></trkpt><trkpt lat="43.0148533" lon="11.4357433"><ele>255.99999999999997</ele><time>2026-04-11T11:34:54.978Z</time></trkpt><trkpt lat="43.014855" lon="11.4358333"><ele>256.0</ele><time>2026-04-11T11:34:58.978Z</time></trkpt><trkpt lat="43.0148583" lon="11.43592"><ele>256.0</ele><time>2026-04-11T11:35:02.978Z</time></trkpt><trkpt lat="43.014855" lon="11.43601"><ele>256.16666666666663</ele><time>2026-04-11T11:35:06.979Z</time></trkpt><trkpt lat="43.0148717" lon="11.4361133"><ele>256.3333333333333</ele><time>2026-04-11T11:35:11.978Z</time></trkpt><trkpt lat="43.014875" lon="11.436215"><ele>256.5</ele><time>2026-04-11T11:35:15.978Z</time></trkpt><trkpt lat="43.0148733" lon="11.4363217"><ele>256.6666666666667</ele><time>2026-04-11T11:35:19.978Z</time></trkpt><trkpt lat="43.0148767" lon="11.4364267"><ele>256.83333333333337</ele><time>2026-04-11T11:35:23.978Z</time></trkpt><trkpt lat="43.014885" lon="11.4365333"><ele>257.0</ele><time>2026-04-11T11:35:27.978Z</time></trkpt><trkpt lat="43.0148933" lon="11.436635"><ele>257.33333333333337</ele><time>2026-04-11T11:35:31.978Z</time></trkpt><trkpt lat="43.0149017" lon="11.4367367"><ele>257.6666666666667</ele><time>2026-04-11T11:35:36.978Z</time></trkpt><trkpt lat="43.0149" lon="11.4368383"><ele>258.0</ele><time>2026-04-11T11:35:40.978Z</time></trkpt><trkpt lat="43.01491" lon="11.4369467"><ele>258.3333333333333</ele><time>2026-04-11T11:35:44.978Z</time></trkpt><trkpt lat="43.0149183" lon="11.4370617"><ele>258.66666666666663</ele><time>2026-04-11T11:35:48.978Z</time></trkpt><trkpt lat="43.0149267" lon="11.4371517"><ele>259.0</ele><time>2026-04-11T11:35:51.978Z</time></trkpt><trkpt lat="43.01495" lon="11.4372617"><ele>259.42857142857144</ele><time>2026-04-11T11:35:55.978Z</time></trkpt><trkpt lat="43.0149633" lon="11.4373483"><ele>259.8571428571429</ele><time>2026-04-11T11:35:58.978Z</time></trkpt><trkpt lat="43.014995" lon="11.4374417"><ele>260.2857142857143</ele><time>2026-04-11T11:36:02.978Z</time></trkpt><trkpt lat="43.0150417" lon="11.4375333"><ele>260.7142857142857</ele><time>2026-04-11T11:36:06.978Z</time></trkpt><trkpt lat="43.0150633" lon="11.437615"><ele>261.14285714285717</ele><time>2026-04-11T11:36:09.978Z</time></trkpt><trkpt lat="43.0151" lon="11.4377167"><ele>261.57142857142856</ele><time>2026-04-11T11:36:13.978Z</time></trkpt><trkpt lat="43.0151367" lon="11.43781"><ele>262.0</ele><time>2026-04-11T11:36:17.979Z</time></trkpt><trkpt lat="43.0151767" lon="11.437905"><ele>263.7142857142857</ele><time>2026-04-11T11:36:21.978Z</time></trkpt><trkpt lat="43.0152117" lon="11.4379917"><ele>265.42857142857144</ele><time>2026-04-11T11:36:25.979Z</time></trkpt><trkpt lat="43.015255" lon="11.43807"><ele>267.14285714285717</ele><time>2026-04-11T11:36:28.979Z</time></trkpt><trkpt lat="43.01529" lon="11.4381583"><ele>268.8571428571429</ele><time>2026-04-11T11:36:31.978Z</time></trkpt><trkpt lat="43.015335" lon="11.438245"><ele>270.57142857142856</ele><time>2026-04-11T11:36:34.977Z</time></trkpt><trkpt lat="43.0153767" lon="11.4383217"><ele>272.28571428571433</ele><time>2026-04-11T11:36:37.977Z</time></trkpt><trkpt lat="43.0154133" lon="11.4384083"><ele>274.0</ele><time>2026-04-11T11:36:40.977Z</time></trkpt><trkpt lat="43.015445" lon="11.438495"><ele>274.00000000000006</ele><time>2026-04-11T11:36:43.977Z</time></trkpt><trkpt lat="43.0154867" lon="11.4385717"><ele>274.0</ele><time>2026-04-11T11:36:46.977Z</time></trkpt><trkpt lat="43.0155217" lon="11.438665"><ele>274.0</ele><time>2026-04-11T11:36:50.977Z</time></trkpt><trkpt lat="43.015545" lon="11.4387617"><ele>274.0</ele><time>2026-04-11T11:37:30.977Z</time></trkpt><trkpt lat="43.0155733" lon="11.43884"><ele>274.0</ele><time>2026-04-11T11:37:40.977Z</time></trkpt><trkpt lat="43.01561" lon="11.4389283"><ele>274.00000000000006</ele><time>2026-04-11T11:38:08.977Z</time></trkpt><trkpt lat="43.0156333" lon="11.4390283"><ele>274.0</ele><time>2026-04-11T11:38:13.978Z</time></trkpt><trkpt lat="43.0156683" lon="11.4391317"><ele>274.5714285714286</ele><time>2026-04-11T11:38:17.977Z</time></trkpt><trkpt lat="43.01569" lon="11.4392417"><ele>275.14285714285717</ele><time>2026-04-11T11:38:21.978Z</time></trkpt><trkpt lat="43.01571" lon="11.4393517"><ele>275.7142857142857</ele><time>2026-04-11T11:38:25.977Z</time></trkpt><trkpt lat="43.0157317" lon="11.439435"><ele>276.28571428571433</ele><time>2026-04-11T11:38:28.977Z</time></trkpt><trkpt lat="43.0157583" lon="11.4395233"><ele>276.8571428571429</ele><time>2026-04-11T11:38:31.977Z</time></trkpt><trkpt lat="43.0157767" lon="11.439615"><ele>277.42857142857144</ele><time>2026-04-11T11:38:34.978Z</time></trkpt><trkpt lat="43.015795" lon="11.4397167"><ele>278.0</ele><time>2026-04-11T11:38:37.977Z</time></trkpt><trkpt lat="43.0158267" lon="11.4398067"><ele>278.7142857142857</ele><time>2026-04-11T11:38:40.977Z</time></trkpt><trkpt lat="43.015855" lon="11.4398933"><ele>279.42857142857144</ele><time>2026-04-11T11:38:43.977Z</time></trkpt><trkpt lat="43.0158867" lon="11.4399767"><ele>280.14285714285717</ele><time>2026-04-11T11:38:46.977Z</time></trkpt><trkpt lat="43.0158967" lon="11.4400667"><ele>280.8571428571429</ele><time>2026-04-11T11:38:49.978Z</time></trkpt><trkpt lat="43.0159167" lon="11.44015"><ele>281.5714285714286</ele><time>2026-04-11T11:38:52.977Z</time></trkpt><trkpt lat="43.0159467" lon="11.44023"><ele>282.2857142857143</ele><time>2026-04-11T11:38:55.978Z</time></trkpt><trkpt lat="43.0159783" lon="11.4403267"><ele>283.0</ele><time>2026-04-11T11:38:59.978Z</time></trkpt><trkpt lat="43.0160167" lon="11.4404133"><ele>284.0</ele><time>2026-04-11T11:39:02.977Z</time></trkpt><trkpt lat="43.0160467" lon="11.4404967"><ele>285.0</ele><time>2026-04-11T11:39:05.977Z</time></trkpt><trkpt lat="43.0160767" lon="11.440595"><ele>286.0</ele><time>2026-04-11T11:39:09.977Z</time></trkpt><trkpt lat="43.016115" lon="11.4406967"><ele>287.0</ele><time>2026-04-11T11:39:13.978Z</time></trkpt><trkpt lat="43.0160867" lon="11.44078"><ele>288.0</ele><time>2026-04-11T11:39:16.977Z</time></trkpt><trkpt lat="43.016035" lon="11.4408317"><ele>289.0</ele><time>2026-04-11T11:39:19.978Z</time></trkpt><trkpt lat="43.0159617" lon="11.4408633"><ele>290.0</ele><time>2026-04-11T11:39:22.977Z</time></trkpt><trkpt lat="43.0158817" lon="11.4408617"><ele>289.1666666666667</ele><time>2026-04-11T11:39:26.977Z</time></trkpt><trkpt lat="43.0158" lon="11.440875"><ele>288.33333333333337</ele><time>2026-04-11T11:39:54.977Z</time></trkpt><trkpt lat="43.015725" lon="11.4408633"><ele>287.5</ele><time>2026-04-11T11:39:57.977Z</time></trkpt><trkpt lat="43.0156517" lon="11.4408483"><ele>286.6666666666667</ele><time>2026-04-11T11:40:00.978Z</time></trkpt><trkpt lat="43.015575" lon="11.4408267"><ele>285.8333333333333</ele><time>2026-04-11T11:40:03.978Z</time></trkpt><trkpt lat="43.015495" lon="11.4408083"><ele>285.0</ele><time>2026-04-11T11:40:06.977Z</time></trkpt><trkpt lat="43.01542" lon="11.4407933"><ele>285.0</ele><time>2026-04-11T11:40:09.977Z</time></trkpt><trkpt lat="43.0153433" lon="11.4407767"><ele>285.0</ele><time>2026-04-11T11:40:12.978Z</time></trkpt><trkpt lat="43.0152433" lon="11.4407667"><ele>285.0</ele><time>2026-04-11T11:40:15.977Z</time></trkpt><trkpt lat="43.0151583" lon="11.44076"><ele>285.0</ele><time>2026-04-11T11:40:17.977Z</time></trkpt><trkpt lat="43.0150817" lon="11.4407583"><ele>285.0</ele><time>2026-04-11T11:40:19.977Z</time></trkpt><trkpt lat="43.0149967" lon="11.4407567"><ele>285.0</ele><time>2026-04-11T11:40:21.977Z</time></trkpt><trkpt lat="43.0148917" lon="11.4407483"><ele>284.0</ele><time>2026-04-11T11:40:23.977Z</time></trkpt><trkpt lat="43.0147817" lon="11.44074"><ele>283.0</ele><time>2026-04-11T11:40:25.977Z</time></trkpt><trkpt lat="43.0146633" lon="11.4407333"><ele>282.0</ele><time>2026-04-11T11:40:27.977Z</time></trkpt><trkpt lat="43.0145383" lon="11.440725"><ele>281.0</ele><time>2026-04-11T11:40:29.977Z</time></trkpt><trkpt lat="43.0144167" lon="11.4407183"><ele>281.0</ele><time>2026-04-11T11:40:31.978Z</time></trkpt><trkpt lat="43.0143033" lon="11.4406983"><ele>281.0</ele><time>2026-04-11T11:40:33.977Z</time></trkpt><trkpt lat="43.0142017" lon="11.4406733"><ele>281.0</ele><time>2026-04-11T11:40:35.977Z</time></trkpt><trkpt lat="43.0141167" lon="11.4406467"><ele>281.0</ele><time>2026-04-11T11:40:37.976Z</time></trkpt><trkpt lat="43.0140517" lon="11.440605"><ele>281.0</ele><time>2026-04-11T11:40:39.976Z</time></trkpt><trkpt lat="43.0140283" lon="11.4405083"><ele>280.14285714285717</ele><time>2026-04-11T11:40:56.981Z</time></trkpt><trkpt lat="43.013965" lon="11.4405283"><ele>279.2857142857143</ele><time>2026-04-11T11:41:35.981Z</time></trkpt><trkpt lat="43.013905" lon="11.4404967"><ele>278.42857142857144</ele><time>2026-04-11T11:41:37.982Z</time></trkpt><trkpt lat="43.0138433" lon="11.4404483"><ele>277.57142857142856</ele><time>2026-04-11T11:41:39.981Z</time></trkpt><trkpt lat="43.0137883" lon="11.4403833"><ele>276.7142857142857</ele><time>2026-04-11T11:41:41.981Z</time></trkpt><trkpt lat="43.0137367" lon="11.4403133"><ele>275.8571428571429</ele><time>2026-04-11T11:41:43.981Z</time></trkpt><trkpt lat="43.0136783" lon="11.4402267"><ele>275.0</ele><time>2026-04-11T11:41:45.981Z</time></trkpt><trkpt lat="43.0136183" lon="11.4401283"><ele>275.0</ele><time>2026-04-11T11:41:47.982Z</time></trkpt><trkpt lat="43.01355" lon="11.4400383"><ele>275.0</ele><time>2026-04-11T11:41:49.982Z</time></trkpt><trkpt lat="43.0134817" lon="11.4399367"><ele>275.0</ele><time>2026-04-11T11:41:51.981Z</time></trkpt><trkpt lat="43.0134067" lon="11.4398383"><ele>275.0</ele><time>2026-04-11T11:41:53.981Z</time></trkpt><trkpt lat="43.0133333" lon="11.4397417"><ele>275.0</ele><time>2026-04-11T11:41:55.981Z</time></trkpt><trkpt lat="43.0132667" lon="11.4396367"><ele>274.8</ele><time>2026-04-11T11:41:57.981Z</time></trkpt><trkpt lat="43.0131983" lon="11.439535"><ele>274.6</ele><time>2026-04-11T11:41:59.981Z</time></trkpt><trkpt lat="43.013135" lon="11.4394383"><ele>274.4</ele><time>2026-04-11T11:42:01.981Z</time></trkpt><trkpt lat="43.013065" lon="11.439345"><ele>274.2</ele><time>2026-04-11T11:42:03.981Z</time></trkpt><trkpt lat="43.013" lon="11.4392483"><ele>274.0</ele><time>2026-04-11T11:42:05.981Z</time></trkpt><trkpt lat="43.0129367" lon="11.4391333"><ele>274.0</ele><time>2026-04-11T11:42:07.981Z</time></trkpt><trkpt lat="43.0128667" lon="11.439015"><ele>274.0</ele><time>2026-04-11T11:42:09.981Z</time></trkpt><trkpt lat="43.0127983" lon="11.43891"><ele>274.0</ele><time>2026-04-11T11:42:11.981Z</time></trkpt><trkpt lat="43.01273" lon="11.4388133"><ele>274.0</ele><time>2026-04-11T11:42:13.982Z</time></trkpt><trkpt lat="43.0126633" lon="11.43872"><ele>274.0</ele><time>2026-04-11T11:42:15.981Z</time></trkpt><trkpt lat="43.012595" lon="11.4386333"><ele>274.4</ele><time>2026-04-11T11:42:17.982Z</time></trkpt><trkpt lat="43.0125283" lon="11.4385483"><ele>274.79999999999995</ele><time>2026-04-11T11:42:19.981Z</time></trkpt><trkpt lat="43.0124683" lon="11.43844"><ele>275.20000000000005</ele><time>2026-04-11T11:42:21.981Z</time></trkpt><trkpt lat="43.0124033" lon="11.43834"><ele>275.6</ele><time>2026-04-11T11:42:23.981Z</time></trkpt><trkpt lat="43.012335" lon="11.4382283"><ele>276.0</ele><time>2026-04-11T11:42:25.98Z</time></trkpt><trkpt lat="43.01226" lon="11.4381133"><ele>276.0</ele><time>2026-04-11T11:42:27.981Z</time></trkpt><trkpt lat="43.0121883" lon="11.43799"><ele>276.0</ele><time>2026-04-11T11:42:29.98Z</time></trkpt><trkpt lat="43.0121283" lon="11.4378867"><ele>276.0</ele><time>2026-04-11T11:42:31.981Z</time></trkpt><trkpt lat="43.0120667" lon="11.4377833"><ele>276.0</ele><time>2026-04-11T11:42:33.98Z</time></trkpt><trkpt lat="43.0120067" lon="11.4376917"><ele>276.0</ele><time>2026-04-11T11:42:35.98Z</time></trkpt><trkpt lat="43.0119483" lon="11.4376083"><ele>276.3333333333333</ele><time>2026-04-11T11:42:37.98Z</time></trkpt><trkpt lat="43.0119067" lon="11.437535"><ele>276.6666666666667</ele><time>2026-04-11T11:42:39.98Z</time></trkpt><trkpt lat="43.01187" lon="11.43746"><ele>277.0</ele><time>2026-04-11T11:42:41.98Z</time></trkpt><trkpt lat="43.01181" lon="11.4373633"><ele>277.33333333333337</ele><time>2026-04-11T11:42:44.98Z</time></trkpt><trkpt lat="43.01177" lon="11.4372867"><ele>277.6666666666667</ele><time>2026-04-11T11:42:46.98Z</time></trkpt><trkpt lat="43.01173" lon="11.4372167"><ele>278.0</ele><time>2026-04-11T11:42:48.98Z</time></trkpt><trkpt lat="43.0116733" lon="11.437115"><ele>278.33333333333337</ele><time>2026-04-11T11:42:51.98Z</time></trkpt><trkpt lat="43.0116217" lon="11.4370233"><ele>278.6666666666667</ele><time>2026-04-11T11:42:54.98Z</time></trkpt><trkpt lat="43.0115633" lon="11.4369367"><ele>279.0</ele><time>2026-04-11T11:42:57.981Z</time></trkpt><trkpt lat="43.0115" lon="11.4368367"><ele>279.3333333333333</ele><time>2026-04-11T11:43:00.98Z</time></trkpt><trkpt lat="43.01145" lon="11.4367633"><ele>279.66666666666663</ele><time>2026-04-11T11:43:02.98Z</time></trkpt><trkpt lat="43.0113933" lon="11.43668"><ele>280.0</ele><time>2026-04-11T11:43:04.98Z</time></trkpt><trkpt lat="43.011335" lon="11.4365933"><ele>280.0</ele><time>2026-04-11T11:43:06.98Z</time></trkpt><trkpt lat="43.0112833" lon="11.4365117"><ele>280.0</ele><time>2026-04-11T11:43:08.98Z</time></trkpt><trkpt lat="43.0112367" lon="11.4364333"><ele>280.0</ele><time>2026-04-11T11:43:10.98Z</time></trkpt><trkpt lat="43.0111867" lon="11.4363367"><ele>280.0</ele><time>2026-04-11T11:43:13.981Z</time></trkpt><trkpt lat="43.0111333" lon="11.4362417"><ele>280.0</ele><time>2026-04-11T11:43:16.98Z</time></trkpt><trkpt lat="43.0110867" lon="11.4361733"><ele>280.0</ele><time>2026-04-11T11:43:18.98Z</time></trkpt><trkpt lat="43.01104" lon="11.4360967"><ele>279.85714285714283</ele><time>2026-04-11T11:43:20.98Z</time></trkpt><trkpt lat="43.0109967" lon="11.4360217"><ele>279.7142857142857</ele><time>2026-04-11T11:43:22.98Z</time></trkpt><trkpt lat="43.0109333" lon="11.43601"><ele>279.57142857142856</ele><time>2026-04-11T11:43:43.981Z</time></trkpt><trkpt lat="43.0109183" lon="11.435925"><ele>279.42857142857144</ele><time>2026-04-11T11:45:02.98Z</time></trkpt><trkpt lat="43.0108683" lon="11.43586"><ele>279.2857142857143</ele><time>2026-04-11T11:45:04.981Z</time></trkpt><trkpt lat="43.01081" lon="11.4357783"><ele>279.1428571428571</ele><time>2026-04-11T11:45:06.981Z</time></trkpt><trkpt lat="43.0107517" lon="11.4356883"><ele>279.0</ele><time>2026-04-11T11:45:08.98Z</time></trkpt><trkpt lat="43.0106967" lon="11.4355983"><ele>278.8</ele><time>2026-04-11T11:45:10.981Z</time></trkpt><trkpt lat="43.0106233" lon="11.4354967"><ele>278.59999999999997</ele><time>2026-04-11T11:45:12.98Z</time></trkpt><trkpt lat="43.010535" lon="11.435375"><ele>278.4</ele><time>2026-04-11T11:45:14.98Z</time></trkpt><trkpt lat="43.0104817" lon="11.4353183"><ele>278.2</ele><time>2026-04-11T11:45:15.981Z</time></trkpt><trkpt lat="43.0104167" lon="11.435265"><ele>278.0</ele><time>2026-04-11T11:45:16.98Z</time></trkpt><trkpt lat="43.01035" lon="11.4352133"><ele>277.83333333333337</ele><time>2026-04-11T11:45:17.98Z</time></trkpt><trkpt lat="43.010285" lon="11.4351633"><ele>277.6666666666667</ele><time>2026-04-11T11:45:18.98Z</time></trkpt><trkpt lat="43.01021" lon="11.4351133"><ele>277.5</ele><time>2026-04-11T11:45:19.98Z</time></trkpt><trkpt lat="43.010135" lon="11.43506"><ele>277.3333333333333</ele><time>2026-04-11T11:45:20.98Z</time></trkpt><trkpt lat="43.0100517" lon="11.4350083"><ele>277.16666666666663</ele><time>2026-04-11T11:45:21.98Z</time></trkpt><trkpt lat="43.00997" lon="11.4349517"><ele>277.0</ele><time>2026-04-11T11:45:22.98Z</time></trkpt><trkpt lat="43.009885" lon="11.4349017"><ele>277.16666666666663</ele><time>2026-04-11T11:45:23.98Z</time></trkpt><trkpt lat="43.0098017" lon="11.4348517"><ele>277.3333333333333</ele><time>2026-04-11T11:45:24.981Z</time></trkpt><trkpt lat="43.0097217" lon="11.4348"><ele>277.5</ele><time>2026-04-11T11:45:25.981Z</time></trkpt><trkpt lat="43.0096417" lon="11.4347467"><ele>277.6666666666667</ele><time>2026-04-11T11:45:26.98Z</time></trkpt><trkpt lat="43.0095667" lon="11.4346983"><ele>277.83333333333337</ele><time>2026-04-11T11:45:27.98Z</time></trkpt><trkpt lat="43.0094833" lon="11.4346417"><ele>278.0</ele><time>2026-04-11T11:45:28.98Z</time></trkpt><trkpt lat="43.0094117" lon="11.4346017"><ele>278.0</ele><time>2026-04-11T11:45:29.98Z</time></trkpt><trkpt lat="43.009355" lon="11.4345617"><ele>278.0</ele><time>2026-04-11T11:45:30.981Z</time></trkpt><trkpt lat="43.0092917" lon="11.434525"><ele>278.0</ele><time>2026-04-11T11:45:31.98Z</time></trkpt><trkpt lat="43.0092283" lon="11.4344867"><ele>278.0</ele><time>2026-04-11T11:45:32.98Z</time></trkpt><trkpt lat="43.0091667" lon="11.4344483"><ele>278.0</ele><time>2026-04-11T11:45:33.98Z</time></trkpt><trkpt lat="43.0091117" lon="11.434405"><ele>278.0</ele><time>2026-04-11T11:45:34.981Z</time></trkpt><trkpt lat="43.009005" lon="11.4343333"><ele>277.2</ele><time>2026-04-11T11:45:36.98Z</time></trkpt><trkpt lat="43.008915" lon="11.43426"><ele>276.4</ele><time>2026-04-11T11:45:38.981Z</time></trkpt><trkpt lat="43.0088217" lon="11.43419"><ele>275.59999999999997</ele><time>2026-04-11T11:45:40.98Z</time></trkpt><trkpt lat="43.008745" lon="11.4341283"><ele>274.8</ele><time>2026-04-11T11:45:42.98Z</time></trkpt><trkpt lat="43.00868" lon="11.4340567"><ele>274.0</ele><time>2026-04-11T11:45:44.98Z</time></trkpt><trkpt lat="43.0085983" lon="11.4339917"><ele>274.0</ele><time>2026-04-11T11:45:46.98Z</time></trkpt><trkpt lat="43.0085233" lon="11.433935"><ele>274.0</ele><time>2026-04-11T11:45:48.981Z</time></trkpt><trkpt lat="43.0084467" lon="11.4338883"><ele>274.0</ele><time>2026-04-11T11:45:51.98Z</time></trkpt><trkpt lat="43.0083883" lon="11.4338333"><ele>274.0</ele><time>2026-04-11T11:45:54.98Z</time></trkpt><trkpt lat="43.0083467" lon="11.43376"><ele>274.0</ele><time>2026-04-11T11:45:57.98Z</time></trkpt><trkpt lat="43.0082633" lon="11.4337383"><ele>274.0</ele><time>2026-04-11T11:46:01.98Z</time></trkpt><trkpt lat="43.0081867" lon="11.4337167"><ele>274.0</ele><time>2026-04-11T11:46:04.98Z</time></trkpt><trkpt lat="43.008095" lon="11.4336933"><ele>274.0</ele><time>2026-04-11T11:46:07.98Z</time></trkpt><trkpt lat="43.0080267" lon="11.4336633"><ele>274.0</ele><time>2026-04-11T11:46:09.981Z</time></trkpt><trkpt lat="43.0079517" lon="11.43362"><ele>274.0</ele><time>2026-04-11T11:46:11.981Z</time></trkpt><trkpt lat="43.0078717" lon="11.4335567"><ele>274.0</ele><time>2026-04-11T11:46:13.98Z</time></trkpt><trkpt lat="43.007785" lon="11.4334967"><ele>274.0</ele><time>2026-04-11T11:46:15.98Z</time></trkpt><trkpt lat="43.0076933" lon="11.4334367"><ele>274.0</ele><time>2026-04-11T11:46:17.979Z</time></trkpt><trkpt lat="43.0075983" lon="11.4333883"><ele>274.0</ele><time>2026-04-11T11:46:19.979Z</time></trkpt><trkpt lat="43.007505" lon="11.4333267"><ele>274.0</ele><time>2026-04-11T11:46:21.979Z</time></trkpt><trkpt lat="43.0074083" lon="11.43327"><ele>274.0</ele><time>2026-04-11T11:46:23.979Z</time></trkpt><trkpt lat="43.0073067" lon="11.43321"><ele>274.0</ele><time>2026-04-11T11:46:25.979Z</time></trkpt><trkpt lat="43.007215" lon="11.4331567"><ele>274.0</ele><time>2026-04-11T11:46:27.979Z</time></trkpt><trkpt lat="43.007125" lon="11.4330867"><ele>274.0</ele><time>2026-04-11T11:46:29.98Z</time></trkpt><trkpt lat="43.0070267" lon="11.43303"><ele>274.0</ele><time>2026-04-11T11:46:31.979Z</time></trkpt><trkpt lat="43.0069283" lon="11.4329917"><ele>274.0</ele><time>2026-04-11T11:46:33.979Z</time></trkpt><trkpt lat="43.006825" lon="11.43294"><ele>274.0</ele><time>2026-04-11T11:46:35.98Z</time></trkpt><trkpt lat="43.0067317" lon="11.432875"><ele>274.0</ele><time>2026-04-11T11:46:37.979Z</time></trkpt><trkpt lat="43.0066417" lon="11.4328217"><ele>274.0</ele><time>2026-04-11T11:46:39.98Z</time></trkpt><trkpt lat="43.0065517" lon="11.4327633"><ele>274.0</ele><time>2026-04-11T11:46:41.979Z</time></trkpt><trkpt lat="43.0064517" lon="11.4327067"><ele>274.0</ele><time>2026-04-11T11:46:43.98Z</time></trkpt><trkpt lat="43.0063533" lon="11.43265"><ele>274.0</ele><time>2026-04-11T11:46:45.98Z</time></trkpt><trkpt lat="43.0062617" lon="11.4325917"><ele>274.0</ele><time>2026-04-11T11:46:47.979Z</time></trkpt><trkpt lat="43.006165" lon="11.432535"><ele>274.0</ele><time>2026-04-11T11:46:49.979Z</time></trkpt><trkpt lat="43.0060733" lon="11.4324833"><ele>274.0</ele><time>2026-04-11T11:46:51.98Z</time></trkpt><trkpt lat="43.0059833" lon="11.4324333"><ele>274.0</ele><time>2026-04-11T11:46:53.98Z</time></trkpt><trkpt lat="43.0059067" lon="11.4323833"><ele>274.0</ele><time>2026-04-11T11:46:55.98Z</time></trkpt><trkpt lat="43.0058417" lon="11.432355"><ele>274.00000000000006</ele><time>2026-04-11T11:46:57.979Z</time></trkpt><trkpt lat="43.0057733" lon="11.4323167"><ele>274.0</ele><time>2026-04-11T11:46:59.979Z</time></trkpt><trkpt lat="43.0057133" lon="11.4322733"><ele>274.0</ele><time>2026-04-11T11:47:01.979Z</time></trkpt><trkpt lat="43.0056467" lon="11.43223"><ele>274.0</ele><time>2026-04-11T11:47:03.98Z</time></trkpt><trkpt lat="43.005575" lon="11.4321967"><ele>274.0</ele><time>2026-04-11T11:47:05.979Z</time></trkpt><trkpt lat="43.0055083" lon="11.432155"><ele>274.00000000000006</ele><time>2026-04-11T11:47:07.979Z</time></trkpt><trkpt lat="43.0054433" lon="11.43211"><ele>274.0</ele><time>2026-04-11T11:47:09.98Z</time></trkpt><trkpt lat="43.0053717" lon="11.4320767"><ele>274.0</ele><time>2026-04-11T11:47:11.979Z</time></trkpt><trkpt lat="43.0052967" lon="11.432035"><ele>274.0</ele><time>2026-04-11T11:47:13.979Z</time></trkpt><trkpt lat="43.0052283" lon="11.4319983"><ele>274.0</ele><time>2026-04-11T11:47:15.979Z</time></trkpt><trkpt lat="43.0051633" lon="11.431955"><ele>274.0</ele><time>2026-04-11T11:47:17.979Z</time></trkpt><trkpt lat="43.0050967" lon="11.4319133"><ele>274.0</ele><time>2026-04-11T11:47:19.98Z</time></trkpt><trkpt lat="43.0050267" lon="11.4318667"><ele>274.0</ele><time>2026-04-11T11:47:21.979Z</time></trkpt><trkpt lat="43.0049583" lon="11.4318217"><ele>274.0</ele><time>2026-04-11T11:47:23.979Z</time></trkpt><trkpt lat="43.0048817" lon="11.4317883"><ele>274.0</ele><time>2026-04-11T11:47:25.979Z</time></trkpt><trkpt lat="43.00481" lon="11.431745"><ele>274.0</ele><time>2026-04-11T11:47:27.979Z</time></trkpt><trkpt lat="43.0047367" lon="11.4317133"><ele>274.0</ele><time>2026-04-11T11:47:29.979Z</time></trkpt><trkpt lat="43.0046583" lon="11.431675"><ele>274.0</ele><time>2026-04-11T11:47:31.98Z</time></trkpt><trkpt lat="43.0045817" lon="11.4316317"><ele>274.0</ele><time>2026-04-11T11:47:33.98Z</time></trkpt><trkpt lat="43.004505" lon="11.431585"><ele>274.0</ele><time>2026-04-11T11:47:35.979Z</time></trkpt><trkpt lat="43.004425" lon="11.4315467"><ele>274.0</ele><time>2026-04-11T11:47:37.979Z</time></trkpt><trkpt lat="43.0043467" lon="11.431505"><ele>274.0</ele><time>2026-04-11T11:47:39.979Z</time></trkpt><trkpt lat="43.0042617" lon="11.43145"><ele>274.0</ele><time>2026-04-11T11:47:41.979Z</time></trkpt><trkpt lat="43.0041717" lon="11.4314083"><ele>274.0</ele><time>2026-04-11T11:47:43.979Z</time></trkpt><trkpt lat="43.0040833" lon="11.4313633"><ele>273.4</ele><time>2026-04-11T11:47:45.979Z</time></trkpt><trkpt lat="43.00399" lon="11.4313133"><ele>272.79999999999995</ele><time>2026-04-11T11:47:47.98Z</time></trkpt><trkpt lat="43.0039017" lon="11.4312633"><ele>272.20000000000005</ele><time>2026-04-11T11:47:49.98Z</time></trkpt><trkpt lat="43.0038133" lon="11.4312183"><ele>271.6</ele><time>2026-04-11T11:47:51.979Z</time></trkpt><trkpt lat="43.0037183" lon="11.43118"><ele>271.0</ele><time>2026-04-11T11:47:53.98Z</time></trkpt><trkpt lat="43.00363" lon="11.4311283"><ele>271.0</ele><time>2026-04-11T11:47:55.979Z</time></trkpt><trkpt lat="43.0035333" lon="11.4310783"><ele>271.0</ele><time>2026-04-11T11:47:57.98Z</time></trkpt><trkpt lat="43.003435" lon="11.431035"><ele>271.0</ele><time>2026-04-11T11:47:59.979Z</time></trkpt><trkpt lat="43.0033483" lon="11.4309833"><ele>271.0</ele><time>2026-04-11T11:48:01.979Z</time></trkpt><trkpt lat="43.0032533" lon="11.4309383"><ele>271.0</ele><time>2026-04-11T11:48:03.979Z</time></trkpt><trkpt lat="43.003165" lon="11.43089"><ele>270.8</ele><time>2026-04-11T11:48:05.979Z</time></trkpt><trkpt lat="43.0030683" lon="11.4308383"><ele>270.6</ele><time>2026-04-11T11:48:07.979Z</time></trkpt><trkpt lat="43.0029817" lon="11.430795"><ele>270.4</ele><time>2026-04-11T11:48:09.979Z</time></trkpt><trkpt lat="43.0028867" lon="11.4307367"><ele>270.2</ele><time>2026-04-11T11:48:11.979Z</time></trkpt><trkpt lat="43.0027967" lon="11.4306867"><ele>270.0</ele><time>2026-04-11T11:48:13.979Z</time></trkpt><trkpt lat="43.0027017" lon="11.430645"><ele>270.0</ele><time>2026-04-11T11:48:15.979Z</time></trkpt><trkpt lat="43.0026117" lon="11.4305983"><ele>270.0</ele><time>2026-04-11T11:48:17.979Z</time></trkpt><trkpt lat="43.00252" lon="11.4305567"><ele>270.0</ele><time>2026-04-11T11:48:19.979Z</time></trkpt><trkpt lat="43.00243" lon="11.43052"><ele>270.0</ele><time>2026-04-11T11:48:21.979Z</time></trkpt><trkpt lat="43.002335" lon="11.4304817"><ele>270.0</ele><time>2026-04-11T11:48:23.979Z</time></trkpt><trkpt lat="43.0022483" lon="11.4304367"><ele>269.4</ele><time>2026-04-11T11:48:25.979Z</time></trkpt><trkpt lat="43.002165" lon="11.4303817"><ele>268.8</ele><time>2026-04-11T11:48:27.979Z</time></trkpt><trkpt lat="43.00208" lon="11.4303133"><ele>268.2</ele><time>2026-04-11T11:48:29.979Z</time></trkpt><trkpt lat="43.0020033" lon="11.4302633"><ele>267.6</ele><time>2026-04-11T11:48:31.979Z</time></trkpt><trkpt lat="43.001915" lon="11.4302117"><ele>267.0</ele><time>2026-04-11T11:48:33.979Z</time></trkpt><trkpt lat="43.0018267" lon="11.43015"><ele>267.0</ele><time>2026-04-11T11:48:35.979Z</time></trkpt><trkpt lat="43.0017533" lon="11.43009"><ele>267.0</ele><time>2026-04-11T11:48:37.979Z</time></trkpt><trkpt lat="43.0016783" lon="11.4300117"><ele>267.0</ele><time>2026-04-11T11:48:39.98Z</time></trkpt><trkpt lat="43.0016" lon="11.4299417"><ele>267.0</ele><time>2026-04-11T11:48:41.979Z</time></trkpt><trkpt lat="43.0015233" lon="11.4298633"><ele>267.0</ele><time>2026-04-11T11:48:43.979Z</time></trkpt><trkpt lat="43.0014467" lon="11.4297783"><ele>267.2</ele><time>2026-04-11T11:48:45.979Z</time></trkpt><trkpt lat="43.0013717" lon="11.4297067"><ele>267.4</ele><time>2026-04-11T11:48:47.979Z</time></trkpt><trkpt lat="43.001295" lon="11.4296367"><ele>267.6</ele><time>2026-04-11T11:48:49.979Z</time></trkpt><trkpt lat="43.00122" lon="11.4295767"><ele>267.8</ele><time>2026-04-11T11:48:51.979Z</time></trkpt><trkpt lat="43.0011483" lon="11.4295017"><ele>268.0</ele><time>2026-04-11T11:48:53.979Z</time></trkpt><trkpt lat="43.0010667" lon="11.42942"><ele>268.0</ele><time>2026-04-11T11:48:55.979Z</time></trkpt><trkpt lat="43.0009883" lon="11.4293433"><ele>268.0</ele><time>2026-04-11T11:48:57.979Z</time></trkpt><trkpt lat="43.0009167" lon="11.4292717"><ele>268.0</ele><time>2026-04-11T11:48:59.979Z</time></trkpt><trkpt lat="43.000845" lon="11.4292017"><ele>268.0</ele><time>2026-04-11T11:49:01.979Z</time></trkpt><trkpt lat="43.0007833" lon="11.4291233"><ele>268.0</ele><time>2026-04-11T11:49:03.979Z</time></trkpt><trkpt lat="43.00071" lon="11.429045"><ele>268.0</ele><time>2026-04-11T11:49:05.979Z</time></trkpt><trkpt lat="43.0006383" lon="11.4289633"><ele>268.0</ele><time>2026-04-11T11:49:07.979Z</time></trkpt><trkpt lat="43.0005717" lon="11.4288983"><ele>268.0</ele><time>2026-04-11T11:49:09.979Z</time></trkpt><trkpt lat="43.0005033" lon="11.4288333"><ele>268.0</ele><time>2026-04-11T11:49:11.979Z</time></trkpt><trkpt lat="43.0004433" lon="11.428775"><ele>268.0</ele><time>2026-04-11T11:49:13.979Z</time></trkpt><trkpt lat="43.000375" lon="11.428715"><ele>268.0</ele><time>2026-04-11T11:49:15.979Z</time></trkpt><trkpt lat="43.0003133" lon="11.42865"><ele>267.66666666666663</ele><time>2026-04-11T11:49:17.98Z</time></trkpt><trkpt lat="43.0002283" lon="11.4286"><ele>267.3333333333333</ele><time>2026-04-11T11:49:20.979Z</time></trkpt><trkpt lat="43.0001517" lon="11.42853"><ele>267.0</ele><time>2026-04-11T11:49:23.98Z</time></trkpt><trkpt lat="43.0001033" lon="11.4284733"><ele>266.6666666666667</ele><time>2026-04-11T11:49:25.979Z</time></trkpt><trkpt lat="43.000045" lon="11.428415"><ele>266.33333333333337</ele><time>2026-04-11T11:49:27.979Z</time></trkpt><trkpt lat="42.9999917" lon="11.4283633"><ele>266.0</ele><time>2026-04-11T11:49:29.979Z</time></trkpt><trkpt lat="42.9999167" lon="11.4282883"><ele>266.0</ele><time>2026-04-11T11:49:32.979Z</time></trkpt><trkpt lat="42.99986" lon="11.428225"><ele>266.0</ele><time>2026-04-11T11:49:34.98Z</time></trkpt><trkpt lat="42.999805" lon="11.42817"><ele>266.0</ele><time>2026-04-11T11:49:36.979Z</time></trkpt><trkpt lat="42.9997483" lon="11.4281133"><ele>266.0</ele><time>2026-04-11T11:49:38.98Z</time></trkpt><trkpt lat="42.9997" lon="11.428055"><ele>266.0</ele><time>2026-04-11T11:49:40.979Z</time></trkpt><trkpt lat="42.99963" lon="11.42799"><ele>266.0</ele><time>2026-04-11T11:49:43.979Z</time></trkpt><trkpt lat="42.9995717" lon="11.42793"><ele>266.0</ele><time>2026-04-11T11:49:45.979Z</time></trkpt><trkpt lat="42.9995117" lon="11.42787"><ele>265.7142857142857</ele><time>2026-04-11T11:49:47.98Z</time></trkpt><trkpt lat="42.99945" lon="11.4278117"><ele>265.42857142857144</ele><time>2026-04-11T11:49:49.979Z</time></trkpt><trkpt lat="42.99939" lon="11.427745"><ele>265.1428571428571</ele><time>2026-04-11T11:49:51.98Z</time></trkpt><trkpt lat="42.999325" lon="11.4276867"><ele>264.8571428571429</ele><time>2026-04-11T11:49:53.979Z</time></trkpt><trkpt lat="42.999265" lon="11.4276283"><ele>264.57142857142856</ele><time>2026-04-11T11:49:55.979Z</time></trkpt><trkpt lat="42.9992067" lon="11.4275767"><ele>264.2857142857143</ele><time>2026-04-11T11:49:57.98Z</time></trkpt><trkpt lat="42.9991517" lon="11.427515"><ele>264.0</ele><time>2026-04-11T11:49:59.979Z</time></trkpt><trkpt lat="42.9990883" lon="11.4274583"><ele>264.0</ele><time>2026-04-11T11:50:01.979Z</time></trkpt><trkpt lat="42.9990283" lon="11.427395"><ele>264.0</ele><time>2026-04-11T11:50:03.979Z</time></trkpt><trkpt lat="42.9989617" lon="11.4273317"><ele>264.0</ele><time>2026-04-11T11:50:05.979Z</time></trkpt><trkpt lat="42.9988983" lon="11.427265"><ele>264.0</ele><time>2026-04-11T11:50:07.979Z</time></trkpt><trkpt lat="42.9988383" lon="11.4272017"><ele>264.0</ele><time>2026-04-11T11:50:09.979Z</time></trkpt><trkpt lat="42.99878" lon="11.42715"><ele>264.0</ele><time>2026-04-11T11:50:11.979Z</time></trkpt><trkpt lat="42.9987167" lon="11.42709"><ele>264.0</ele><time>2026-04-11T11:50:13.98Z</time></trkpt><trkpt lat="42.998655" lon="11.42703"><ele>264.0</ele><time>2026-04-11T11:50:15.979Z</time></trkpt><trkpt lat="42.9986" lon="11.4269617"><ele>264.0</ele><time>2026-04-11T11:50:17.979Z</time></trkpt><trkpt lat="42.9985417" lon="11.4268983"><ele>264.0</ele><time>2026-04-11T11:50:19.979Z</time></trkpt><trkpt lat="42.998485" lon="11.4268583"><ele>264.0</ele><time>2026-04-11T11:50:21.979Z</time></trkpt><trkpt lat="42.9984233" lon="11.42681"><ele>264.0</ele><time>2026-04-11T11:50:23.979Z</time></trkpt><trkpt lat="42.99836" lon="11.4267467"><ele>264.0</ele><time>2026-04-11T11:50:25.979Z</time></trkpt><trkpt lat="42.9983" lon="11.4266967"><ele>264.1428571428571</ele><time>2026-04-11T11:50:27.979Z</time></trkpt><trkpt lat="42.9982417" lon="11.426645"><ele>264.2857142857143</ele><time>2026-04-11T11:50:29.979Z</time></trkpt><trkpt lat="42.998185" lon="11.426585"><ele>264.42857142857144</ele><time>2026-04-11T11:50:31.979Z</time></trkpt><trkpt lat="42.9981283" lon="11.426525"><ele>264.57142857142856</ele><time>2026-04-11T11:50:33.979Z</time></trkpt><trkpt lat="42.99806" lon="11.4264717"><ele>264.7142857142857</ele><time>2026-04-11T11:50:35.979Z</time></trkpt><trkpt lat="42.9979983" lon="11.4264317"><ele>264.85714285714283</ele><time>2026-04-11T11:50:37.979Z</time></trkpt><trkpt lat="42.997935" lon="11.426395"><ele>265.0</ele><time>2026-04-11T11:50:39.979Z</time></trkpt><trkpt lat="42.9978683" lon="11.4263517"><ele>264.99999999999994</ele><time>2026-04-11T11:50:41.979Z</time></trkpt><trkpt lat="42.9978" lon="11.4263183"><ele>265.0</ele><time>2026-04-11T11:50:43.98Z</time></trkpt><trkpt lat="42.9977333" lon="11.4262783"><ele>265.0</ele><time>2026-04-11T11:50:45.979Z</time></trkpt><trkpt lat="42.9976667" lon="11.42625"><ele>265.0</ele><time>2026-04-11T11:50:47.979Z</time></trkpt><trkpt lat="42.9975967" lon="11.42623"><ele>265.0</ele><time>2026-04-11T11:50:49.979Z</time></trkpt><trkpt lat="42.99753" lon="11.4262233"><ele>264.99999999999994</ele><time>2026-04-11T11:50:51.979Z</time></trkpt><trkpt lat="42.9974683" lon="11.4262033"><ele>265.0</ele><time>2026-04-11T11:50:53.979Z</time></trkpt><trkpt lat="42.9974033" lon="11.4261783"><ele>264.85714285714283</ele><time>2026-04-11T11:50:55.98Z</time></trkpt><trkpt lat="42.9973317" lon="11.4261633"><ele>264.7142857142857</ele><time>2026-04-11T11:50:57.979Z</time></trkpt><trkpt lat="42.997265" lon="11.4261383"><ele>264.57142857142856</ele><time>2026-04-11T11:50:59.979Z</time></trkpt><trkpt lat="42.9972017" lon="11.4261167"><ele>264.42857142857144</ele><time>2026-04-11T11:51:01.98Z</time></trkpt><trkpt lat="42.997125" lon="11.4260933"><ele>264.2857142857143</ele><time>2026-04-11T11:51:03.979Z</time></trkpt><trkpt lat="42.9970583" lon="11.42608"><ele>264.1428571428571</ele><time>2026-04-11T11:51:05.979Z</time></trkpt><trkpt lat="42.9969683" lon="11.4260533"><ele>264.0</ele><time>2026-04-11T11:51:08.979Z</time></trkpt><trkpt lat="42.9969" lon="11.4260333"><ele>264.0</ele><time>2026-04-11T11:51:10.978Z</time></trkpt><trkpt lat="42.996835" lon="11.4260067"><ele>264.0</ele><time>2026-04-11T11:51:12.978Z</time></trkpt><trkpt lat="42.9967683" lon="11.4259817"><ele>264.0</ele><time>2026-04-11T11:51:14.978Z</time></trkpt><trkpt lat="42.9967067" lon="11.4259433"><ele>264.0</ele><time>2026-04-11T11:51:16.978Z</time></trkpt><trkpt lat="42.9966433" lon="11.4259217"><ele>264.0</ele><time>2026-04-11T11:51:18.978Z</time></trkpt><trkpt lat="42.99658" lon="11.4259017"><ele>264.0</ele><time>2026-04-11T11:51:20.978Z</time></trkpt><trkpt lat="42.996485" lon="11.4258767"><ele>264.0</ele><time>2026-04-11T11:51:23.978Z</time></trkpt><trkpt lat="42.9964217" lon="11.4258617"><ele>264.5</ele><time>2026-04-11T11:51:25.978Z</time></trkpt><trkpt lat="42.9963317" lon="11.4258517"><ele>265.0</ele><time>2026-04-11T11:51:28.978Z</time></trkpt><trkpt lat="42.996265" lon="11.425835"><ele>265.5</ele><time>2026-04-11T11:51:30.978Z</time></trkpt><trkpt lat="42.9961967" lon="11.4258167"><ele>266.0</ele><time>2026-04-11T11:51:32.978Z</time></trkpt><trkpt lat="42.9961317" lon="11.4257967"><ele>266.5</ele><time>2026-04-11T11:51:34.978Z</time></trkpt><trkpt lat="42.99604" lon="11.4257633"><ele>267.0</ele><time>2026-04-11T11:51:37.978Z</time></trkpt><trkpt lat="42.9959717" lon="11.4257467"><ele>267.0</ele><time>2026-04-11T11:51:39.978Z</time></trkpt><trkpt lat="42.9959033" lon="11.42572"><ele>267.0</ele><time>2026-04-11T11:51:41.978Z</time></trkpt><trkpt lat="42.9958183" lon="11.4256933"><ele>267.0</ele><time>2026-04-11T11:51:44.978Z</time></trkpt><trkpt lat="42.9957283" lon="11.4256717"><ele>267.0</ele><time>2026-04-11T11:51:47.979Z</time></trkpt><trkpt lat="42.9956483" lon="11.42564"><ele>267.0</ele><time>2026-04-11T11:51:50.979Z</time></trkpt><trkpt lat="42.995585" lon="11.425625"><ele>267.0</ele><time>2026-04-11T11:51:52.978Z</time></trkpt><trkpt lat="42.9955183" lon="11.4256"><ele>267.42857142857144</ele><time>2026-04-11T11:51:54.978Z</time></trkpt><trkpt lat="42.995455" lon="11.4255817"><ele>267.8571428571429</ele><time>2026-04-11T11:51:56.979Z</time></trkpt><trkpt lat="42.995385" lon="11.4255633"><ele>268.2857142857143</ele><time>2026-04-11T11:51:58.978Z</time></trkpt><trkpt lat="42.9953117" lon="11.42554"><ele>268.7142857142857</ele><time>2026-04-11T11:52:00.978Z</time></trkpt><trkpt lat="42.99524" lon="11.4255117"><ele>269.1428571428571</ele><time>2026-04-11T11:52:02.979Z</time></trkpt><trkpt lat="42.9951717" lon="11.4254817"><ele>269.57142857142856</ele><time>2026-04-11T11:52:04.978Z</time></trkpt><trkpt lat="42.9951017" lon="11.4254583"><ele>270.0</ele><time>2026-04-11T11:52:06.978Z</time></trkpt><trkpt lat="42.9950317" lon="11.4254283"><ele>270.0</ele><time>2026-04-11T11:52:08.978Z</time></trkpt><trkpt lat="42.99496" lon="11.425405"><ele>270.0</ele><time>2026-04-11T11:52:10.978Z</time></trkpt><trkpt lat="42.9948883" lon="11.4253783"><ele>270.0</ele><time>2026-04-11T11:52:12.978Z</time></trkpt><trkpt lat="42.9948217" lon="11.4253583"><ele>270.0</ele><time>2026-04-11T11:52:14.978Z</time></trkpt><trkpt lat="42.994755" lon="11.425335"><ele>270.0</ele><time>2026-04-11T11:52:16.978Z</time></trkpt><trkpt lat="42.99469" lon="11.4253117"><ele>270.0</ele><time>2026-04-11T11:52:18.978Z</time></trkpt><trkpt lat="42.9946267" lon="11.4252967"><ele>270.0</ele><time>2026-04-11T11:52:20.978Z</time></trkpt><trkpt lat="42.994535" lon="11.4252683"><ele>270.0</ele><time>2026-04-11T11:52:23.978Z</time></trkpt><trkpt lat="42.99444" lon="11.4252483"><ele>270.0</ele><time>2026-04-11T11:52:26.978Z</time></trkpt><trkpt lat="42.994375" lon="11.4252217"><ele>270.0</ele><time>2026-04-11T11:52:28.978Z</time></trkpt><trkpt lat="42.99431" lon="11.4252083"><ele>270.0</ele><time>2026-04-11T11:52:30.978Z</time></trkpt><trkpt lat="42.9942417" lon="11.4251883"><ele>270.0</ele><time>2026-04-11T11:52:32.978Z</time></trkpt><trkpt lat="42.9941683" lon="11.4251617"><ele>270.0</ele><time>2026-04-11T11:52:34.978Z</time></trkpt><trkpt lat="42.9941" lon="11.4251367"><ele>270.0</ele><time>2026-04-11T11:52:36.978Z</time></trkpt><trkpt lat="42.9940317" lon="11.4251217"><ele>269.85714285714283</ele><time>2026-04-11T11:52:38.978Z</time></trkpt><trkpt lat="42.993965" lon="11.4250967"><ele>269.71428571428567</ele><time>2026-04-11T11:52:40.979Z</time></trkpt><trkpt lat="42.9939017" lon="11.42508"><ele>269.57142857142856</ele><time>2026-04-11T11:52:42.978Z</time></trkpt><trkpt lat="42.99384" lon="11.425055"><ele>269.42857142857144</ele><time>2026-04-11T11:52:44.978Z</time></trkpt><trkpt lat="42.9937767" lon="11.4250467"><ele>269.28571428571433</ele><time>2026-04-11T11:52:46.978Z</time></trkpt><trkpt lat="42.99369" lon="11.4250267"><ele>269.14285714285717</ele><time>2026-04-11T11:52:49.978Z</time></trkpt><trkpt lat="42.9936083" lon="11.4250133"><ele>269.0</ele><time>2026-04-11T11:52:52.978Z</time></trkpt><trkpt lat="42.9935283" lon="11.4249883"><ele>269.0</ele><time>2026-04-11T11:52:55.978Z</time></trkpt><trkpt lat="42.99346" lon="11.424965"><ele>269.0</ele><time>2026-04-11T11:52:58.978Z</time></trkpt><trkpt lat="42.993395" lon="11.4249433"><ele>269.0</ele><time>2026-04-11T11:53:01.978Z</time></trkpt><trkpt lat="42.9933117" lon="11.4249167"><ele>269.0</ele><time>2026-04-11T11:53:04.978Z</time></trkpt><trkpt lat="42.9932467" lon="11.4248983"><ele>269.0</ele><time>2026-04-11T11:53:07.978Z</time></trkpt><trkpt lat="42.993165" lon="11.4248683"><ele>269.0</ele><time>2026-04-11T11:53:10.978Z</time></trkpt><trkpt lat="42.993085" lon="11.42485"><ele>269.33333333333337</ele><time>2026-04-11T11:53:13.978Z</time></trkpt><trkpt lat="42.9930033" lon="11.4248217"><ele>269.6666666666667</ele><time>2026-04-11T11:53:16.979Z</time></trkpt><trkpt lat="42.9929233" lon="11.42479"><ele>270.0</ele><time>2026-04-11T11:53:19.978Z</time></trkpt><trkpt lat="42.9928417" lon="11.424775"><ele>270.3333333333333</ele><time>2026-04-11T11:53:22.978Z</time></trkpt><trkpt lat="42.9927633" lon="11.4247467"><ele>270.66666666666663</ele><time>2026-04-11T11:53:25.979Z</time></trkpt><trkpt lat="42.9926783" lon="11.424725"><ele>271.0</ele><time>2026-04-11T11:53:28.978Z</time></trkpt><trkpt lat="42.992595" lon="11.424695"><ele>271.0</ele><time>2026-04-11T11:53:31.978Z</time></trkpt><trkpt lat="42.9925083" lon="11.4246733"><ele>271.0</ele><time>2026-04-11T11:53:34.978Z</time></trkpt><trkpt lat="42.9924183" lon="11.424645"><ele>271.0</ele><time>2026-04-11T11:53:37.978Z</time></trkpt><trkpt lat="42.9923267" lon="11.4246167"><ele>271.0</ele><time>2026-04-11T11:53:40.979Z</time></trkpt><trkpt lat="42.9922333" lon="11.4245983"><ele>271.0</ele><time>2026-04-11T11:53:43.978Z</time></trkpt><trkpt lat="42.992145" lon="11.4245583"><ele>271.3333333333333</ele><time>2026-04-11T11:53:46.978Z</time></trkpt><trkpt lat="42.9920833" lon="11.42454"><ele>271.66666666666663</ele><time>2026-04-11T11:53:48.979Z</time></trkpt><trkpt lat="42.992" lon="11.424525"><ele>272.0</ele><time>2026-04-11T11:53:51.978Z</time></trkpt><trkpt lat="42.991915" lon="11.4245017"><ele>272.3333333333333</ele><time>2026-04-11T11:53:54.978Z</time></trkpt><trkpt lat="42.9918533" lon="11.42448"><ele>272.6666666666667</ele><time>2026-04-11T11:53:56.978Z</time></trkpt><trkpt lat="42.99179" lon="11.4244617"><ele>273.0</ele><time>2026-04-11T11:53:58.978Z</time></trkpt><trkpt lat="42.9916983" lon="11.4244367"><ele>272.8333333333333</ele><time>2026-04-11T11:54:01.979Z</time></trkpt><trkpt lat="42.9916133" lon="11.42441"><ele>272.6666666666667</ele><time>2026-04-11T11:54:04.979Z</time></trkpt><trkpt lat="42.9915517" lon="11.424385"><ele>272.5</ele><time>2026-04-11T11:54:06.978Z</time></trkpt><trkpt lat="42.9914667" lon="11.4243633"><ele>272.33333333333337</ele><time>2026-04-11T11:54:09.978Z</time></trkpt><trkpt lat="42.9913817" lon="11.4243367"><ele>272.1666666666667</ele><time>2026-04-11T11:54:12.978Z</time></trkpt><trkpt lat="42.9913" lon="11.424325"><ele>272.0</ele><time>2026-04-11T11:54:15.978Z</time></trkpt><trkpt lat="42.9912133" lon="11.42429"><ele>272.0</ele><time>2026-04-11T11:54:18.978Z</time></trkpt><trkpt lat="42.9911267" lon="11.424275"><ele>272.0</ele><time>2026-04-11T11:54:21.978Z</time></trkpt><trkpt lat="42.991045" lon="11.424235"><ele>272.0</ele><time>2026-04-11T11:54:24.978Z</time></trkpt><trkpt lat="42.9909767" lon="11.42422"><ele>272.0</ele><time>2026-04-11T11:54:27.978Z</time></trkpt><trkpt lat="42.9908917" lon="11.424185"><ele>272.0</ele><time>2026-04-11T11:54:31.979Z</time></trkpt><trkpt lat="42.9908233" lon="11.4241833"><ele>272.0</ele><time>2026-04-11T11:55:40.978Z</time></trkpt><trkpt lat="42.9908233" lon="11.42428"><ele>272.1666666666667</ele><time>2026-04-11T11:55:43.978Z</time></trkpt><trkpt lat="42.99082" lon="11.4243983"><ele>272.33333333333337</ele><time>2026-04-11T11:55:45.978Z</time></trkpt><trkpt lat="42.9908017" lon="11.4245617"><ele>272.5</ele><time>2026-04-11T11:55:47.979Z</time></trkpt><trkpt lat="42.9907817" lon="11.42467"><ele>272.6666666666667</ele><time>2026-04-11T11:55:48.978Z</time></trkpt><trkpt lat="42.99076" lon="11.4247733"><ele>272.8333333333333</ele><time>2026-04-11T11:55:49.978Z</time></trkpt><trkpt lat="42.9907433" lon="11.4248633"><ele>273.0</ele><time>2026-04-11T11:55:50.978Z</time></trkpt><trkpt lat="42.9907233" lon="11.4249617"><ele>271.85714285714283</ele><time>2026-04-11T11:55:51.978Z</time></trkpt><trkpt lat="42.9907017" lon="11.425055"><ele>270.7142857142857</ele><time>2026-04-11T11:55:52.978Z</time></trkpt><trkpt lat="42.990685" lon="11.4251433"><ele>269.57142857142856</ele><time>2026-04-11T11:55:53.978Z</time></trkpt><trkpt lat="42.9906633" lon="11.4252367"><ele>268.42857142857144</ele><time>2026-04-11T11:55:54.978Z</time></trkpt><trkpt lat="42.99065" lon="11.4253317"><ele>267.2857142857143</ele><time>2026-04-11T11:55:55.978Z</time></trkpt><trkpt lat="42.9906383" lon="11.42542"><ele>266.1428571428571</ele><time>2026-04-11T11:55:56.978Z</time></trkpt><trkpt lat="42.9906067" lon="11.4255083"><ele>265.0</ele><time>2026-04-11T11:55:57.978Z</time></trkpt><trkpt lat="42.99056" lon="11.4255817"><ele>264.66666666666663</ele><time>2026-04-11T11:55:58.978Z</time></trkpt><trkpt lat="42.9904933" lon="11.4256317"><ele>264.3333333333333</ele><time>2026-04-11T11:55:59.978Z</time></trkpt><trkpt lat="42.990415" lon="11.42566"><ele>264.0</ele><time>2026-04-11T11:56:00.979Z</time></trkpt><trkpt lat="42.990325" lon="11.4256517"><ele>263.6666666666667</ele><time>2026-04-11T11:56:01.979Z</time></trkpt><trkpt lat="42.9902317" lon="11.4256183"><ele>263.33333333333337</ele><time>2026-04-11T11:56:02.978Z</time></trkpt><trkpt lat="42.9901383" lon="11.4255667"><ele>263.0</ele><time>2026-04-11T11:56:03.979Z</time></trkpt><trkpt lat="42.9900617" lon="11.4254917"><ele>261.83333333333337</ele><time>2026-04-11T11:56:04.978Z</time></trkpt><trkpt lat="42.9900033" lon="11.4254017"><ele>260.6666666666667</ele><time>2026-04-11T11:56:05.979Z</time></trkpt><trkpt lat="42.9899617" lon="11.4252933"><ele>259.5</ele><time>2026-04-11T11:56:06.979Z</time></trkpt><trkpt lat="42.9899267" lon="11.4251867"><ele>258.3333333333333</ele><time>2026-04-11T11:56:07.978Z</time></trkpt><trkpt lat="42.9898983" lon="11.4250917"><ele>257.16666666666663</ele><time>2026-04-11T11:56:08.978Z</time></trkpt><trkpt lat="42.9898683" lon="11.4249917"><ele>256.0</ele><time>2026-04-11T11:56:09.978Z</time></trkpt><trkpt lat="42.9898417" lon="11.4249033"><ele>256.0</ele><time>2026-04-11T11:56:10.978Z</time></trkpt><trkpt lat="42.98981" lon="11.4248117"><ele>255.99999999999997</ele><time>2026-04-11T11:56:11.978Z</time></trkpt><trkpt lat="42.9897783" lon="11.42472"><ele>256.0</ele><time>2026-04-11T11:56:12.978Z</time></trkpt><trkpt lat="42.98975" lon="11.4246417"><ele>256.0</ele><time>2026-04-11T11:56:13.978Z</time></trkpt><trkpt lat="42.9897033" lon="11.4245617"><ele>255.99999999999997</ele><time>2026-04-11T11:56:15.979Z</time></trkpt><trkpt lat="42.98965" lon="11.4245033"><ele>256.0</ele><time>2026-04-11T11:57:02.977Z</time></trkpt><trkpt lat="42.9896017" lon="11.424435"><ele>256.0</ele><time>2026-04-11T11:57:04.977Z</time></trkpt><trkpt lat="42.98956" lon="11.4243533"><ele>257.0</ele><time>2026-04-11T11:57:06.977Z</time></trkpt><trkpt lat="42.9895183" lon="11.42426"><ele>258.0</ele><time>2026-04-11T11:57:08.977Z</time></trkpt><trkpt lat="42.98947" lon="11.4241717"><ele>259.0</ele><time>2026-04-11T11:57:10.977Z</time></trkpt><trkpt lat="42.9894167" lon="11.4240867"><ele>260.0</ele><time>2026-04-11T11:57:12.977Z</time></trkpt><trkpt lat="42.9893617" lon="11.4239933"><ele>261.0</ele><time>2026-04-11T11:57:14.977Z</time></trkpt><trkpt lat="42.989285" lon="11.4238917"><ele>262.0</ele><time>2026-04-11T11:57:16.977Z</time></trkpt><trkpt lat="42.9892083" lon="11.4237917"><ele>259.2</ele><time>2026-04-11T11:57:18.978Z</time></trkpt><trkpt lat="42.9891133" lon="11.423685"><ele>256.4</ele><time>2026-04-11T11:57:20.977Z</time></trkpt><trkpt lat="42.9890133" lon="11.423575"><ele>253.60000000000002</ele><time>2026-04-11T11:57:22.977Z</time></trkpt><trkpt lat="42.9889517" lon="11.4235267"><ele>250.8</ele><time>2026-04-11T11:57:23.978Z</time></trkpt><trkpt lat="42.988885" lon="11.423495"><ele>248.0</ele><time>2026-04-11T11:57:24.977Z</time></trkpt><trkpt lat="42.9888167" lon="11.423455"><ele>248.00000000000003</ele><time>2026-04-11T11:57:25.978Z</time></trkpt><trkpt lat="42.9887433" lon="11.4234233"><ele>248.0</ele><time>2026-04-11T11:57:26.977Z</time></trkpt><trkpt lat="42.9886683" lon="11.423405"><ele>248.0</ele><time>2026-04-11T11:57:27.978Z</time></trkpt><trkpt lat="42.9886" lon="11.4233867"><ele>248.0</ele><time>2026-04-11T11:57:28.977Z</time></trkpt><trkpt lat="42.9885383" lon="11.423365"><ele>248.00000000000003</ele><time>2026-04-11T11:57:29.977Z</time></trkpt><trkpt lat="42.9884333" lon="11.423335"><ele>248.0</ele><time>2026-04-11T11:57:31.977Z</time></trkpt><trkpt lat="42.9883467" lon="11.4233183"><ele>247.0</ele><time>2026-04-11T11:57:33.977Z</time></trkpt><trkpt lat="42.988275" lon="11.4232917"><ele>246.00000000000003</ele><time>2026-04-11T11:57:35.977Z</time></trkpt><trkpt lat="42.9881967" lon="11.4232767"><ele>245.0</ele><time>2026-04-11T11:57:38.977Z</time></trkpt><trkpt lat="42.9881033" lon="11.423265"><ele>244.0</ele><time>2026-04-11T11:57:41.977Z</time></trkpt><trkpt lat="42.98804" lon="11.42325"><ele>243.00000000000003</ele><time>2026-04-11T11:57:43.977Z</time></trkpt><trkpt lat="42.9879767" lon="11.4232317"><ele>242.0</ele><time>2026-04-11T11:57:45.977Z</time></trkpt><trkpt lat="42.9879133" lon="11.423215"><ele>241.0</ele><time>2026-04-11T11:57:47.978Z</time></trkpt><trkpt lat="42.9878183" lon="11.423195"><ele>241.0</ele><time>2026-04-11T11:57:50.978Z</time></trkpt><trkpt lat="42.9877417" lon="11.42318"><ele>241.00000000000003</ele><time>2026-04-11T11:57:52.977Z</time></trkpt><trkpt lat="42.9876733" lon="11.4231717"><ele>241.0</ele><time>2026-04-11T11:57:54.977Z</time></trkpt><trkpt lat="42.9876067" lon="11.4231567"><ele>241.0</ele><time>2026-04-11T11:57:56.977Z</time></trkpt><trkpt lat="42.98753" lon="11.4231433"><ele>241.00000000000003</ele><time>2026-04-11T11:57:58.977Z</time></trkpt><trkpt lat="42.9874567" lon="11.4231233"><ele>241.0</ele><time>2026-04-11T11:58:00.977Z</time></trkpt><trkpt lat="42.987385" lon="11.4231083"><ele>241.0</ele><time>2026-04-11T11:58:02.978Z</time></trkpt><trkpt lat="42.987305" lon="11.42309"><ele>240.66666666666666</ele><time>2026-04-11T11:58:04.977Z</time></trkpt><trkpt lat="42.9872283" lon="11.4230717"><ele>240.33333333333331</ele><time>2026-04-11T11:58:06.977Z</time></trkpt><trkpt lat="42.987145" lon="11.4230483"><ele>240.0</ele><time>2026-04-11T11:58:08.977Z</time></trkpt><trkpt lat="42.987065" lon="11.4230267"><ele>239.66666666666669</ele><time>2026-04-11T11:58:10.977Z</time></trkpt><trkpt lat="42.986985" lon="11.4230183"><ele>239.33333333333334</ele><time>2026-04-11T11:58:12.978Z</time></trkpt><trkpt lat="42.986905" lon="11.4230017"><ele>239.0</ele><time>2026-04-11T11:58:14.977Z</time></trkpt><trkpt lat="42.98682" lon="11.4229833"><ele>239.00000000000003</ele><time>2026-04-11T11:58:16.977Z</time></trkpt><trkpt lat="42.9867317" lon="11.422955"><ele>239.0</ele><time>2026-04-11T11:58:18.977Z</time></trkpt><trkpt lat="42.9866433" lon="11.4229283"><ele>239.0</ele><time>2026-04-11T11:58:20.977Z</time></trkpt><trkpt lat="42.98656" lon="11.4229083"><ele>239.0</ele><time>2026-04-11T11:58:22.977Z</time></trkpt><trkpt lat="42.9864783" lon="11.4228867"><ele>239.00000000000003</ele><time>2026-04-11T11:58:24.978Z</time></trkpt><trkpt lat="42.9863983" lon="11.4228667"><ele>239.0</ele><time>2026-04-11T11:58:26.977Z</time></trkpt><trkpt lat="42.98632" lon="11.4228417"><ele>238.71428571428575</ele><time>2026-04-11T11:58:28.977Z</time></trkpt><trkpt lat="42.9862383" lon="11.4228217"><ele>238.42857142857144</ele><time>2026-04-11T11:58:30.977Z</time></trkpt><trkpt lat="42.9861683" lon="11.4228133"><ele>238.14285714285714</ele><time>2026-04-11T11:58:32.978Z</time></trkpt><trkpt lat="42.9860983" lon="11.4228067"><ele>237.85714285714286</ele><time>2026-04-11T11:58:34.978Z</time></trkpt><trkpt lat="42.9860283" lon="11.4227867"><ele>237.57142857142856</ele><time>2026-04-11T11:58:36.977Z</time></trkpt><trkpt lat="42.9859567" lon="11.42278"><ele>237.28571428571425</ele><time>2026-04-11T11:58:38.977Z</time></trkpt><trkpt lat="42.9858867" lon="11.4227717"><ele>236.99999999999997</ele><time>2026-04-11T11:58:40.978Z</time></trkpt><trkpt lat="42.98582" lon="11.42276"><ele>236.4285714285714</ele><time>2026-04-11T11:58:42.978Z</time></trkpt><trkpt lat="42.9857533" lon="11.4227417"><ele>235.85714285714283</ele><time>2026-04-11T11:58:44.977Z</time></trkpt><trkpt lat="42.98568" lon="11.42272"><ele>235.28571428571428</ele><time>2026-04-11T11:58:46.978Z</time></trkpt><trkpt lat="42.9856133" lon="11.4227133"><ele>234.7142857142857</ele><time>2026-04-11T11:58:48.977Z</time></trkpt><trkpt lat="42.9855267" lon="11.42271"><ele>234.1428571428571</ele><time>2026-04-11T11:58:51.977Z</time></trkpt><trkpt lat="42.9855983" lon="11.4226783"><ele>233.57142857142858</ele><time>2026-04-11T11:59:04.978Z</time></trkpt><trkpt lat="42.9856667" lon="11.4226683"><ele>233.0</ele><time>2026-04-11T11:59:07.977Z</time></trkpt><trkpt lat="42.98574" lon="11.4226567"><ele>233.00000000000003</ele><time>2026-04-11T11:59:10.977Z</time></trkpt><trkpt lat="42.9858183" lon="11.4226383"><ele>233.0</ele><time>2026-04-11T11:59:14.977Z</time></trkpt><trkpt lat="42.9858967" lon="11.42264"><ele>233.0</ele><time>2026-04-11T11:59:17.977Z</time></trkpt><trkpt lat="42.9859833" lon="11.4226533"><ele>233.0</ele><time>2026-04-11T11:59:20.977Z</time></trkpt><trkpt lat="42.9860583" lon="11.422685"><ele>233.00000000000003</ele><time>2026-04-11T11:59:22.977Z</time></trkpt><trkpt lat="42.986135" lon="11.4227017"><ele>233.0</ele><time>2026-04-11T11:59:24.977Z</time></trkpt><trkpt lat="42.986215" lon="11.4227133"><ele>233.57142857142858</ele><time>2026-04-11T11:59:26.977Z</time></trkpt><trkpt lat="42.9862817" lon="11.4227217"><ele>234.1428571428571</ele><time>2026-04-11T11:59:28.977Z</time></trkpt><trkpt lat="42.9863483" lon="11.4227417"><ele>234.7142857142857</ele><time>2026-04-11T11:59:30.978Z</time></trkpt><trkpt lat="42.9864183" lon="11.4227867"><ele>235.28571428571428</ele><time>2026-04-11T11:59:32.977Z</time></trkpt><trkpt lat="42.98649" lon="11.4228117"><ele>235.85714285714283</ele><time>2026-04-11T11:59:34.977Z</time></trkpt><trkpt lat="42.9865667" lon="11.422835"><ele>236.4285714285714</ele><time>2026-04-11T11:59:36.977Z</time></trkpt><trkpt lat="42.9866367" lon="11.42286"><ele>236.99999999999997</ele><time>2026-04-11T11:59:38.978Z</time></trkpt><trkpt lat="42.986705" lon="11.4228883"><ele>237.28571428571425</ele><time>2026-04-11T11:59:40.977Z</time></trkpt><trkpt lat="42.9867767" lon="11.4229183"><ele>237.57142857142856</ele><time>2026-04-11T11:59:42.977Z</time></trkpt><trkpt lat="42.986845" lon="11.42294"><ele>237.85714285714286</ele><time>2026-04-11T11:59:44.977Z</time></trkpt><trkpt lat="42.986915" lon="11.4229633"><ele>238.14285714285714</ele><time>2026-04-11T11:59:46.977Z</time></trkpt><trkpt lat="42.9869817" lon="11.4229767"><ele>238.42857142857144</ele><time>2026-04-11T11:59:48.977Z</time></trkpt><trkpt lat="42.987055" lon="11.422995"><ele>238.71428571428575</ele><time>2026-04-11T11:59:50.977Z</time></trkpt><trkpt lat="42.9871233" lon="11.4230083"><ele>239.00000000000003</ele><time>2026-04-11T11:59:52.977Z</time></trkpt><trkpt lat="42.9871883" lon="11.4230283"><ele>239.00000000000003</ele><time>2026-04-11T11:59:54.977Z</time></trkpt><trkpt lat="42.9872583" lon="11.4230433"><ele>239.0</ele><time>2026-04-11T11:59:56.977Z</time></trkpt><trkpt lat="42.987355" lon="11.423065"><ele>239.0</ele><time>2026-04-11T11:59:59.978Z</time></trkpt><trkpt lat="42.987425" lon="11.4230883"><ele>239.0</ele><time>2026-04-11T12:00:01.977Z</time></trkpt><trkpt lat="42.9874917" lon="11.42311"><ele>239.00000000000003</ele><time>2026-04-11T12:00:03.977Z</time></trkpt><trkpt lat="42.9875683" lon="11.4231317"><ele>239.0</ele><time>2026-04-11T12:00:05.978Z</time></trkpt><trkpt lat="42.98765" lon="11.423145"><ele>239.33333333333334</ele><time>2026-04-11T12:00:07.977Z</time></trkpt><trkpt lat="42.987725" lon="11.4231617"><ele>239.66666666666669</ele><time>2026-04-11T12:00:09.977Z</time></trkpt><trkpt lat="42.9877967" lon="11.4231817"><ele>240.0</ele><time>2026-04-11T12:00:11.977Z</time></trkpt><trkpt lat="42.9878717" lon="11.4231983"><ele>240.33333333333331</ele><time>2026-04-11T12:00:13.977Z</time></trkpt><trkpt lat="42.987945" lon="11.423215"><ele>240.66666666666666</ele><time>2026-04-11T12:00:15.977Z</time></trkpt><trkpt lat="42.98801" lon="11.42322"><ele>241.0</ele><time>2026-04-11T12:00:17.977Z</time></trkpt><trkpt lat="42.9880883" lon="11.4232867"><ele>240.99999999999997</ele><time>2026-04-11T12:00:20.977Z</time></trkpt><trkpt lat="42.98813" lon="11.4233583"><ele>241.0</ele><time>2026-04-11T12:00:22.978Z</time></trkpt><trkpt lat="42.988175" lon="11.4234633"><ele>241.0</ele><time>2026-04-11T12:00:25.977Z</time></trkpt><trkpt lat="42.9882" lon="11.4235583"><ele>241.0</ele><time>2026-04-11T12:00:27.977Z</time></trkpt><trkpt lat="42.9881967" lon="11.4236517"><ele>240.99999999999997</ele><time>2026-04-11T12:00:29.977Z</time></trkpt><trkpt lat="42.9881883" lon="11.4237583"><ele>241.0</ele><time>2026-04-11T12:00:31.977Z</time></trkpt><trkpt lat="42.98819" lon="11.42386"><ele>240.33333333333331</ele><time>2026-04-11T12:00:33.977Z</time></trkpt><trkpt lat="42.9881983" lon="11.4239617"><ele>239.66666666666666</ele><time>2026-04-11T12:00:35.977Z</time></trkpt><trkpt lat="42.9882117" lon="11.4240733"><ele>239.0</ele><time>2026-04-11T12:00:37.977Z</time></trkpt><trkpt lat="42.9882317" lon="11.4241817"><ele>238.33333333333331</ele><time>2026-04-11T12:00:39.977Z</time></trkpt><trkpt lat="42.9882533" lon="11.42429"><ele>237.66666666666666</ele><time>2026-04-11T12:00:41.977Z</time></trkpt><trkpt lat="42.98828" lon="11.4243917"><ele>237.0</ele><time>2026-04-11T12:00:43.977Z</time></trkpt><trkpt lat="42.988305" lon="11.424495"><ele>237.0</ele><time>2026-04-11T12:00:45.978Z</time></trkpt><trkpt lat="42.9883383" lon="11.424605"><ele>237.0</ele><time>2026-04-11T12:00:47.977Z</time></trkpt><trkpt lat="42.9883733" lon="11.4247217"><ele>237.0</ele><time>2026-04-11T12:00:49.977Z</time></trkpt><trkpt lat="42.9884083" lon="11.424845"><ele>237.0</ele><time>2026-04-11T12:00:51.978Z</time></trkpt><trkpt lat="42.98845" lon="11.4249733"><ele>237.0</ele><time>2026-04-11T12:00:53.977Z</time></trkpt><trkpt lat="42.98849" lon="11.425125"><ele>236.71428571428567</ele><time>2026-04-11T12:00:55.977Z</time></trkpt><trkpt lat="42.988515" lon="11.4252067"><ele>236.42857142857142</ele><time>2026-04-11T12:00:56.978Z</time></trkpt><trkpt lat="42.98854" lon="11.42529"><ele>236.1428571428571</ele><time>2026-04-11T12:00:57.977Z</time></trkpt><trkpt lat="42.98859" lon="11.4254367"><ele>235.85714285714283</ele><time>2026-04-11T12:00:59.977Z</time></trkpt><trkpt lat="42.9886217" lon="11.42552"><ele>235.57142857142856</ele><time>2026-04-11T12:01:00.977Z</time></trkpt><trkpt lat="42.988645" lon="11.4256"><ele>235.28571428571428</ele><time>2026-04-11T12:01:01.978Z</time></trkpt><trkpt lat="42.9886683" lon="11.4256883"><ele>235.0</ele><time>2026-04-11T12:01:02.977Z</time></trkpt><trkpt lat="42.9886867" lon="11.4257717"><ele>235.0</ele><time>2026-04-11T12:01:03.977Z</time></trkpt><trkpt lat="42.9886917" lon="11.4259217"><ele>235.0</ele><time>2026-04-11T12:01:05.976Z</time></trkpt><trkpt lat="42.9886717" lon="11.42605"><ele>235.0</ele><time>2026-04-11T12:01:07.976Z</time></trkpt><trkpt lat="42.988625" lon="11.42617"><ele>235.0</ele><time>2026-04-11T12:01:09.977Z</time></trkpt><trkpt lat="42.988575" lon="11.4262867"><ele>235.0</ele><time>2026-04-11T12:01:11.976Z</time></trkpt><trkpt lat="42.988555" lon="11.426385"><ele>235.66666666666666</ele><time>2026-04-11T12:01:13.977Z</time></trkpt><trkpt lat="42.9885217" lon="11.4264633"><ele>236.33333333333331</ele><time>2026-04-11T12:01:15.976Z</time></trkpt><trkpt lat="42.9884783" lon="11.426545"><ele>237.0</ele><time>2026-04-11T12:01:27.976Z</time></trkpt><trkpt lat="42.9884333" lon="11.42664"><ele>237.66666666666669</ele><time>2026-04-11T12:01:30.976Z</time></trkpt><trkpt lat="42.98839" lon="11.4267417"><ele>238.33333333333334</ele><time>2026-04-11T12:01:33.977Z</time></trkpt><trkpt lat="42.9883467" lon="11.4268317"><ele>239.0</ele><time>2026-04-11T12:01:36.976Z</time></trkpt><trkpt lat="42.988325" lon="11.426915"><ele>236.66666666666669</ele><time>2026-04-11T12:01:39.976Z</time></trkpt><trkpt lat="42.9883283" lon="11.4270083"><ele>234.33333333333334</ele><time>2026-04-11T12:01:42.976Z</time></trkpt><trkpt lat="42.9883183" lon="11.4271183"><ele>232.0</ele><time>2026-04-11T12:01:45.977Z</time></trkpt><trkpt lat="42.9883017" lon="11.4272317"><ele>229.66666666666669</ele><time>2026-04-11T12:01:48.976Z</time></trkpt><trkpt lat="42.9882967" lon="11.4273433"><ele>227.33333333333334</ele><time>2026-04-11T12:01:51.976Z</time></trkpt><trkpt lat="42.9882917" lon="11.427435"><ele>225.0</ele><time>2026-04-11T12:01:53.976Z</time></trkpt><trkpt lat="42.9883017" lon="11.4275583"><ele>224.33333333333334</ele><time>2026-04-11T12:01:56.976Z</time></trkpt><trkpt lat="42.988315" lon="11.4276717"><ele>223.66666666666669</ele><time>2026-04-11T12:01:59.977Z</time></trkpt><trkpt lat="42.9883133" lon="11.4278033"><ele>223.0</ele><time>2026-04-11T12:02:02.976Z</time></trkpt><trkpt lat="42.98831" lon="11.427905"><ele>222.33333333333334</ele><time>2026-04-11T12:02:04.976Z</time></trkpt><trkpt lat="42.9882933" lon="11.42801"><ele>221.66666666666669</ele><time>2026-04-11T12:02:06.976Z</time></trkpt><trkpt lat="42.988245" lon="11.42812"><ele>221.0</ele><time>2026-04-11T12:02:08.976Z</time></trkpt><trkpt lat="42.988175" lon="11.428235"><ele>220.50000000000003</ele><time>2026-04-11T12:02:10.976Z</time></trkpt><trkpt lat="42.988095" lon="11.4283317"><ele>220.0</ele><time>2026-04-11T12:02:12.977Z</time></trkpt><trkpt lat="42.98803" lon="11.42842"><ele>219.5</ele><time>2026-04-11T12:02:14.976Z</time></trkpt><trkpt lat="42.9879783" lon="11.4285033"><ele>219.0</ele><time>2026-04-11T12:02:16.976Z</time></trkpt><trkpt lat="42.9879283" lon="11.4285733"><ele>218.50000000000003</ele><time>2026-04-11T12:02:18.976Z</time></trkpt><trkpt lat="42.9878667" lon="11.4286567"><ele>218.0</ele><time>2026-04-11T12:02:20.976Z</time></trkpt><trkpt lat="42.98781" lon="11.4287533"><ele>217.14285714285714</ele><time>2026-04-11T12:02:22.976Z</time></trkpt><trkpt lat="42.9877683" lon="11.42884"><ele>216.28571428571428</ele><time>2026-04-11T12:02:24.976Z</time></trkpt><trkpt lat="42.9877433" lon="11.428935"><ele>215.42857142857144</ele><time>2026-04-11T12:02:26.977Z</time></trkpt><trkpt lat="42.987735" lon="11.429025"><ele>214.57142857142856</ele><time>2026-04-11T12:02:28.977Z</time></trkpt><trkpt lat="42.9877467" lon="11.4291183"><ele>213.7142857142857</ele><time>2026-04-11T12:02:30.977Z</time></trkpt><trkpt lat="42.9877917" lon="11.4291917"><ele>212.85714285714286</ele><time>2026-04-11T12:02:32.977Z</time></trkpt><trkpt lat="42.9878333" lon="11.42927"><ele>212.0</ele><time>2026-04-11T12:02:34.977Z</time></trkpt><trkpt lat="42.98788" lon="11.4293333"><ele>212.00000000000003</ele><time>2026-04-11T12:02:36.976Z</time></trkpt><trkpt lat="42.9879317" lon="11.4293883"><ele>212.0</ele><time>2026-04-11T12:02:38.976Z</time></trkpt><trkpt lat="42.9879783" lon="11.4294467"><ele>212.0</ele><time>2026-04-11T12:02:40.976Z</time></trkpt><trkpt lat="42.988045" lon="11.429535"><ele>212.0</ele><time>2026-04-11T12:02:43.977Z</time></trkpt><trkpt lat="42.9881067" lon="11.4296217"><ele>212.00000000000003</ele><time>2026-04-11T12:02:46.976Z</time></trkpt><trkpt lat="42.9881617" lon="11.4297117"><ele>212.0</ele><time>2026-04-11T12:02:49.977Z</time></trkpt><trkpt lat="42.98819" lon="11.4297933"><ele>210.42857142857144</ele><time>2026-04-11T12:02:51.977Z</time></trkpt><trkpt lat="42.9882117" lon="11.429895"><ele>208.85714285714283</ele><time>2026-04-11T12:02:53.976Z</time></trkpt><trkpt lat="42.9882267" lon="11.4300033"><ele>207.28571428571428</ele><time>2026-04-11T12:02:55.976Z</time></trkpt><trkpt lat="42.9882283" lon="11.4301083"><ele>205.71428571428572</ele><time>2026-04-11T12:02:57.976Z</time></trkpt><trkpt lat="42.98822" lon="11.43021"><ele>204.14285714285717</ele><time>2026-04-11T12:02:59.976Z</time></trkpt><trkpt lat="42.9882217" lon="11.4303017"><ele>202.57142857142856</ele><time>2026-04-11T12:03:01.976Z</time></trkpt><trkpt lat="42.9882367" lon="11.4303983"><ele>201.0</ele><time>2026-04-11T12:03:03.977Z</time></trkpt><trkpt lat="42.988245" lon="11.4305067"><ele>200.57142857142856</ele><time>2026-04-11T12:03:05.976Z</time></trkpt><trkpt lat="42.9882483" lon="11.4306033"><ele>200.14285714285717</ele><time>2026-04-11T12:03:08.977Z</time></trkpt><trkpt lat="42.9882417" lon="11.4307033"><ele>199.71428571428572</ele><time>2026-04-11T12:03:12.977Z</time></trkpt><trkpt lat="42.988235" lon="11.4307933"><ele>199.28571428571428</ele><time>2026-04-11T12:03:15.977Z</time></trkpt><trkpt lat="42.9882183" lon="11.4308833"><ele>198.85714285714283</ele><time>2026-04-11T12:03:18.977Z</time></trkpt><trkpt lat="42.98819" lon="11.4309683"><ele>198.42857142857144</ele><time>2026-04-11T12:03:21.976Z</time></trkpt><trkpt lat="42.9881717" lon="11.4310633"><ele>198.0</ele><time>2026-04-11T12:03:24.976Z</time></trkpt><trkpt lat="42.9881483" lon="11.4311567"><ele>198.0</ele><time>2026-04-11T12:03:27.976Z</time></trkpt><trkpt lat="42.9881133" lon="11.431275"><ele>198.0</ele><time>2026-04-11T12:03:30.977Z</time></trkpt><trkpt lat="42.9880917" lon="11.4313733"><ele>198.0</ele><time>2026-04-11T12:03:33.976Z</time></trkpt><trkpt lat="42.98809" lon="11.43147"><ele>198.0</ele><time>2026-04-11T12:03:36.977Z</time></trkpt><trkpt lat="42.9881033" lon="11.4315717"><ele>198.0</ele><time>2026-04-11T12:03:40.976Z</time></trkpt><trkpt lat="42.9881033" lon="11.43167"><ele>198.0</ele><time>2026-04-11T12:03:44.976Z</time></trkpt><trkpt lat="42.9881217" lon="11.4317917"><ele>197.57142857142858</ele><time>2026-04-11T12:03:47.976Z</time></trkpt><trkpt lat="42.988135" lon="11.4318783"><ele>197.14285714285714</ele><time>2026-04-11T12:03:49.977Z</time></trkpt><trkpt lat="42.9881533" lon="11.4320067"><ele>196.71428571428572</ele><time>2026-04-11T12:03:52.976Z</time></trkpt><trkpt lat="42.9881533" lon="11.4320967"><ele>196.28571428571428</ele><time>2026-04-11T12:03:54.977Z</time></trkpt><trkpt lat="42.9881367" lon="11.4321867"><ele>195.85714285714283</ele><time>2026-04-11T12:03:56.976Z</time></trkpt><trkpt lat="42.988115" lon="11.4322733"><ele>195.42857142857142</ele><time>2026-04-11T12:03:58.976Z</time></trkpt><trkpt lat="42.98808" lon="11.4323633"><ele>195.0</ele><time>2026-04-11T12:04:00.976Z</time></trkpt><trkpt lat="42.9880417" lon="11.4324533"><ele>193.16666666666666</ele><time>2026-04-11T12:04:02.976Z</time></trkpt><trkpt lat="42.9880017" lon="11.432525"><ele>191.33333333333334</ele><time>2026-04-11T12:04:04.977Z</time></trkpt><trkpt lat="42.9879467" lon="11.4326317"><ele>189.5</ele><time>2026-04-11T12:04:07.977Z</time></trkpt><trkpt lat="42.9879017" lon="11.4327167"><ele>187.66666666666669</ele><time>2026-04-11T12:04:09.976Z</time></trkpt><trkpt lat="42.9878483" lon="11.432785"><ele>185.83333333333334</ele><time>2026-04-11T12:04:11.976Z</time></trkpt><trkpt lat="42.9877917" lon="11.4328417"><ele>184.0</ele><time>2026-04-11T12:04:13.977Z</time></trkpt><trkpt lat="42.9877383" lon="11.4329167"><ele>183.83333333333334</ele><time>2026-04-11T12:04:16.976Z</time></trkpt><trkpt lat="42.9876867" lon="11.4329967"><ele>183.66666666666669</ele><time>2026-04-11T12:04:20.977Z</time></trkpt><trkpt lat="42.9876383" lon="11.4330533"><ele>183.5</ele><time>2026-04-11T12:04:23.976Z</time></trkpt><trkpt lat="42.987575" lon="11.4330883"><ele>183.33333333333334</ele><time>2026-04-11T12:04:26.976Z</time></trkpt><trkpt lat="42.9874983" lon="11.4331183"><ele>183.16666666666666</ele><time>2026-04-11T12:04:29.976Z</time></trkpt><trkpt lat="42.9874217" lon="11.4330967"><ele>183.0</ele><time>2026-04-11T12:04:32.977Z</time></trkpt><trkpt lat="42.9873383" lon="11.433065"><ele>183.0</ele><time>2026-04-11T12:04:35.976Z</time></trkpt><trkpt lat="42.98726" lon="11.4330467"><ele>183.0</ele><time>2026-04-11T12:04:38.977Z</time></trkpt><trkpt lat="42.9871867" lon="11.43302"><ele>183.0</ele><time>2026-04-11T12:04:41.976Z</time></trkpt><trkpt lat="42.9871283" lon="11.4329783"><ele>183.0</ele><time>2026-04-11T12:04:44.976Z</time></trkpt><trkpt lat="42.98706" lon="11.4329083"><ele>183.0</ele><time>2026-04-11T12:04:48.976Z</time></trkpt><trkpt lat="42.9870017" lon="11.4328317"><ele>183.0</ele><time>2026-04-11T12:04:51.976Z</time></trkpt><trkpt lat="42.98694" lon="11.43277"><ele>182.66666666666666</ele><time>2026-04-11T12:04:54.976Z</time></trkpt><trkpt lat="42.9868767" lon="11.43272"><ele>182.33333333333334</ele><time>2026-04-11T12:04:57.976Z</time></trkpt><trkpt lat="42.9868083" lon="11.4326767"><ele>182.0</ele><time>2026-04-11T12:05:00.977Z</time></trkpt><trkpt lat="42.986735" lon="11.43264"><ele>181.66666666666669</ele><time>2026-04-11T12:05:03.976Z</time></trkpt><trkpt lat="42.986655" lon="11.432595"><ele>181.33333333333334</ele><time>2026-04-11T12:05:06.976Z</time></trkpt><trkpt lat="42.9865783" lon="11.4325583"><ele>181.0</ele><time>2026-04-11T12:05:09.976Z</time></trkpt><trkpt lat="42.9865133" lon="11.432535"><ele>181.0</ele><time>2026-04-11T12:05:12.975Z</time></trkpt><trkpt lat="42.9864417" lon="11.4325183"><ele>181.0</ele><time>2026-04-11T12:05:15.975Z</time></trkpt><trkpt lat="42.9863733" lon="11.4325067"><ele>181.0</ele><time>2026-04-11T12:05:18.975Z</time></trkpt><trkpt lat="42.9863083" lon="11.43251"><ele>181.0</ele><time>2026-04-11T12:05:21.976Z</time></trkpt><trkpt lat="42.986235" lon="11.4324967"><ele>181.0</ele><time>2026-04-11T12:05:25.976Z</time></trkpt><trkpt lat="42.9861583" lon="11.4325217"><ele>181.0</ele><time>2026-04-11T12:05:29.975Z</time></trkpt><trkpt lat="42.98609" lon="11.4325817"><ele>181.0</ele><time>2026-04-11T12:05:33.975Z</time></trkpt><trkpt lat="42.9860333" lon="11.43264"><ele>181.0</ele><time>2026-04-11T12:05:36.976Z</time></trkpt><trkpt lat="42.9859833" lon="11.43271"><ele>181.0</ele><time>2026-04-11T12:05:39.975Z</time></trkpt><trkpt lat="42.9859383" lon="11.4327933"><ele>181.0</ele><time>2026-04-11T12:05:42.976Z</time></trkpt><trkpt lat="42.985885" lon="11.4328733"><ele>181.0</ele><time>2026-04-11T12:05:45.975Z</time></trkpt><trkpt lat="42.9858533" lon="11.4329483"><ele>181.0</ele><time>2026-04-11T12:05:48.976Z</time></trkpt><trkpt lat="42.985825" lon="11.4330267"><ele>181.0</ele><time>2026-04-11T12:05:51.975Z</time></trkpt><trkpt lat="42.98579" lon="11.4331017"><ele>181.0</ele><time>2026-04-11T12:05:54.976Z</time></trkpt><trkpt lat="42.9857567" lon="11.4331783"><ele>183.0</ele><time>2026-04-11T12:05:57.975Z</time></trkpt><trkpt lat="42.9857233" lon="11.4332683"><ele>185.0</ele><time>2026-04-11T12:06:01.975Z</time></trkpt><trkpt lat="42.9856833" lon="11.4333383"><ele>187.0</ele><time>2026-04-11T12:06:04.976Z</time></trkpt><trkpt lat="42.9856517" lon="11.433435"><ele>189.0</ele><time>2026-04-11T12:06:08.975Z</time></trkpt><trkpt lat="42.9856167" lon="11.433515"><ele>191.0</ele><time>2026-04-11T12:06:11.975Z</time></trkpt><trkpt lat="42.985575" lon="11.4335983"><ele>193.0</ele><time>2026-04-11T12:06:14.975Z</time></trkpt><trkpt lat="42.9855467" lon="11.4336833"><ele>195.0</ele><time>2026-04-11T12:06:17.975Z</time></trkpt><trkpt lat="42.985505" lon="11.4337667"><ele>196.16666666666666</ele><time>2026-04-11T12:06:20.975Z</time></trkpt><trkpt lat="42.9854533" lon="11.43386"><ele>197.33333333333331</ele><time>2026-04-11T12:06:23.975Z</time></trkpt><trkpt lat="42.9854217" lon="11.43395"><ele>198.5</ele><time>2026-04-11T12:06:26.976Z</time></trkpt><trkpt lat="42.98539" lon="11.4340417"><ele>199.66666666666666</ele><time>2026-04-11T12:06:29.975Z</time></trkpt><trkpt lat="42.9853417" lon="11.4341417"><ele>200.83333333333331</ele><time>2026-04-11T12:06:32.975Z</time></trkpt><trkpt lat="42.9853017" lon="11.4342283"><ele>202.0</ele><time>2026-04-11T12:06:35.975Z</time></trkpt><trkpt lat="42.985255" lon="11.4343117"><ele>201.99999999999997</ele><time>2026-04-11T12:06:38.976Z</time></trkpt><trkpt lat="42.9852217" lon="11.434405"><ele>202.0</ele><time>2026-04-11T12:06:42.975Z</time></trkpt><trkpt lat="42.9851483" lon="11.4344683"><ele>202.0</ele><time>2026-04-11T12:07:44.975Z</time></trkpt><trkpt lat="42.985085" lon="11.4344367"><ele>202.0</ele><time>2026-04-11T12:07:47.975Z</time></trkpt><trkpt lat="42.9850117" lon="11.434365"><ele>201.99999999999997</ele><time>2026-04-11T12:07:50.976Z</time></trkpt><trkpt lat="42.984955" lon="11.43431"><ele>202.0</ele><time>2026-04-11T12:07:52.975Z</time></trkpt><trkpt lat="42.9849" lon="11.4342567"><ele>200.83333333333331</ele><time>2026-04-11T12:07:54.975Z</time></trkpt><trkpt lat="42.9848217" lon="11.43417"><ele>199.66666666666666</ele><time>2026-04-11T12:07:57.975Z</time></trkpt><trkpt lat="42.9847583" lon="11.4341083"><ele>198.5</ele><time>2026-04-11T12:07:59.975Z</time></trkpt><trkpt lat="42.9846917" lon="11.4340583"><ele>197.33333333333331</ele><time>2026-04-11T12:08:01.976Z</time></trkpt><trkpt lat="42.98463" lon="11.4340067"><ele>196.16666666666666</ele><time>2026-04-11T12:08:03.976Z</time></trkpt><trkpt lat="42.98457" lon="11.433955"><ele>195.0</ele><time>2026-04-11T12:08:05.975Z</time></trkpt><trkpt lat="42.9845067" lon="11.4338883"><ele>195.0</ele><time>2026-04-11T12:08:07.975Z</time></trkpt><trkpt lat="42.98444" lon="11.4338283"><ele>195.0</ele><time>2026-04-11T12:08:09.975Z</time></trkpt><trkpt lat="42.984375" lon="11.4337617"><ele>195.0</ele><time>2026-04-11T12:08:11.975Z</time></trkpt><trkpt lat="42.98431" lon="11.43369"><ele>195.0</ele><time>2026-04-11T12:08:13.975Z</time></trkpt><trkpt lat="42.984245" lon="11.433625"><ele>195.0</ele><time>2026-04-11T12:08:15.975Z</time></trkpt><trkpt lat="42.9841833" lon="11.4335683"><ele>195.0</ele><time>2026-04-11T12:08:17.975Z</time></trkpt><trkpt lat="42.98411" lon="11.4335067"><ele>195.0</ele><time>2026-04-11T12:08:19.975Z</time></trkpt><trkpt lat="42.9840383" lon="11.43345"><ele>195.0</ele><time>2026-04-11T12:08:21.975Z</time></trkpt><trkpt lat="42.9839683" lon="11.4333933"><ele>195.0</ele><time>2026-04-11T12:08:23.976Z</time></trkpt><trkpt lat="42.9839017" lon="11.43334"><ele>195.0</ele><time>2026-04-11T12:08:25.975Z</time></trkpt><trkpt lat="42.9838233" lon="11.4332867"><ele>195.0</ele><time>2026-04-11T12:08:27.975Z</time></trkpt><trkpt lat="42.98374" lon="11.4332467"><ele>195.0</ele><time>2026-04-11T12:08:29.975Z</time></trkpt><trkpt lat="42.9836633" lon="11.4332067"><ele>195.0</ele><time>2026-04-11T12:08:31.975Z</time></trkpt><trkpt lat="42.9835867" lon="11.43317"><ele>195.0</ele><time>2026-04-11T12:08:33.976Z</time></trkpt><trkpt lat="42.9835083" lon="11.4331367"><ele>195.0</ele><time>2026-04-11T12:08:35.975Z</time></trkpt><trkpt lat="42.9834283" lon="11.4331167"><ele>195.0</ele><time>2026-04-11T12:08:37.975Z</time></trkpt><trkpt lat="42.9833467" lon="11.433085"><ele>195.0</ele><time>2026-04-11T12:08:39.975Z</time></trkpt><trkpt lat="42.9832717" lon="11.4330483"><ele>195.0</ele><time>2026-04-11T12:08:41.975Z</time></trkpt><trkpt lat="42.9831967" lon="11.4330117"><ele>196.0</ele><time>2026-04-11T12:08:43.976Z</time></trkpt><trkpt lat="42.9831283" lon="11.43297"><ele>197.0</ele><time>2026-04-11T12:08:45.975Z</time></trkpt><trkpt lat="42.9830567" lon="11.4329333"><ele>198.0</ele><time>2026-04-11T12:08:47.976Z</time></trkpt><trkpt lat="42.9829817" lon="11.4329"><ele>199.0</ele><time>2026-04-11T12:08:49.975Z</time></trkpt><trkpt lat="42.9829083" lon="11.4328733"><ele>200.0</ele><time>2026-04-11T12:08:51.976Z</time></trkpt><trkpt lat="42.9828283" lon="11.432835"><ele>201.0</ele><time>2026-04-11T12:08:53.975Z</time></trkpt><trkpt lat="42.98275" lon="11.4327933"><ele>201.0</ele><time>2026-04-11T12:08:55.975Z</time></trkpt><trkpt lat="42.982675" lon="11.4327567"><ele>201.0</ele><time>2026-04-11T12:08:57.975Z</time></trkpt><trkpt lat="42.982595" lon="11.4327267"><ele>201.0</ele><time>2026-04-11T12:08:59.976Z</time></trkpt><trkpt lat="42.982525" lon="11.4326917"><ele>201.0</ele><time>2026-04-11T12:09:01.975Z</time></trkpt><trkpt lat="42.9824483" lon="11.43265"><ele>201.0</ele><time>2026-04-11T12:09:03.975Z</time></trkpt><trkpt lat="42.9823717" lon="11.43262"><ele>201.0</ele><time>2026-04-11T12:09:05.974Z</time></trkpt><trkpt lat="42.9822917" lon="11.4325817"><ele>201.33333333333334</ele><time>2026-04-11T12:09:07.974Z</time></trkpt><trkpt lat="42.9822217" lon="11.432545"><ele>201.66666666666669</ele><time>2026-04-11T12:09:09.974Z</time></trkpt><trkpt lat="42.98215" lon="11.4325167"><ele>202.0</ele><time>2026-04-11T12:09:11.974Z</time></trkpt><trkpt lat="42.982075" lon="11.4324917"><ele>202.33333333333334</ele><time>2026-04-11T12:09:13.974Z</time></trkpt><trkpt lat="42.982005" lon="11.4324583"><ele>202.66666666666669</ele><time>2026-04-11T12:09:15.974Z</time></trkpt><trkpt lat="42.981925" lon="11.4324333"><ele>203.0</ele><time>2026-04-11T12:09:17.974Z</time></trkpt><trkpt lat="42.9818483" lon="11.4324"><ele>203.00000000000003</ele><time>2026-04-11T12:09:19.975Z</time></trkpt><trkpt lat="42.981775" lon="11.4323667"><ele>203.0</ele><time>2026-04-11T12:09:21.975Z</time></trkpt><trkpt lat="42.9816983" lon="11.4323317"><ele>203.0</ele><time>2026-04-11T12:09:23.974Z</time></trkpt><trkpt lat="42.9816217" lon="11.4322983"><ele>203.0</ele><time>2026-04-11T12:09:25.974Z</time></trkpt><trkpt lat="42.9815483" lon="11.43226"><ele>203.00000000000003</ele><time>2026-04-11T12:09:27.974Z</time></trkpt><trkpt lat="42.98147" lon="11.4322233"><ele>203.0</ele><time>2026-04-11T12:09:29.974Z</time></trkpt><trkpt lat="42.981395" lon="11.43218"><ele>203.16666666666669</ele><time>2026-04-11T12:09:31.974Z</time></trkpt><trkpt lat="42.9813167" lon="11.43214"><ele>203.33333333333334</ele><time>2026-04-11T12:09:33.974Z</time></trkpt><trkpt lat="42.9812417" lon="11.4321083"><ele>203.5</ele><time>2026-04-11T12:09:35.975Z</time></trkpt><trkpt lat="42.9811617" lon="11.4320767"><ele>203.66666666666669</ele><time>2026-04-11T12:09:37.974Z</time></trkpt><trkpt lat="42.981085" lon="11.4320483"><ele>203.83333333333334</ele><time>2026-04-11T12:09:39.974Z</time></trkpt><trkpt lat="42.9810183" lon="11.4320083"><ele>204.0</ele><time>2026-04-11T12:09:41.975Z</time></trkpt><trkpt lat="42.9809533" lon="11.4319733"><ele>204.57142857142858</ele><time>2026-04-11T12:09:43.974Z</time></trkpt><trkpt lat="42.9808867" lon="11.431945"><ele>205.14285714285717</ele><time>2026-04-11T12:09:45.974Z</time></trkpt><trkpt lat="42.9808217" lon="11.431915"><ele>205.71428571428572</ele><time>2026-04-11T12:09:47.974Z</time></trkpt><trkpt lat="42.9807583" lon="11.4318817"><ele>206.28571428571428</ele><time>2026-04-11T12:09:49.974Z</time></trkpt><trkpt lat="42.980695" lon="11.43184"><ele>206.85714285714286</ele><time>2026-04-11T12:09:51.975Z</time></trkpt><trkpt lat="42.9806267" lon="11.43181"><ele>207.42857142857142</ele><time>2026-04-11T12:09:53.975Z</time></trkpt><trkpt lat="42.98056" lon="11.4317833"><ele>208.0</ele><time>2026-04-11T12:09:55.974Z</time></trkpt><trkpt lat="42.9804967" lon="11.4317583"><ele>208.16666666666666</ele><time>2026-04-11T12:09:57.975Z</time></trkpt><trkpt lat="42.9804083" lon="11.4317167"><ele>208.33333333333331</ele><time>2026-04-11T12:10:00.974Z</time></trkpt><trkpt lat="42.9803217" lon="11.431685"><ele>208.5</ele><time>2026-04-11T12:10:03.974Z</time></trkpt><trkpt lat="42.9802333" lon="11.4316483"><ele>208.66666666666669</ele><time>2026-04-11T12:10:06.974Z</time></trkpt><trkpt lat="42.9801483" lon="11.4316117"><ele>208.83333333333334</ele><time>2026-04-11T12:10:09.974Z</time></trkpt><trkpt lat="42.9800733" lon="11.4315833"><ele>209.0</ele><time>2026-04-11T12:10:12.974Z</time></trkpt><trkpt lat="42.9799917" lon="11.43153"><ele>209.00000000000003</ele><time>2026-04-11T12:10:15.975Z</time></trkpt><trkpt lat="42.979915" lon="11.4314983"><ele>209.0</ele><time>2026-04-11T12:10:18.975Z</time></trkpt><trkpt lat="42.9798267" lon="11.4314617"><ele>209.0</ele><time>2026-04-11T12:10:21.974Z</time></trkpt><trkpt lat="42.979765" lon="11.4314383"><ele>209.0</ele><time>2026-04-11T12:10:23.974Z</time></trkpt><trkpt lat="42.9797017" lon="11.4314083"><ele>209.00000000000003</ele><time>2026-04-11T12:10:25.974Z</time></trkpt><trkpt lat="42.9796133" lon="11.4313667"><ele>209.0</ele><time>2026-04-11T12:10:28.974Z</time></trkpt><trkpt lat="42.9795533" lon="11.4313317"><ele>209.42857142857142</ele><time>2026-04-11T12:10:30.975Z</time></trkpt><trkpt lat="42.9794933" lon="11.431305"><ele>209.85714285714283</ele><time>2026-04-11T12:10:32.974Z</time></trkpt><trkpt lat="42.9794283" lon="11.43128"><ele>210.28571428571428</ele><time>2026-04-11T12:10:34.974Z</time></trkpt><trkpt lat="42.9793617" lon="11.4312567"><ele>210.71428571428572</ele><time>2026-04-11T12:10:36.975Z</time></trkpt><trkpt lat="42.9792917" lon="11.4312267"><ele>211.14285714285714</ele><time>2026-04-11T12:10:38.974Z</time></trkpt><trkpt lat="42.97922" lon="11.4311917"><ele>211.57142857142858</ele><time>2026-04-11T12:10:40.975Z</time></trkpt><trkpt lat="42.9791517" lon="11.4311633"><ele>212.0</ele><time>2026-04-11T12:10:42.974Z</time></trkpt><trkpt lat="42.97908" lon="11.4311283"><ele>212.33333333333334</ele><time>2026-04-11T12:10:44.975Z</time></trkpt><trkpt lat="42.97901" lon="11.4310867"><ele>212.66666666666669</ele><time>2026-04-11T12:10:46.974Z</time></trkpt><trkpt lat="42.97893" lon="11.4310567"><ele>213.0</ele><time>2026-04-11T12:10:48.975Z</time></trkpt><trkpt lat="42.9788567" lon="11.4310217"><ele>213.33333333333331</ele><time>2026-04-11T12:10:50.974Z</time></trkpt><trkpt lat="42.9787833" lon="11.430985"><ele>213.66666666666666</ele><time>2026-04-11T12:10:52.974Z</time></trkpt><trkpt lat="42.9787067" lon="11.43095"><ele>214.0</ele><time>2026-04-11T12:10:54.974Z</time></trkpt><trkpt lat="42.97863" lon="11.4309167"><ele>213.99999999999997</ele><time>2026-04-11T12:10:56.974Z</time></trkpt><trkpt lat="42.9785467" lon="11.430885"><ele>214.0</ele><time>2026-04-11T12:10:58.974Z</time></trkpt><trkpt lat="42.9784667" lon="11.4308467"><ele>214.0</ele><time>2026-04-11T12:11:00.974Z</time></trkpt><trkpt lat="42.9783867" lon="11.4308083"><ele>214.0</ele><time>2026-04-11T12:11:02.974Z</time></trkpt><trkpt lat="42.9783017" lon="11.4307633"><ele>213.99999999999997</ele><time>2026-04-11T12:11:04.974Z</time></trkpt><trkpt lat="42.97821" lon="11.4307333"><ele>214.0</ele><time>2026-04-11T12:11:06.974Z</time></trkpt><trkpt lat="42.9781183" lon="11.43069"><ele>213.39999999999998</ele><time>2026-04-11T12:11:08.974Z</time></trkpt><trkpt lat="42.97802" lon="11.4306467"><ele>212.79999999999998</ele><time>2026-04-11T12:11:10.974Z</time></trkpt><trkpt lat="42.9779233" lon="11.4306"><ele>212.2</ele><time>2026-04-11T12:11:12.974Z</time></trkpt><trkpt lat="42.977815" lon="11.43056"><ele>211.60000000000002</ele><time>2026-04-11T12:11:14.974Z</time></trkpt><trkpt lat="42.9777067" lon="11.43052"><ele>211.0</ele><time>2026-04-11T12:11:16.974Z</time></trkpt><trkpt lat="42.9775983" lon="11.430475"><ele>210.5</ele><time>2026-04-11T12:11:18.974Z</time></trkpt><trkpt lat="42.977485" lon="11.4304383"><ele>210.0</ele><time>2026-04-11T12:11:20.974Z</time></trkpt><trkpt lat="42.977365" lon="11.4304133"><ele>209.5</ele><time>2026-04-11T12:11:22.974Z</time></trkpt><trkpt lat="42.9772417" lon="11.430395"><ele>209.0</ele><time>2026-04-11T12:11:24.974Z</time></trkpt><trkpt lat="42.97712" lon="11.4304017"><ele>209.00000000000003</ele><time>2026-04-11T12:11:26.974Z</time></trkpt><trkpt lat="42.977" lon="11.430415"><ele>209.0</ele><time>2026-04-11T12:11:28.974Z</time></trkpt><trkpt lat="42.9768767" lon="11.4304467"><ele>209.0</ele><time>2026-04-11T12:11:30.974Z</time></trkpt><trkpt lat="42.9768133" lon="11.43046"><ele>209.0</ele><time>2026-04-11T12:11:31.974Z</time></trkpt><trkpt lat="42.9767483" lon="11.4304833"><ele>209.00000000000003</ele><time>2026-04-11T12:11:32.974Z</time></trkpt><trkpt lat="42.976685" lon="11.4305133"><ele>209.0</ele><time>2026-04-11T12:11:33.974Z</time></trkpt><trkpt lat="42.9766167" lon="11.4305483"><ele>208.0</ele><time>2026-04-11T12:11:34.974Z</time></trkpt><trkpt lat="42.9765533" lon="11.4305883"><ele>207.0</ele><time>2026-04-11T12:11:35.974Z</time></trkpt><trkpt lat="42.9764933" lon="11.4306333"><ele>206.0</ele><time>2026-04-11T12:11:36.974Z</time></trkpt><trkpt lat="42.97643" lon="11.4306717"><ele>205.0</ele><time>2026-04-11T12:11:37.974Z</time></trkpt><trkpt lat="42.9763683" lon="11.4307217"><ele>204.0</ele><time>2026-04-11T12:11:38.974Z</time></trkpt><trkpt lat="42.9763117" lon="11.4307783"><ele>203.0</ele><time>2026-04-11T12:11:39.974Z</time></trkpt><trkpt lat="42.9762533" lon="11.4308433"><ele>202.0</ele><time>2026-04-11T12:11:40.974Z</time></trkpt><trkpt lat="42.9761917" lon="11.4309033"><ele>202.0</ele><time>2026-04-11T12:11:41.975Z</time></trkpt><trkpt lat="42.97612" lon="11.4309533"><ele>202.0</ele><time>2026-04-11T12:11:42.974Z</time></trkpt><trkpt lat="42.9760567" lon="11.4310017"><ele>202.0</ele><time>2026-04-11T12:11:43.974Z</time></trkpt><trkpt lat="42.9760017" lon="11.4310583"><ele>202.0</ele><time>2026-04-11T12:11:44.973Z</time></trkpt><trkpt lat="42.9759417" lon="11.4311133"><ele>202.0</ele><time>2026-04-11T12:11:45.974Z</time></trkpt><trkpt lat="42.9758867" lon="11.431165"><ele>202.0</ele><time>2026-04-11T12:11:46.974Z</time></trkpt><trkpt lat="42.9758367" lon="11.4312183"><ele>202.0</ele><time>2026-04-11T12:11:47.975Z</time></trkpt><trkpt lat="42.9757767" lon="11.43127"><ele>201.42857142857142</ele><time>2026-04-11T12:11:48.974Z</time></trkpt><trkpt lat="42.9757167" lon="11.4313233"><ele>200.85714285714283</ele><time>2026-04-11T12:11:49.974Z</time></trkpt><trkpt lat="42.9756617" lon="11.4313817"><ele>200.28571428571428</ele><time>2026-04-11T12:11:50.975Z</time></trkpt><trkpt lat="42.9756067" lon="11.431435"><ele>199.71428571428572</ele><time>2026-04-11T12:11:51.975Z</time></trkpt><trkpt lat="42.9755533" lon="11.431485"><ele>199.14285714285714</ele><time>2026-04-11T12:11:52.975Z</time></trkpt><trkpt lat="42.9755017" lon="11.43154"><ele>198.57142857142858</ele><time>2026-04-11T12:11:53.974Z</time></trkpt><trkpt lat="42.97545" lon="11.4315933"><ele>198.0</ele><time>2026-04-11T12:11:54.975Z</time></trkpt><trkpt lat="42.9753933" lon="11.4316433"><ele>198.0</ele><time>2026-04-11T12:11:55.974Z</time></trkpt><trkpt lat="42.97529" lon="11.4317383"><ele>198.0</ele><time>2026-04-11T12:11:57.974Z</time></trkpt><trkpt lat="42.9752117" lon="11.4318483"><ele>198.0</ele><time>2026-04-11T12:11:59.974Z</time></trkpt><trkpt lat="42.9751733" lon="11.4319167"><ele>198.0</ele><time>2026-04-11T12:12:00.974Z</time></trkpt><trkpt lat="42.9751383" lon="11.4319967"><ele>198.0</ele><time>2026-04-11T12:12:01.974Z</time></trkpt><trkpt lat="42.97511" lon="11.4320833"><ele>198.0</ele><time>2026-04-11T12:12:02.975Z</time></trkpt><trkpt lat="42.975085" lon="11.4321683"><ele>197.83333333333334</ele><time>2026-04-11T12:12:03.974Z</time></trkpt><trkpt lat="42.9750667" lon="11.43226"><ele>197.66666666666669</ele><time>2026-04-11T12:12:04.974Z</time></trkpt><trkpt lat="42.975055" lon="11.432345"><ele>197.5</ele><time>2026-04-11T12:12:05.975Z</time></trkpt><trkpt lat="42.9750383" lon="11.432435"><ele>197.33333333333334</ele><time>2026-04-11T12:12:06.974Z</time></trkpt><trkpt lat="42.9750217" lon="11.4325283"><ele>197.16666666666669</ele><time>2026-04-11T12:12:07.974Z</time></trkpt><trkpt lat="42.9750067" lon="11.43262"><ele>197.0</ele><time>2026-04-11T12:12:08.974Z</time></trkpt><trkpt lat="42.974955" lon="11.4327883"><ele>197.00000000000003</ele><time>2026-04-11T12:12:10.974Z</time></trkpt><trkpt lat="42.9749067" lon="11.43287"><ele>197.0</ele><time>2026-04-11T12:12:11.975Z</time></trkpt><trkpt lat="42.97485" lon="11.4329433"><ele>197.0</ele><time>2026-04-11T12:12:12.974Z</time></trkpt><trkpt lat="42.9747817" lon="11.433005"><ele>197.0</ele><time>2026-04-11T12:12:13.974Z</time></trkpt><trkpt lat="42.9747083" lon="11.433065"><ele>197.00000000000003</ele><time>2026-04-11T12:12:14.974Z</time></trkpt><trkpt lat="42.9746433" lon="11.4331167"><ele>197.0</ele><time>2026-04-11T12:12:15.974Z</time></trkpt><trkpt lat="42.9745733" lon="11.4331533"><ele>196.33333333333334</ele><time>2026-04-11T12:12:16.975Z</time></trkpt><trkpt lat="42.9745033" lon="11.4332"><ele>195.66666666666669</ele><time>2026-04-11T12:12:17.974Z</time></trkpt><trkpt lat="42.9744367" lon="11.4332483"><ele>195.0</ele><time>2026-04-11T12:12:18.975Z</time></trkpt><trkpt lat="42.9743567" lon="11.4332917"><ele>194.33333333333331</ele><time>2026-04-11T12:12:19.975Z</time></trkpt><trkpt lat="42.9742817" lon="11.4333267"><ele>193.66666666666666</ele><time>2026-04-11T12:12:20.974Z</time></trkpt><trkpt lat="42.9742083" lon="11.4333683"><ele>193.0</ele><time>2026-04-11T12:12:21.974Z</time></trkpt><trkpt lat="42.9741333" lon="11.433415"><ele>192.99999999999997</ele><time>2026-04-11T12:12:22.975Z</time></trkpt><trkpt lat="42.97406" lon="11.433465"><ele>193.0</ele><time>2026-04-11T12:12:23.974Z</time></trkpt><trkpt lat="42.9739833" lon="11.433515"><ele>193.0</ele><time>2026-04-11T12:12:24.975Z</time></trkpt><trkpt lat="42.9739083" lon="11.4335633"><ele>193.0</ele><time>2026-04-11T12:12:25.974Z</time></trkpt><trkpt lat="42.973835" lon="11.4336183"><ele>192.99999999999997</ele><time>2026-04-11T12:12:26.975Z</time></trkpt><trkpt lat="42.9737667" lon="11.4336767"><ele>193.0</ele><time>2026-04-11T12:12:27.975Z</time></trkpt><trkpt lat="42.9737" lon="11.4337333"><ele>192.99999999999997</ele><time>2026-04-11T12:12:28.974Z</time></trkpt><trkpt lat="42.9736283" lon="11.4337867"><ele>193.0</ele><time>2026-04-11T12:12:29.974Z</time></trkpt><trkpt lat="42.973555" lon="11.4338417"><ele>193.0</ele><time>2026-04-11T12:12:30.975Z</time></trkpt><trkpt lat="42.9734817" lon="11.4339"><ele>193.0</ele><time>2026-04-11T12:12:31.974Z</time></trkpt><trkpt lat="42.9734033" lon="11.4339567"><ele>192.99999999999997</ele><time>2026-04-11T12:12:32.974Z</time></trkpt><trkpt lat="42.9733283" lon="11.4340133"><ele>193.0</ele><time>2026-04-11T12:12:33.974Z</time></trkpt><trkpt lat="42.9732533" lon="11.4340717"><ele>191.66666666666666</ele><time>2026-04-11T12:12:34.974Z</time></trkpt><trkpt lat="42.9731783" lon="11.4341317"><ele>190.33333333333331</ele><time>2026-04-11T12:12:35.974Z</time></trkpt><trkpt lat="42.9731017" lon="11.4341833"><ele>189.0</ele><time>2026-04-11T12:12:36.974Z</time></trkpt><trkpt lat="42.9730283" lon="11.4342367"><ele>187.66666666666666</ele><time>2026-04-11T12:12:37.974Z</time></trkpt><trkpt lat="42.9729483" lon="11.434295"><ele>186.33333333333331</ele><time>2026-04-11T12:12:38.974Z</time></trkpt><trkpt lat="42.97287" lon="11.434355"><ele>185.0</ele><time>2026-04-11T12:12:39.974Z</time></trkpt><trkpt lat="42.9727933" lon="11.4344133"><ele>185.0</ele><time>2026-04-11T12:12:40.974Z</time></trkpt><trkpt lat="42.9727117" lon="11.4344733"><ele>185.0</ele><time>2026-04-11T12:12:41.974Z</time></trkpt><trkpt lat="42.9726367" lon="11.434535"><ele>185.0</ele><time>2026-04-11T12:12:42.974Z</time></trkpt><trkpt lat="42.9725617" lon="11.4345933"><ele>185.0</ele><time>2026-04-11T12:12:43.974Z</time></trkpt><trkpt lat="42.9724883" lon="11.4346467"><ele>185.0</ele><time>2026-04-11T12:12:44.974Z</time></trkpt><trkpt lat="42.9724217" lon="11.43469"><ele>185.0</ele><time>2026-04-11T12:12:45.974Z</time></trkpt><trkpt lat="42.972345" lon="11.434725"><ele>183.66666666666666</ele><time>2026-04-11T12:12:46.975Z</time></trkpt><trkpt lat="42.9722667" lon="11.4347583"><ele>182.33333333333331</ele><time>2026-04-11T12:12:47.974Z</time></trkpt><trkpt lat="42.9721867" lon="11.43478"><ele>181.0</ele><time>2026-04-11T12:12:48.974Z</time></trkpt><trkpt lat="42.97211" lon="11.4347967"><ele>179.66666666666666</ele><time>2026-04-11T12:12:49.974Z</time></trkpt><trkpt lat="42.9720317" lon="11.4347967"><ele>178.33333333333334</ele><time>2026-04-11T12:12:50.974Z</time></trkpt><trkpt lat="42.9719517" lon="11.4347933"><ele>177.0</ele><time>2026-04-11T12:12:51.975Z</time></trkpt><trkpt lat="42.9718717" lon="11.4347917"><ele>177.0</ele><time>2026-04-11T12:12:52.975Z</time></trkpt><trkpt lat="42.9717933" lon="11.43479"><ele>177.0</ele><time>2026-04-11T12:12:53.974Z</time></trkpt><trkpt lat="42.9717167" lon="11.4347833"><ele>177.0</ele><time>2026-04-11T12:12:54.974Z</time></trkpt><trkpt lat="42.9716367" lon="11.434775"><ele>177.0</ele><time>2026-04-11T12:12:55.974Z</time></trkpt><trkpt lat="42.971555" lon="11.4347633"><ele>177.0</ele><time>2026-04-11T12:12:56.974Z</time></trkpt><trkpt lat="42.971475" lon="11.43475"><ele>177.0</ele><time>2026-04-11T12:12:57.974Z</time></trkpt><trkpt lat="42.9714" lon="11.4347467"><ele>176.5</ele><time>2026-04-11T12:12:58.975Z</time></trkpt><trkpt lat="42.97132" lon="11.43473"><ele>176.0</ele><time>2026-04-11T12:12:59.974Z</time></trkpt><trkpt lat="42.9712383" lon="11.4347"><ele>175.5</ele><time>2026-04-11T12:13:00.974Z</time></trkpt><trkpt lat="42.9711617" lon="11.4346683"><ele>175.0</ele><time>2026-04-11T12:13:01.974Z</time></trkpt><trkpt lat="42.9710767" lon="11.4346183"><ele>174.5</ele><time>2026-04-11T12:13:02.974Z</time></trkpt><trkpt lat="42.970995" lon="11.434575"><ele>174.0</ele><time>2026-04-11T12:13:03.974Z</time></trkpt><trkpt lat="42.970915" lon="11.4345217"><ele>176.0</ele><time>2026-04-11T12:13:04.974Z</time></trkpt><trkpt lat="42.9708283" lon="11.434475"><ele>178.0</ele><time>2026-04-11T12:13:05.974Z</time></trkpt><trkpt lat="42.9707417" lon="11.4344383"><ele>180.0</ele><time>2026-04-11T12:13:06.974Z</time></trkpt><trkpt lat="42.9706467" lon="11.434415"><ele>182.0</ele><time>2026-04-11T12:13:07.975Z</time></trkpt><trkpt lat="42.9705567" lon="11.434405"><ele>184.0</ele><time>2026-04-11T12:13:08.974Z</time></trkpt><trkpt lat="42.970465" lon="11.4343967"><ele>184.0</ele><time>2026-04-11T12:13:09.975Z</time></trkpt><trkpt lat="42.970375" lon="11.43441"><ele>184.0</ele><time>2026-04-11T12:13:10.974Z</time></trkpt><trkpt lat="42.970285" lon="11.434415"><ele>184.0</ele><time>2026-04-11T12:13:11.974Z</time></trkpt><trkpt lat="42.970195" lon="11.4344217"><ele>184.0</ele><time>2026-04-11T12:13:12.974Z</time></trkpt><trkpt lat="42.9701033" lon="11.4344183"><ele>184.0</ele><time>2026-04-11T12:13:13.975Z</time></trkpt><trkpt lat="42.9700117" lon="11.4344033"><ele>181.6</ele><time>2026-04-11T12:13:14.974Z</time></trkpt><trkpt lat="42.9699183" lon="11.4343883"><ele>179.2</ele><time>2026-04-11T12:13:15.975Z</time></trkpt><trkpt lat="42.9698383" lon="11.43433"><ele>176.79999999999998</ele><time>2026-04-11T12:13:16.974Z</time></trkpt><trkpt lat="42.9697667" lon="11.434255"><ele>174.39999999999998</ele><time>2026-04-11T12:13:17.974Z</time></trkpt><trkpt lat="42.9697083" lon="11.4341617"><ele>172.0</ele><time>2026-04-11T12:13:18.974Z</time></trkpt><trkpt lat="42.9696617" lon="11.434045"><ele>172.0</ele><time>2026-04-11T12:13:19.974Z</time></trkpt><trkpt lat="42.9696183" lon="11.4339267"><ele>172.0</ele><time>2026-04-11T12:13:20.974Z</time></trkpt><trkpt lat="42.9695733" lon="11.4338117"><ele>172.0</ele><time>2026-04-11T12:13:21.974Z</time></trkpt><trkpt lat="42.969525" lon="11.4336933"><ele>172.0</ele><time>2026-04-11T12:13:22.975Z</time></trkpt><trkpt lat="42.9694783" lon="11.4335733"><ele>172.0</ele><time>2026-04-11T12:13:23.975Z</time></trkpt><trkpt lat="42.969425" lon="11.43346"><ele>172.66666666666669</ele><time>2026-04-11T12:13:24.975Z</time></trkpt><trkpt lat="42.9693633" lon="11.4333367"><ele>173.33333333333334</ele><time>2026-04-11T12:13:25.974Z</time></trkpt><trkpt lat="42.9693083" lon="11.4332217"><ele>174.0</ele><time>2026-04-11T12:13:26.974Z</time></trkpt><trkpt lat="42.9692533" lon="11.433135"><ele>174.66666666666666</ele><time>2026-04-11T12:13:27.974Z</time></trkpt><trkpt lat="42.9692" lon="11.4330667"><ele>175.33333333333331</ele><time>2026-04-11T12:13:28.974Z</time></trkpt><trkpt lat="42.9691433" lon="11.4330033"><ele>176.0</ele><time>2026-04-11T12:13:29.974Z</time></trkpt><trkpt lat="42.9690883" lon="11.4329467"><ele>172.20000000000002</ele><time>2026-04-11T12:13:30.974Z</time></trkpt><trkpt lat="42.9689933" lon="11.4328617"><ele>168.4</ele><time>2026-04-11T12:13:32.974Z</time></trkpt><trkpt lat="42.96891" lon="11.4327683"><ele>164.6</ele><time>2026-04-11T12:13:34.974Z</time></trkpt><trkpt lat="42.9688233" lon="11.4326983"><ele>160.8</ele><time>2026-04-11T12:13:36.974Z</time></trkpt><trkpt lat="42.9687583" lon="11.432615"><ele>157.0</ele><time>2026-04-11T12:13:38.974Z</time></trkpt><trkpt lat="42.968685" lon="11.4325417"><ele>157.0</ele><time>2026-04-11T12:13:40.974Z</time></trkpt><trkpt lat="42.9686117" lon="11.432465"><ele>157.0</ele><time>2026-04-11T12:13:42.974Z</time></trkpt><trkpt lat="42.9685583" lon="11.4323483"><ele>157.0</ele><time>2026-04-11T12:13:44.975Z</time></trkpt><trkpt lat="42.968515" lon="11.43222"><ele>157.0</ele><time>2026-04-11T12:13:46.975Z</time></trkpt><trkpt lat="42.96849" lon="11.432105"><ele>157.0</ele><time>2026-04-11T12:13:48.974Z</time></trkpt><trkpt lat="42.9684717" lon="11.431975"><ele>157.0</ele><time>2026-04-11T12:13:50.973Z</time></trkpt><trkpt lat="42.96846" lon="11.431835"><ele>157.0</ele><time>2026-04-11T12:13:52.973Z</time></trkpt><trkpt lat="42.96846" lon="11.4316917"><ele>157.0</ele><time>2026-04-11T12:13:54.974Z</time></trkpt><trkpt lat="42.9684667" lon="11.43155"><ele>157.0</ele><time>2026-04-11T12:13:56.974Z</time></trkpt><trkpt lat="42.9684933" lon="11.4314033"><ele>157.0</ele><time>2026-04-11T12:13:58.973Z</time></trkpt><trkpt lat="42.96851" lon="11.4312717"><ele>156.6</ele><time>2026-04-11T12:14:00.973Z</time></trkpt><trkpt lat="42.96852" lon="11.4311383"><ele>156.2</ele><time>2026-04-11T12:14:02.973Z</time></trkpt><trkpt lat="42.96853" lon="11.431"><ele>155.8</ele><time>2026-04-11T12:14:04.974Z</time></trkpt><trkpt lat="42.9685383" lon="11.4308567"><ele>155.4</ele><time>2026-04-11T12:14:06.973Z</time></trkpt><trkpt lat="42.9685567" lon="11.4307033"><ele>155.0</ele><time>2026-04-11T12:14:08.974Z</time></trkpt><trkpt lat="42.96857" lon="11.43056"><ele>153.8</ele><time>2026-04-11T12:14:10.973Z</time></trkpt><trkpt lat="42.96858" lon="11.430405"><ele>152.6</ele><time>2026-04-11T12:14:12.973Z</time></trkpt><trkpt lat="42.9685917" lon="11.4302317"><ele>151.4</ele><time>2026-04-11T12:14:14.973Z</time></trkpt><trkpt lat="42.968595" lon="11.4301383"><ele>150.2</ele><time>2026-04-11T12:14:15.973Z</time></trkpt><trkpt lat="42.96859" lon="11.4300383"><ele>149.0</ele><time>2026-04-11T12:14:16.973Z</time></trkpt><trkpt lat="42.968585" lon="11.4299317"><ele>149.0</ele><time>2026-04-11T12:14:17.973Z</time></trkpt><trkpt lat="42.9685617" lon="11.4298317"><ele>149.0</ele><time>2026-04-11T12:14:18.974Z</time></trkpt><trkpt lat="42.9685333" lon="11.4297333"><ele>149.0</ele><time>2026-04-11T12:14:19.973Z</time></trkpt><trkpt lat="42.968485" lon="11.4296567"><ele>149.0</ele><time>2026-04-11T12:14:20.973Z</time></trkpt><trkpt lat="42.9684217" lon="11.4295833"><ele>149.0</ele><time>2026-04-11T12:14:21.973Z</time></trkpt><trkpt lat="42.968355" lon="11.42952"><ele>149.0</ele><time>2026-04-11T12:14:22.973Z</time></trkpt><trkpt lat="42.968295" lon="11.4294683"><ele>147.66666666666666</ele><time>2026-04-11T12:14:23.973Z</time></trkpt><trkpt lat="42.96824" lon="11.4294217"><ele>146.33333333333331</ele><time>2026-04-11T12:14:24.973Z</time></trkpt><trkpt lat="42.9681517" lon="11.429355"><ele>145.0</ele><time>2026-04-11T12:14:26.974Z</time></trkpt><trkpt lat="42.9680983" lon="11.429305"><ele>143.66666666666666</ele><time>2026-04-11T12:14:28.973Z</time></trkpt><trkpt lat="42.9680383" lon="11.4292683"><ele>142.33333333333334</ele><time>2026-04-11T12:14:32.973Z</time></trkpt><trkpt lat="42.96795" lon="11.4291883"><ele>141.0</ele><time>2026-04-11T12:14:42.973Z</time></trkpt><trkpt lat="42.9678817" lon="11.4290933"><ele>141.0</ele><time>2026-04-11T12:14:44.974Z</time></trkpt><trkpt lat="42.96783" lon="11.4289583"><ele>141.0</ele><time>2026-04-11T12:14:46.974Z</time></trkpt><trkpt lat="42.9677967" lon="11.4288217"><ele>141.0</ele><time>2026-04-11T12:14:48.974Z</time></trkpt><trkpt lat="42.967775" lon="11.4286917"><ele>141.0</ele><time>2026-04-11T12:14:50.973Z</time></trkpt><trkpt lat="42.967755" lon="11.428575"><ele>141.0</ele><time>2026-04-11T12:14:52.973Z</time></trkpt><trkpt lat="42.96774" lon="11.4284483"><ele>140.83333333333334</ele><time>2026-04-11T12:14:54.973Z</time></trkpt><trkpt lat="42.9677233" lon="11.42829"><ele>140.66666666666666</ele><time>2026-04-11T12:14:56.974Z</time></trkpt><trkpt lat="42.9677167" lon="11.4282033"><ele>140.5</ele><time>2026-04-11T12:14:57.974Z</time></trkpt><trkpt lat="42.9677083" lon="11.4281067"><ele>140.33333333333331</ele><time>2026-04-11T12:14:58.973Z</time></trkpt><trkpt lat="42.9676967" lon="11.42801"><ele>140.16666666666666</ele><time>2026-04-11T12:14:59.973Z</time></trkpt><trkpt lat="42.967685" lon="11.4279133"><ele>140.0</ele><time>2026-04-11T12:15:00.974Z</time></trkpt><trkpt lat="42.96767" lon="11.42782"><ele>140.0</ele><time>2026-04-11T12:15:01.973Z</time></trkpt><trkpt lat="42.967655" lon="11.4277233"><ele>140.0</ele><time>2026-04-11T12:15:02.973Z</time></trkpt><trkpt lat="42.967635" lon="11.42762"><ele>140.0</ele><time>2026-04-11T12:15:03.973Z</time></trkpt><trkpt lat="42.9676133" lon="11.42752"><ele>140.0</ele><time>2026-04-11T12:15:04.973Z</time></trkpt><trkpt lat="42.9675917" lon="11.427415"><ele>140.0</ele><time>2026-04-11T12:15:05.973Z</time></trkpt><trkpt lat="42.9675767" lon="11.427315"><ele>140.0</ele><time>2026-04-11T12:15:06.973Z</time></trkpt><trkpt lat="42.96756" lon="11.42723"><ele>140.0</ele><time>2026-04-11T12:15:07.973Z</time></trkpt><trkpt lat="42.9675217" lon="11.4271033"><ele>137.16666666666666</ele><time>2026-04-11T12:15:09.973Z</time></trkpt><trkpt lat="42.967475" lon="11.4270267"><ele>134.33333333333331</ele><time>2026-04-11T12:15:11.973Z</time></trkpt><trkpt lat="42.9673933" lon="11.426995"><ele>131.5</ele><time>2026-04-11T12:15:14.973Z</time></trkpt><trkpt lat="42.9673367" lon="11.4270867"><ele>128.66666666666666</ele><time>2026-04-11T12:15:17.973Z</time></trkpt><trkpt lat="42.9672917" lon="11.427185"><ele>125.83333333333333</ele><time>2026-04-11T12:15:19.974Z</time></trkpt><trkpt lat="42.9672367" lon="11.4272733"><ele>123.0</ele><time>2026-04-11T12:15:21.973Z</time></trkpt><trkpt lat="42.9671867" lon="11.4273467"><ele>123.0</ele><time>2026-04-11T12:15:23.973Z</time></trkpt><trkpt lat="42.9671367" lon="11.4274217"><ele>123.0</ele><time>2026-04-11T12:15:25.974Z</time></trkpt><trkpt lat="42.9670983" lon="11.4274933"><ele>123.0</ele><time>2026-04-11T12:15:27.974Z</time></trkpt><trkpt lat="42.9670567" lon="11.4275683"><ele>123.0</ele><time>2026-04-11T12:15:29.973Z</time></trkpt><trkpt lat="42.967015" lon="11.42765"><ele>123.0</ele><time>2026-04-11T12:15:31.973Z</time></trkpt><trkpt lat="42.9669533" lon="11.42774"><ele>123.0</ele><time>2026-04-11T12:15:33.973Z</time></trkpt><trkpt lat="42.9668983" lon="11.4278317"><ele>123.0</ele><time>2026-04-11T12:15:35.973Z</time></trkpt><trkpt lat="42.9668517" lon="11.4279283"><ele>123.0</ele><time>2026-04-11T12:15:37.973Z</time></trkpt><trkpt lat="42.9668067" lon="11.4280133"><ele>123.0</ele><time>2026-04-11T12:15:39.973Z</time></trkpt><trkpt lat="42.9667467" lon="11.4281017"><ele>123.0</ele><time>2026-04-11T12:15:41.974Z</time></trkpt><trkpt lat="42.9666933" lon="11.4281817"><ele>123.0</ele><time>2026-04-11T12:15:43.973Z</time></trkpt><trkpt lat="42.9666367" lon="11.4282583"><ele>123.0</ele><time>2026-04-11T12:15:45.973Z</time></trkpt><trkpt lat="42.96657" lon="11.42831"><ele>121.66666666666667</ele><time>2026-04-11T12:15:47.974Z</time></trkpt><trkpt lat="42.966505" lon="11.4283317"><ele>120.33333333333334</ele><time>2026-04-11T12:15:49.973Z</time></trkpt><trkpt lat="42.9664367" lon="11.4283617"><ele>119.0</ele><time>2026-04-11T12:15:51.974Z</time></trkpt><trkpt lat="42.9663583" lon="11.4283883"><ele>117.66666666666667</ele><time>2026-04-11T12:15:53.973Z</time></trkpt><trkpt lat="42.9662633" lon="11.428405"><ele>116.33333333333334</ele><time>2026-04-11T12:15:55.974Z</time></trkpt><trkpt lat="42.9661667" lon="11.4284067"><ele>115.0</ele><time>2026-04-11T12:15:57.973Z</time></trkpt><trkpt lat="42.9660667" lon="11.4284167"><ele>115.00000000000001</ele><time>2026-04-11T12:15:59.973Z</time></trkpt><trkpt lat="42.9659667" lon="11.428425"><ele>115.0</ele><time>2026-04-11T12:16:01.973Z</time></trkpt><trkpt lat="42.9658733" lon="11.4284433"><ele>115.0</ele><time>2026-04-11T12:16:03.973Z</time></trkpt><trkpt lat="42.9657917" lon="11.42846"><ele>115.0</ele><time>2026-04-11T12:16:05.973Z</time></trkpt><trkpt lat="42.96572" lon="11.4284617"><ele>115.00000000000001</ele><time>2026-04-11T12:16:07.973Z</time></trkpt><trkpt lat="42.9656483" lon="11.42846"><ele>115.0</ele><time>2026-04-11T12:16:09.973Z</time></trkpt><trkpt lat="42.9655717" lon="11.4284483"><ele>113.99999999999999</ele><time>2026-04-11T12:16:11.973Z</time></trkpt><trkpt lat="42.9654967" lon="11.4284483"><ele>113.0</ele><time>2026-04-11T12:16:13.973Z</time></trkpt><trkpt lat="42.9654233" lon="11.4284417"><ele>112.0</ele><time>2026-04-11T12:16:15.973Z</time></trkpt><trkpt lat="42.96535" lon="11.42844"><ele>111.0</ele><time>2026-04-11T12:16:17.973Z</time></trkpt><trkpt lat="42.965285" lon="11.4284383"><ele>110.0</ele><time>2026-04-11T12:16:19.973Z</time></trkpt><trkpt lat="42.9652217" lon="11.428435"><ele>109.0</ele><time>2026-04-11T12:16:21.974Z</time></trkpt><trkpt lat="42.9651317" lon="11.4284383"><ele>108.0</ele><time>2026-04-11T12:16:24.973Z</time></trkpt><trkpt lat="42.9650633" lon="11.428455"><ele>108.0</ele><time>2026-04-11T12:16:28.973Z</time></trkpt><trkpt lat="42.96502" lon="11.42854"><ele>108.0</ele><time>2026-04-11T12:16:40.973Z</time></trkpt><trkpt lat="42.9649567" lon="11.4286067"><ele>108.0</ele><time>2026-04-11T12:16:45.974Z</time></trkpt><trkpt lat="42.9648883" lon="11.4286133"><ele>108.0</ele><time>2026-04-11T12:16:48.973Z</time></trkpt><trkpt lat="42.9649633" lon="11.4285783"><ele>108.0</ele><time>2026-04-11T12:17:34.973Z</time></trkpt><trkpt lat="42.965" lon="11.4285017"><ele>108.0</ele><time>2026-04-11T12:17:38.973Z</time></trkpt><trkpt lat="42.9650567" lon="11.4284333"><ele>108.0</ele><time>2026-04-11T12:17:42.973Z</time></trkpt><trkpt lat="42.96512" lon="11.4284133"><ele>108.0</ele><time>2026-04-11T12:17:44.973Z</time></trkpt><trkpt lat="42.965205" lon="11.4284067"><ele>108.0</ele><time>2026-04-11T12:17:47.973Z</time></trkpt><trkpt lat="42.9652683" lon="11.4284033"><ele>108.0</ele><time>2026-04-11T12:17:49.973Z</time></trkpt><trkpt lat="42.965355" lon="11.4284033"><ele>108.0</ele><time>2026-04-11T12:17:52.973Z</time></trkpt><trkpt lat="42.96543" lon="11.4283967"><ele>108.0</ele><time>2026-04-11T12:17:55.973Z</time></trkpt><trkpt lat="42.96551" lon="11.4283617"><ele>108.0</ele><time>2026-04-11T12:17:58.973Z</time></trkpt><trkpt lat="42.9656" lon="11.4283567"><ele>108.0</ele><time>2026-04-11T12:18:01.973Z</time></trkpt><trkpt lat="42.9656917" lon="11.4283683"><ele>108.0</ele><time>2026-04-11T12:18:04.973Z</time></trkpt><trkpt lat="42.965755" lon="11.428365"><ele>108.0</ele><time>2026-04-11T12:18:06.973Z</time></trkpt><trkpt lat="42.9658383" lon="11.4283683"><ele>108.0</ele><time>2026-04-11T12:18:09.973Z</time></trkpt><trkpt lat="42.96592" lon="11.4283717"><ele>108.0</ele><time>2026-04-11T12:18:12.974Z</time></trkpt><trkpt lat="42.96599" lon="11.4283617"><ele>108.0</ele><time>2026-04-11T12:18:14.974Z</time></trkpt><trkpt lat="42.966055" lon="11.4283617"><ele>109.16666666666667</ele><time>2026-04-11T12:18:16.973Z</time></trkpt><trkpt lat="42.96612" lon="11.428355"><ele>110.33333333333334</ele><time>2026-04-11T12:18:18.974Z</time></trkpt><trkpt lat="42.96619" lon="11.4283533"><ele>111.5</ele><time>2026-04-11T12:18:20.973Z</time></trkpt><trkpt lat="42.96628" lon="11.4283483"><ele>112.66666666666667</ele><time>2026-04-11T12:18:23.973Z</time></trkpt><trkpt lat="42.966345" lon="11.4283133"><ele>113.83333333333334</ele><time>2026-04-11T12:18:26.973Z</time></trkpt><trkpt lat="42.9663517" lon="11.4282267"><ele>115.0</ele><time>2026-04-11T12:18:29.974Z</time></trkpt><trkpt lat="42.96633" lon="11.4281"><ele>114.99999999999999</ele><time>2026-04-11T12:18:32.973Z</time></trkpt><trkpt lat="42.966305" lon="11.4280167"><ele>115.0</ele><time>2026-04-11T12:18:34.974Z</time></trkpt><trkpt lat="42.9662833" lon="11.42793"><ele>114.99999999999999</ele><time>2026-04-11T12:18:36.973Z</time></trkpt><trkpt lat="42.9662617" lon="11.4278367"><ele>114.99999999999999</ele><time>2026-04-11T12:18:38.973Z</time></trkpt><trkpt lat="42.9662333" lon="11.4277367"><ele>115.0</ele><time>2026-04-11T12:18:40.973Z</time></trkpt><trkpt lat="42.9662067" lon="11.4276367"><ele>114.99999999999999</ele><time>2026-04-11T12:18:42.973Z</time></trkpt><trkpt lat="42.96618" lon="11.42754"><ele>114.99999999999999</ele><time>2026-04-11T12:18:44.973Z</time></trkpt><trkpt lat="42.9661533" lon="11.42744"><ele>115.16666666666667</ele><time>2026-04-11T12:18:46.973Z</time></trkpt><trkpt lat="42.966125" lon="11.4273417"><ele>115.33333333333334</ele><time>2026-04-11T12:18:48.973Z</time></trkpt><trkpt lat="42.9660967" lon="11.427235"><ele>115.5</ele><time>2026-04-11T12:18:50.973Z</time></trkpt><trkpt lat="42.9660717" lon="11.42714"><ele>115.66666666666666</ele><time>2026-04-11T12:18:52.973Z</time></trkpt><trkpt lat="42.9660433" lon="11.42703"><ele>115.83333333333333</ele><time>2026-04-11T12:18:54.974Z</time></trkpt><trkpt lat="42.966015" lon="11.4269333"><ele>116.0</ele><time>2026-04-11T12:18:56.973Z</time></trkpt><trkpt lat="42.9659833" lon="11.4268567"><ele>115.49999999999999</ele><time>2026-04-11T12:18:58.974Z</time></trkpt><trkpt lat="42.9659233" lon="11.4268083"><ele>115.0</ele><time>2026-04-11T12:19:00.973Z</time></trkpt><trkpt lat="42.96586" lon="11.4267267"><ele>114.5</ele><time>2026-04-11T12:19:02.973Z</time></trkpt><trkpt lat="42.9657817" lon="11.4266717"><ele>114.0</ele><time>2026-04-11T12:19:04.973Z</time></trkpt><trkpt lat="42.9657183" lon="11.4266333"><ele>113.49999999999999</ele><time>2026-04-11T12:19:06.973Z</time></trkpt><trkpt lat="42.9656433" lon="11.426585"><ele>113.0</ele><time>2026-04-11T12:19:09.973Z</time></trkpt><trkpt lat="42.9655917" lon="11.426515"><ele>112.33333333333333</ele><time>2026-04-11T12:19:15.972Z</time></trkpt><trkpt lat="42.965535" lon="11.4264733"><ele>111.66666666666666</ele><time>2026-04-11T12:19:18.972Z</time></trkpt><trkpt lat="42.9654683" lon="11.426415"><ele>111.0</ele><time>2026-04-11T12:19:22.972Z</time></trkpt><trkpt lat="42.9653883" lon="11.426365"><ele>110.33333333333334</ele><time>2026-04-11T12:19:26.972Z</time></trkpt><trkpt lat="42.9653067" lon="11.4263233"><ele>109.66666666666667</ele><time>2026-04-11T12:19:29.972Z</time></trkpt><trkpt lat="42.9652417" lon="11.4263133"><ele>109.0</ele><time>2026-04-11T12:19:33.972Z</time></trkpt><trkpt lat="42.9653117" lon="11.426285"><ele>109.0</ele><time>2026-04-11T12:19:47.972Z</time></trkpt><trkpt lat="42.96537" lon="11.4262467"><ele>109.0</ele><time>2026-04-11T12:19:52.972Z</time></trkpt><trkpt lat="42.96543" lon="11.426215"><ele>109.0</ele><time>2026-04-11T12:19:57.972Z</time></trkpt><trkpt lat="42.96551" lon="11.4262533"><ele>109.0</ele><time>2026-04-11T12:20:01.972Z</time></trkpt><trkpt lat="42.9655783" lon="11.426305"><ele>109.0</ele><time>2026-04-11T12:20:04.973Z</time></trkpt><trkpt lat="42.9656383" lon="11.4263483"><ele>109.0</ele><time>2026-04-11T12:20:07.972Z</time></trkpt><trkpt lat="42.9656967" lon="11.4263817"><ele>109.0</ele><time>2026-04-11T12:20:10.972Z</time></trkpt><trkpt lat="42.9657617" lon="11.4264317"><ele>108.83333333333334</ele><time>2026-04-11T12:20:13.972Z</time></trkpt><trkpt lat="42.9658267" lon="11.4264933"><ele>108.66666666666667</ele><time>2026-04-11T12:20:16.972Z</time></trkpt><trkpt lat="42.9658833" lon="11.42655"><ele>108.5</ele><time>2026-04-11T12:20:19.972Z</time></trkpt><trkpt lat="42.9659383" lon="11.4266"><ele>108.33333333333334</ele><time>2026-04-11T12:20:22.972Z</time></trkpt><trkpt lat="42.965985" lon="11.42676"><ele>108.16666666666667</ele><time>2026-04-11T12:21:46.972Z</time></trkpt><trkpt lat="42.96604" lon="11.4266683"><ele>108.0</ele><time>2026-04-11T12:22:23.763Z</time></trkpt><trkpt lat="42.9661017" lon="11.4267467"><ele>113.0</ele><time>2026-04-11T12:22:34.981Z</time></trkpt><trkpt lat="42.96616" lon="11.4266517"><ele>113.0</ele><time>2026-04-11T12:22:41.981Z</time></trkpt><trkpt lat="42.9661133" lon="11.42674"><ele>113.0</ele><time>2026-04-11T12:22:53.981Z</time></trkpt><trkpt lat="42.96609" lon="11.4268283"><ele>113.0</ele><time>2026-04-11T12:23:00.981Z</time></trkpt></trkseg></trk></gpx>